     2.10           OBSERVATION DATA    G (GPS)             RINEX VERSION / TYPE
teqc 2000Jul20 Karen Wendt 20040802 19:45:42UTC             PGM / RUN BY / DATE
Linux 2.0.36|Pentium II|gcc -static|Linux|486/DX+           COMMENT
teqc 2000Jul20 Karen Wendt 20040802 19:45:41UTC             COMMENT
BIT 2 OF LLI FLAGS DATA COLLECTED UNDER A/S CONDITION       COMMENT
tab3 Table_No3_1941_USC&GS                                  MARKER NAME
GDH USGS                                                    OBSERVER / AGENCY
ZE120023208 ASHTECH UZ-12 ZE00                              REC # / TYPE / VERS
CR620022602 ASH701945E_M NONE                               ANT # / TYPE
 -2724289.0000 -4009613.0000  4131431.0000                  APPROX POSITION XYZ
        1.1681        0.0000        0.0000                  ANTENNA: DELTA H/E/N
     1     1                                                WAVELENGTH FACT L1/2
     5    C1    L1    L2    P1    P2                        # / TYPES OF OBSERV
    30.0000                                                 INTERVAL
                                                            COMMENT
National Earthquake Hazard Reduction Program                COMMENT
Crustal Strain Project                                      COMMENT
345 Middlefield Road, MS/977                                COMMENT
U.S. Geological Survey, Menlo Park, California 94025        COMMENT
Contact: kwendt@usgs.gov (Ph: 650-329-4866)                 COMMENT
Antenna height is vertical to base of antenna               COMMENT
                                                            COMMENT
SNR is mapped to RINEX snr flag value [1-9]                 COMMENT
L1: 1 -> 1; 90 -> 5; 210 -> 9                               COMMENT
L2: 1 -> 1; 150 -> 5; 250 -> 9                              COMMENT
  2004     7    22     0     0    0.0000000     GPS         TIME OF FIRST OBS
                                                            END OF HEADER
 04  7 22  0  0  0.0000000  0  8G27G20G23G16G 3G13G 8G 1
  21775640.902   -20072952.37943 -15442383.77842  21775643.073    21775638.732
  23797238.938    -9610497.43943  -7475736.36842  23797240.560    23797238.108
  21069166.845   -24139684.47443 -18758194.49442  21069169.209    21069161.436
  23133730.969   -13126602.88143 -10223823.08642  23133732.952    23133727.963
  23730619.008    -7014309.49643  -5429239.44942  23730621.376    23730618.744
  20366219.223   -27530613.98644 -20936194.25542  20366222.016    20366215.597
  23644210.163   -10544523.36643  -8181341.61442  23644211.205    23644208.903
  21953554.909   -18066863.83543 -14039790.75042  21953556.963    21953552.982
 04  7 22  0  0 30.0000000  0  8G27G20G23G16G 3G13G 8G 1
  21766853.739   -20119129.16943 -15478365.65342  21766855.940    21766851.575
  23818753.570    -9497437.89343  -7387638.14642  23818755.146    23818752.823
  21079415.097   -24085829.71243 -18716229.76342  21079417.467    21079409.688
  23149706.835   -13042649.11643 -10158404.60542  23149708.786    23149703.890
  23720086.638    -7069657.33243  -5472367.55342  23720088.996    23720086.345
  20361777.286   -27553956.49644 -20954383.20842  20361780.077    20361773.653
  23628038.462   -10629506.44543  -8247562.11542  23628039.479    23628037.122
  21965843.968   -18002284.53543 -13989469.25542  21965845.995    21965842.045
 04  7 22  0  1  0.0000000  0  8G27G20G23G16G 3G13G 8G 1
  21758104.225   -20165107.94243 -15514193.23542  21758106.438    21758102.051
  23840287.462    -9384277.09043  -7299461.03442  23840288.933    23840286.803
  21089730.849   -24031620.07343 -18673988.51142  21089733.218    21089725.455
  23165746.514   -12958360.33343 -10092725.06142  23165748.501    23165743.562
  23709623.343    -7124641.90143  -5515212.60742  23709625.779    23709622.988
  20357403.790   -27576939.31844 -20972291.88742  20357406.565    20357400.138
  23611894.835   -10714341.61843  -8313667.36242  23611895.859    23611893.430
  21978186.975   -17937421.67643 -13938926.80642  21978189.004    21978185.038
 04  7 22  0  1 30.0000000  0  8G27G20G23G16G 3G13G 8G 1
  21749391.689   -20210892.51443 -15549869.49442  21749393.893    21749389.481
  23861839.277    -9271021.82143  -7211210.30442  23861840.813    23861838.657
  21100113.363   -23977059.68043 -18631473.94442  21100115.744    21100107.962
  23181848.770   -12873742.72543 -10026789.31142  23181850.776    23181845.776
  23699228.893    -7179264.55443  -5557775.64642  23699231.323    23699228.538
  20353098.239   -27599564.97644 -20989922.25942  20353101.047    20353094.632
  23595778.680   -10799032.01843  -8379659.80742  23595779.738    23595777.325
  21990583.181   -17872279.24943 -13888166.50642  21990585.223    21990581.285
 04  7 22  0  2  0.0000000  0  8G27G20G23G16G 3G13G 8G 1
  21740716.021   -20256483.45043 -15585394.86042  21740718.200    21740713.752
  23883408.547    -9157675.00843  -7122888.24142  23883410.029    23883407.931
  21110562.554   -23922148.93243 -18588686.37142  21110564.926    21110557.173
  23198013.030   -12788799.23843  -9960599.60442  23198015.045    23198009.999
  23688903.839    -7233522.65743  -5600054.64542  23688906.323    23688903.434
  20348860.964   -27621832.22944 -21007273.35342  20348863.739    20348857.325
  23579690.164   -10883577.39943  -8445539.24342  23579691.218    23579688.743
  22003032.568   -17806857.54043 -13837188.58442  22003034.608    22003030.651
 04  7 22  0  2 30.0000000  0  8G27G20G23G16G 3G13G 8G 1
  21732077.821   -20301877.34243 -15620766.69142  21732080.016    21732075.520
  23904995.422    -9044235.68243  -7034494.09842  23904996.875    23904994.685
  21121079.019   -23866884.63743 -18545623.30842  21121081.386    21121073.646
  23214239.449   -12703528.90643  -9894155.24542  23214241.461    23214236.483
  23678649.353    -7287410.18443  -5642044.85442  23678651.750    23678649.001
  20344692.750   -27643736.19544 -21024341.37042  20344695.554    20344689.114
  23563629.931   -10967974.06843  -8511302.80142  23563630.974    23563628.488
  22015535.655   -17741153.47443 -13785990.64842  22015537.745    22015533.740
 04  7 22  0  3  0.0000000  0  8G27G20G23G16G 3G13G 8G 1
  21723476.564   -20347077.02743 -15655987.18942  21723478.747    21723474.268
  23926598.865    -8930709.08943  -6946031.94542  23926600.334    23926598.173
  21131662.227   -23811269.79943 -18502287.09742  21131664.566    21131656.803
  23230527.044   -12617936.99543  -9827460.28942  23230529.024    23230524.145
  23668465.390    -7340927.19643  -5683746.36842  23668467.662    23668464.898
  20340593.344   -27665278.59544 -21041127.64942  20340596.173    20340589.705
  23547597.569   -11052223.96643  -8576951.99242  23547598.613    23547596.142
  22028091.950   -17675170.10843 -13734575.07542  22028094.036    22028089.975
 04  7 22  0  3 30.0000000  0  8G27G20G23G16G 3G13G 8G 1
  21714912.409   -20392081.89143 -15691055.87142  21714914.577    21714910.099
  23948218.561    -8817097.37343  -6857503.46142  23948220.040    23948217.905
  21142312.220   -23755303.77543 -18458677.23442  21142314.575    21142306.836
  23246875.475   -12532025.26143  -9760516.10642  23246877.461    23246872.683
  23658352.685    -7394070.25643  -5725156.47942  23658354.914    23658352.103
  20336563.257   -27686456.87544 -21057630.19742  20336566.079    20336559.568
  23531593.402   -11136326.15843  -8642486.06442  23531594.381    23531591.959
  22040701.517   -17608906.73843 -13682941.31942  22040703.603    22040699.481
 04  7 22  0  4  0.0000000  0  8G27G20G23G16G 3G13G 8G 1
  21706385.372   -20436891.55443 -15725972.45242  21706387.546    21706383.082
  23969854.056    -8703402.56343  -6768910.22242  23969855.523    23969853.406
  21153029.088   -23698986.38343 -18414793.57842  21153031.444    21153023.689
  23263284.397   -12445795.76643  -9693324.34542  23263286.356    23263281.605
  23648311.629    -7446835.98143  -5766272.57542  23648313.868    23648311.137
  20332602.760   -27707269.38744 -21073847.73242  20332605.562    20332599.064
  23515617.563   -11220279.15643  -8707903.89242  23515618.556    23515616.154
  22053364.383   -17542363.08643 -13631089.15642  22053366.495    22053362.405
 04  7 22  0  4 30.0000000  0  8G27G20G23G16G 3G13G 8G 1
  21697894.709   -20481510.02443 -15760740.05742  21697896.872    21697892.459
  23991504.137    -8589631.02243  -6680257.19042  23991505.664    23991503.582
  21163812.055   -23642321.63243 -18370639.25142  21163814.383    21163806.657
  23279752.692   -12359254.84543  -9625889.89942  23279754.631    23279749.850
  23638342.232    -7499225.43843  -5807095.47042  23638344.532    23638341.789
  20328711.440   -27727718.39444 -21089782.01842  20328714.262    20328707.716
  23499669.448   -11304086.63043  -8773208.32242  23499670.464    23499668.044
  22066079.764   -17475543.33243 -13579021.85342  22066081.905    22066077.823
 04  7 22  0  5  0.0000000  0  8G27G20G23G16G 3G13G 8G 1
  21689441.800   -20525930.29043 -15795353.22242  21689443.932    21689439.539
  24013169.730    -8475778.28843  -6591540.91142  24013171.263    24013169.242
  21174662.441   -23585302.64943 -18326208.89842  21174664.760    21174657.014
  23296281.117   -12272397.83543  -9558209.16142  23296283.093    23296278.167
  23628446.209    -7551228.80143  -5847617.50342  23628448.524    23628445.769
  20324890.870   -27747795.60344 -21105426.59142  20324893.691    20324887.132
  23483750.523   -11387740.82743  -8838393.31242  23483751.607    23483749.093
  22078849.021   -17408440.46943 -13526733.93542  22078851.187    22078847.086
 04  7 22  0  5 30.0000000  0  8G27G20G23G16G 3G13G 8G 1
  21681025.712   -20570156.95843 -15829815.52542  21681027.874    21681023.464
  24034849.286    -8361851.72043  -6502767.08942  24034850.857    24034848.898
  21185579.260   -23527934.43643 -18281506.41642  21185581.599    21185573.861
  23312868.225   -12185231.82043  -9490287.62542  23312870.290    23312865.328
  23618623.310    -7602848.07443  -5887840.25342  23618625.639    23618622.932
  20321140.473   -27767504.09544 -21120783.85342  20321143.282    20321136.737
  23467859.967   -11471246.04643  -8903462.21742  23467861.041    23467858.500
  22091671.199   -17341059.51843 -13474229.34342  22091673.344    22091669.310
 04  7 22  0  6  0.0000000  0  8G27G20G23G16G 3G13G 8G 1
  21672646.309   -20614190.98243 -15864127.72442  21672648.439    21672644.023
  24056542.273    -8247854.75343  -6413938.42442  24056543.861    24056541.888
  21196562.328   -23470218.00143 -18236532.58942  21196564.669    21196556.957
  23329513.574   -12097760.12643  -9422127.90442  23329515.615    23329510.694
  23608873.787    -7654081.55443  -5927762.37442  23608876.101    23608873.469
  20317460.321   -27786843.37944 -21135853.42642  20317463.109    20317456.593
  23451997.684   -11554602.49343  -8968415.18642  23451998.764    23451996.210
  22104546.080   -17273401.48743 -13421508.83942  22104548.229    22104544.230
 04  7 22  0  6 30.0000000  0  8G27G20G23G16G 3G13G 8G 1
  21664303.797   -20658031.00943 -15898288.76242  21664305.964    21664301.501
  24078248.629    -8133788.20343  -6325055.52542  24078250.128    24078248.176
  21207611.939   -23412151.74443 -18191286.16842  21207614.292    21207606.603
  23346216.961   -12009983.68943  -9353730.72142  23346218.923    23346214.077
  23599198.574    -7704924.62443  -5967380.29142  23599200.819    23599198.289
  20313851.027   -27805810.42044 -21150632.93542  20313853.807    20313847.296
  23436164.164   -11637807.87343  -9033250.42542  23436165.307    23436162.671
  22117473.976   -17205464.89443 -13368571.27242  22117476.096    22117472.167
 04  7 22  0  7  0.0000000  0  8G27G20G23G16G 3G13G 8G 1
  21655997.969   -20701678.27043 -15932299.58342  21656000.153    21655995.672
  24099967.399    -8019655.96643  -6236121.44742  24099968.890    24099966.940
  21218727.822   -23353737.44143 -18145768.54542  21218730.175    21218722.501
  23362977.544   -11921906.45443  -9285099.15442  23362979.500    23362974.592
  23589598.094    -7755376.11343  -6006693.08942  23589600.191    23589597.654
  20310312.507   -27824405.32844 -21165122.46742  20310315.310    20310308.772
  23420359.144   -11720863.30443  -9097968.84242  23420360.207    23420357.612
  22130454.620   -17137251.38343 -13315417.92742  22130456.695    22130452.835
 04  7 22  0  7 30.0000000  0  8G27G20G23G16G 3G13G 8G 1
  21647728.902   -20745132.22143 -15966159.77242  21647731.122    21647726.611
  24121698.244    -7905459.91643  -6147137.64542  24121699.854    24121697.910
  21229910.032   -23294974.65743 -18099979.38342  21229912.400    21229904.698
  23379795.073   -11833530.16443  -9216234.54842  23379796.972    23379792.137
  23580072.588    -7805432.72143  -6045698.18842  23580074.738    23580072.016
  20306845.282   -27842625.75144 -21179320.19442  20306848.078    20306841.520
  23404582.964   -11803767.00343  -9162569.02642  23404584.027    23404581.413
  22143488.006   -17068760.59643 -13262048.52442  22143490.078    22143486.265
 04  7 22  0  8  0.0000000  0  8G27G20G23G16G 3G13G 8G 1
  21639497.178   -20788390.01543 -15999867.10842  21639499.401    21639494.887
  24143441.332    -7791199.72043  -6058103.87242  24143442.965    24143441.034
  21241159.060   -23235860.64443 -18053916.53642  21241161.461    21241153.735
  23396669.615   -11744854.26143  -9147136.47642  23396671.463    23396666.554
  23570623.434    -7855088.68343  -6084391.08242  23570625.544    23570622.759
  20303450.104   -27860467.42544 -21193222.79542  20303452.901    20303446.345
  23388836.321   -11886515.71643  -9227048.43842  23388837.423    23388834.738
  22156574.627   -16999989.73143 -13208460.87442  22156576.729    22156572.986
 04  7 22  0  8 30.0000000  0  8G27G20G23G16G 3G13G 8G 1
  21631301.656   -20831457.72743 -16033426.33042  21631303.863    21631299.334
  24165195.038    -7676884.02543  -5969026.85342  24165196.699    24165194.731
  21252473.717   -23176401.73443 -18007584.94642  21252476.112    21252468.414
  23413599.485   -11655887.30043  -9077811.61042  23413601.431    23413596.434
  23561249.748    -7904347.46643  -6122774.49042  23561251.919    23561249.091
  20300126.191   -27877934.89344 -21206833.80542  20300128.962    20300122.404
  23373118.158   -11969114.95543  -9291411.36442  23373119.239    23373116.547
  22169713.470   -16930944.99143 -13154659.81742  22169715.528    22169711.796
 04  7 22  0  9  0.0000000  0  8G27G20G23G16G 3G13G 8G 1
  21623142.682   -20874333.27943 -16066835.82142  21623144.916    21623140.353
  24186959.122    -7562513.20843  -5879906.86442  24186960.843    24186958.969
  21263854.414   -23116595.92643 -17960983.04242  21263856.806    21263849.101
  23430584.699   -11566629.55643  -9008260.16242  23430586.653    23430581.599
  23551952.487    -7953204.40143  -6160844.75542  23551954.708    23551951.933
  20296874.092   -27895024.72144 -21220150.54542  20296876.869    20296870.297
  23357428.869   -12051562.45243  -9355656.07942  23357429.940    23357427.237
  22182904.662   -16861624.56943 -13100643.94142  22182906.766    22182903.069
 04  7 22  0  9 30.0000000  0  8G27G20G23G16G 3G13G 8G 1
  21615020.851   -20917013.71243 -16100093.28042  21615023.077    21615018.523
  24208733.864    -7448087.02243  -5790743.74542  24208735.510    24208733.659
  21275301.603   -23056440.63843 -17914108.81442  21275303.988    21275296.281
  23447625.271   -11477080.54143  -8938481.74542  23447627.247    23447622.238
  23542732.793    -8001653.90543  -6198597.55742  23542735.030    23542732.111
  20293694.707   -27911732.54244 -21233169.62442  20293697.484    20293690.895
  23341769.088   -12133854.46143  -9419779.62342  23341770.128    23341767.489
  22196148.986   -16792025.83143 -13046411.20842  22196151.044    22196147.290
 04  7 22  0 10  0.0000000  0  8G27G20G23G16G 3G13G 8G 1
  21606935.099   -20959504.49443 -16133202.95242  21606937.331    21606932.749
  24230517.753    -7333612.94443  -5701543.31242  24230519.285    24230517.359
  21286814.229   -22995941.52343 -17866966.66542  21286816.619    21286808.888
  23464719.940   -11387248.05143  -8868482.42042  23464721.868    23464716.827
  23533590.199    -8049698.44843  -6236034.82242  23533592.375    23533589.542
  20290587.232   -27928062.36644 -21245894.15642  20290590.038    20290583.433
  23326138.031   -12215995.79643  -9483785.76542  23326139.091    23326136.454
  22209445.178   -16722154.22843 -12991965.83642  22209447.243    22209443.471
 04  7 22  0 10 30.0000000  0  8G27G20G23G16G 3G13G 8G 1
  21598886.437   -21001800.58043 -16166160.91342  21598888.623    21598884.030
  24252311.038    -7219088.69343  -5612303.77042  24252312.603    24252310.780
  21298393.201   -22935093.68743 -17819552.79242  21298395.584    21298387.868
  23481868.935   -11297129.48343  -8798260.19742  23481870.824    23481865.876
  23524526.048    -8097330.54943  -6273150.67942  23524528.275    23524525.371
  20287552.967   -27944007.50844 -21258318.93342  20287555.758    20287549.170
  23310536.810   -12297980.64043  -9547669.95742  23310537.899    23310535.166
  22222794.153   -16652004.99843 -12937304.13942  22222796.224    22222792.511
 04  7 22  0 11  0.0000000  0  8G27G20G23G16G 3G13G 8G 1
  21590873.954   -21043906.14843 -16198970.41842  21590876.153    21590871.560
  24274112.666    -7104520.91843  -5523030.32942  24274114.233    24274112.412
  21310037.691   -22873901.57743 -17771870.65142  21310040.066    21310032.339
  23499070.975   -11206731.53843  -8727820.25842  23499072.898    23499068.075
  23515540.215    -8144551.60343  -6309946.26742  23515542.438    23515539.523
  20284591.318   -27959570.96344 -21270446.28942  20284594.122    20284587.537
  23294964.676   -12379812.78843  -9611435.17542  23294965.714    23294962.929
  22236195.121   -16581582.59043 -12882429.57942  22236197.172    22236193.466
 04  7 22  0 11 30.0000000  0  8G27G20G23G16G 3G13G 8G 1
  21582898.440   -21085817.82443 -16231628.83742  21582900.613    21582896.018
  24295922.758    -6989908.70243  -5433722.25642  24295924.335    24295922.489
  21321748.302   -22812362.02443 -17723917.78042  21321750.669    21321742.932
  23516326.616   -11116053.04843  -8657161.72142  23516328.450    23516323.698
  23506633.600    -8191355.73143  -6346416.95742  23506635.802    23506632.927
  20281703.323   -27974747.42644 -21282272.09942  20281706.135    20281699.570
  23279422.293   -12461488.18643  -9675078.25742  23279423.344    23279420.574
  22249648.706   -16510883.91143 -12827339.74242  22249650.762    22249646.989
 04  7 22  0 12  0.0000000  0  8G27G20G23G16G 3G13G 8G 1
  21574959.144   -21127539.03543 -16264138.83142  21574961.310    21574956.712
  24317740.248    -6875257.85543  -5344384.08842  24317741.812    24317739.971
  21333524.346   -22750478.70043 -17675697.03242  21333526.680    21333518.949
  23533634.400   -11025100.05943  -8586289.29742  23533636.306    23533631.504
  23497806.144    -8237743.57643  -6382563.27642  23497808.439    23497805.576
  20278888.470   -27989539.64044 -21293798.49442  20278891.252    20278884.690
  23263909.268   -12543009.41243  -9738601.20542  23263910.279    23263907.500
  22263154.119   -16439912.50343 -12772037.39342  22263156.211    22263152.405
 04  7 22  0 12 30.0000000  0  8G27G20G23G16G 3G13G 8G 1
  21567056.373   -21169068.31843 -16296499.27842  21567058.540    21567053.898
  24339564.858    -6760569.23843  -5255016.48042  24339566.390    24339564.515
  21345366.012   -22688250.51943 -17627207.57042  21345368.347    21345360.626
  23550994.264   -10933873.40643  -8515203.63442  23550996.140    23550991.375
  23489058.731    -8283711.28343  -6418382.21242  23489061.040    23489058.236
  20276147.381   -28003944.20144 -21305022.82342  20276150.145    20276143.585
  23248425.941   -12624374.58343  -9802002.55442  23248426.917    23248424.136
  22276711.719   -16368667.07143 -12716521.51142  22276713.804    22276709.998
 04  7 22  0 13  0.0000000  0  9G27G20G23G16G 3G13G 8G19G 1
  21559188.585   -21210413.63043 -16328716.37042  21559190.761    21559186.098
  24361394.688    -6645853.55143  -5165627.77042  24361396.200    24361394.318
  21357271.771   -22625685.43043 -17578455.58042  21357274.101    21357266.407
  23568404.202   -10842383.33243  -8443912.70142  23568406.179    23568401.410
  23480390.235    -8329264.20143  -6453877.95842  23480392.541    23480389.801
  20273478.789   -28017967.77344 -21315950.28142  20273481.551    20273474.970
  23232970.942   -12705591.24543  -9865288.20242  23232971.867    23232969.022
  24720583.291    -3727838.54853  -2891499.64052  24720585.525    24720582.676
  22290319.875   -16297155.97243 -12660798.62742  22290321.911    22290318.154
 04  7 22  0 13 30.0000000  0  9G27G20G23G16G 3G13G 8G19G 1
  21551358.820   -21251559.23443 -16360777.84342  21551360.995    21551356.313
  24383232.297    -6531097.28543  -5076207.45642  24383233.708    24383231.726
  21369244.538   -22562768.19743 -17529429.18942  21369246.854    21369239.186
  23585866.761   -10750616.77043  -8372406.34042  23585868.789    23585864.045
  23471804.229    -8374383.93843  -6489036.14942  23471806.527    23471803.684
  20270885.927   -28031593.27144 -21326567.54742  20270888.696    20270882.107
  23217547.253   -12786642.87343  -9928445.23942  23217548.180    23217545.320
  24704817.701    -3810686.89243  -2956056.67142  24704819.974    24704816.899
  22303981.490   -16225363.74343 -12604856.67742  22303983.542    22303979.791
 04  7 22  0 14  0.0000000  0  9G27G20G23G16G 3G13G 8G19G 1
  21543565.317   -21292514.15643 -16392690.74842  21543567.530    21543562.791
  24405075.297    -6416312.06543  -4986764.56742  24405076.736    24405074.789
  21381282.576   -22499507.99743 -17480135.55742  21381284.898    21381277.220
  23603379.823   -10658584.95143  -8300693.29042  23603381.868    23603377.201
  23463299.494    -8419076.87943  -6523861.79042  23463301.718    23463298.822
  20268367.327   -28044828.52844 -21336880.72742  20268370.094    20268363.534
  23202153.336   -12867537.82643  -9991480.18042  23202154.280    23202151.453
  24689062.239    -3893481.97843  -3020572.18942  24689064.388    24689061.389
  22317694.843   -16153299.44943 -12548702.73042  22317696.955    22317693.186
 04  7 22  0 14 30.0000000  0  9G27G20G23G16G 3G13G 8G19G 1
  21535808.173   -21333277.86243 -16424454.64942  21535810.396    21535805.687
  24426923.367    -6301499.89943  -4897300.70242  24426924.824    24426923.044
  21393385.886   -22435904.78843 -17430574.64142  21393388.209    21393380.532
  23620943.053   -10566289.86443  -8228775.07542  23620945.083    23620940.505
  23454876.317    -8463340.09543  -6558352.55442  23454878.605    23454875.749
  20265923.476   -28057671.08644 -21346887.91142  20265926.257    20265919.665
  23186789.362   -12948275.40343 -10054392.50842  23186790.320    23186787.543
  24673317.618    -3976220.24043  -3085043.43742  24673319.781    24673316.591
  22331460.078   -16080962.96143 -12492336.67942  22331462.156    22331458.397
 04  7 22  0 15  0.0000000  0  9G27G20G23G16G 3G13G 8G19G 1
  21528086.670   -21373854.45043 -16456072.74442  21528088.856    21528084.192
  24448775.339    -6186667.12943  -4807820.76542  24448776.746    24448775.203
  21405553.659   -22371962.94843 -17380749.86042  21405555.984    21405548.273
  23638555.152   -10473737.86543  -8156656.67742  23638557.135    23638552.664
  23446534.959    -8507174.99743  -6592509.59442  23446537.204    23446534.117
  20263553.784   -28070123.87344 -21356591.37742  20263556.580    20263549.991
  23171454.873   -13028858.77343 -10117184.66742  23171455.752    23171452.971
  24657583.590    -4058902.39343  -3149470.97442  24657585.659    24657582.391
  22345276.234   -16008358.69643 -12435761.97242  22345278.339    22345274.554
 04  7 22  0 15 30.0000000  0  9G27G20G23G16G 3G13G 8G19G 1
  21520402.247   -21414236.34043 -16487539.12742  21520404.404    21520399.767
  24470632.277    -6071808.56043  -4718320.75442  24470633.793    24470632.277
  21417787.286   -22307674.92943 -17330655.31942  21417789.646    21417781.883
  23656217.144   -10380923.81643  -8084334.08242  23656219.145    23656214.594
  23438276.876    -8550571.28143  -6626324.83842  23438279.163    23438276.119
  20261260.043   -28082177.66644 -21365983.93742  20261262.842    20261256.231
  23156151.098   -13109280.25843 -10179850.67742  23156152.019    23156149.164
  24641862.250    -4141517.97043  -3213846.62242  24641864.316    24641861.227
  22359144.733   -15935479.31243 -12378972.88842  22359146.842    22359143.085
 04  7 22  0 16  0.0000000  0  9G27G20G23G16G 3G13G 8G19G 1
  21512753.387   -21454431.36943 -16518859.91142  21512755.549    21512750.889
  24492492.105    -5956934.59743  -4628808.73942  24492493.624    24492492.160
  21430085.163   -22243049.06043 -17280297.53042  21430087.525    21430079.809
  23673926.981   -10287857.92143  -8011815.25742  23673929.006    23673924.428
  23430101.216    -8593534.65343  -6659802.75142  23430103.454    23430100.417
  20259040.822   -28093839.27944 -21375070.90742  20259043.734    20259037.089
  23140876.920   -13189546.22243 -10242395.50942  23140877.934    23140874.937
  24626152.783    -4224071.47443  -3278173.92642  24626154.902    24626151.801
  22373064.061   -15862332.85643 -12321975.70742  22373066.162    22373062.443
 04  7 22  0 16 30.0000000  0  9G27G20G23G16G 3G13G 8G19G 1
  21505141.405   -21494432.52043 -16550029.62442  21505143.561    21505138.884
  24514355.787    -5842040.73743  -4539281.20242  24514357.383    24514355.908
  21442448.602   -22178078.76343 -17229671.35042  21442450.956    21442443.251
  23691685.690   -10194535.75243  -7939096.72442  23691687.658    23691682.995
  23422009.808    -8636055.22143  -6692935.62642  23422012.059    23422008.903
  20256897.970   -28105100.25544 -21383845.69042  20256900.856    20256894.216
  23125633.614   -13269649.82843 -10304813.83142  23125634.635    23125631.614
  24610457.055    -4306552.83343  -3342445.00042  24610459.178    24610456.135
  22387035.489   -15788912.77443 -12264765.30042  22387037.577    22387033.878
 04  7 22  0 17  0.0000000  0  9G27G20G23G16G 3G13G 8G19G 1
  21497564.912   -21534247.06143 -16581053.92242  21497567.068    21497562.396
  24536221.446    -5727136.74143  -4449745.77742  24536223.003    24536221.567
  21454876.118   -22112771.74743 -17178782.79342  21454878.430    21454870.780
  23709491.297   -10100966.85143  -7866185.94642  23709493.257    23709488.657
  23414001.727    -8678138.04143  -6725727.39742  23414003.907    23414000.777
  20254830.227   -28115966.50844 -21392312.89842  20254833.071    20254826.411
  23110419.871   -13349598.01243 -10367111.04142  23110420.928    23110417.884
  24594774.316    -4388966.18943  -3406663.08142  24594776.383    24594773.080
  22401057.582   -15715226.76743 -12207347.67942  22401059.659    22401055.934
 04  7 22  0 17 30.0000000  0  9G27G20G23G16G 3G13G 8G19G 1
  21490024.766   -21573870.91843 -16611929.63542  21490026.903    21490022.212
  24558089.384    -5612220.72943  -4360200.99242  24558090.841    24558089.691
  21467368.511   -22047124.09443 -17127628.81042  21467370.804    21467363.135
  23727344.202   -10007149.37243  -7793081.46642  23727346.127    23727341.560
  23406078.118    -8719776.69543  -6758173.07542  23406080.339    23406077.179
  20252838.545   -28126432.86744 -21400468.50242  20252841.380    20252834.721
  23095236.693   -13429385.56943 -10429283.09042  23095237.797    23095234.735
  24579105.848    -4471304.14843  -3470822.41842  24579107.963    24579104.592
  22415130.980   -15641270.78143 -12149719.69242  22415133.055    22415129.374
 04  7 22  0 18  0.0000000  0  9G27G20G23G16G 3G13G 8G19G 1
  21482520.765   -21613304.55843 -16642657.12842  21482522.929    21482518.235
  24579958.976    -5497295.64543  -4270649.12842  24579960.474    24579959.375
  21479925.504   -21981136.70343 -17076210.09542  21479927.798    21479920.177
  23745243.932    -9913086.52243  -7719785.79942  23745245.709    23745241.171
  23398239.418    -8760969.06943  -6790270.99442  23398241.662    23398238.504
  20250923.162   -28136498.12844 -21408311.56142  20250925.994    20250919.344
  23080084.173   -13509012.35943 -10491329.87942  23080085.272    23080082.099
  24563452.213    -4553564.20543  -3534921.08142  24563454.306    24563450.775
  22429255.594   -15567045.65443 -12091881.97842  22429257.684    22429254.011
 04  7 22  0 18 30.0000000  0  9G27G20G23G16G 3G13G 8G19G 1
  21475052.871   -21652548.67843 -16673236.94642  21475055.032    21475050.326
  24601829.836    -5382364.70143  -4181092.71042  24601831.289    24601830.119
  21492546.907   -21914810.61143 -17024527.45642  21492549.231    21492541.610
  23763189.627    -9818781.23443  -7646301.20742  23763191.442    23763186.930
  23390486.037    -8801713.29043  -6822019.71242  23390488.224    23390485.051
  20249084.276   -28146161.51944 -21415841.47142  20249087.095    20249080.473
  23064962.243   -13588478.63143 -10553251.57942  23064963.276    23064960.066
  24547813.794    -4635743.83143  -3598957.05442  24547815.998    24547812.264
  22443431.186   -15492552.55243 -12033835.45042  22443433.313    22443429.628
 04  7 22  0 19  0.0000000  0  9G27G20G23G16G 3G13G 8G19G 1
  21467620.792   -21691604.55643 -16703670.08142  21467622.946    21467618.200
  24623701.078    -5267431.47043  -4091534.53342  24623702.580    24623701.330
  21505232.528   -21848147.43543 -16972582.15442  21505234.832    21505227.215
  23781180.838    -9724237.07443  -7572630.49142  23781182.651    23781178.142
  23382818.040    -8842008.40943  -6853418.47042  23382820.303    23382817.066
  20247321.894   -28155422.97944 -21423058.19242  20247324.709    20247318.083
  23049870.559   -13667785.24243 -10615048.85342  23049871.622    23049868.468
  24532191.211    -4717840.92443  -3662928.64942  24532193.340    24532189.674
  22457657.474   -15417792.99643 -11975581.30942  22457659.608    22457655.957
 04  7 22  0 19 30.0000000  0  9G27G20G23G16G 3G13G 8G19G 1
  21460224.800   -21730470.62843 -16733955.31242  21460226.979    21460222.239
  24645572.401    -5152496.95943  -4001975.33442  24645573.981    24645572.812
  21517982.461   -21781146.22443 -16920373.44642  21517984.763    21517977.160
  23799217.364    -9629455.10043  -7498774.47142  23799219.127    23799214.674
  23375236.411    -8881850.35243  -6884464.12542  23375238.619    23375235.355
  20245636.508   -28164279.85944 -21429959.64942  20245639.308    20245632.647
  23034809.730   -13746930.21043 -10676720.17842  23034810.763    23034807.609
  24516585.038    -4799851.03643  -3726832.49942  24516587.101    24516583.506
  22471934.692   -15342765.86843 -11917118.66542  22471936.797    22471933.208
 04  7 22  0 20  0.0000000  0  9G27G20G23G16G 3G13G 8G19G 1
  21452864.588   -21769148.78843 -16764094.11942  21452866.722    21452862.013
  24667443.334    -5037565.24643  -3912418.33842  24667444.944    24667443.777
  21530796.341   -21713808.94343 -16867902.86742  21530798.622    21530791.050
  23817298.271    -9534439.42743  -7424736.35142  23817300.022    23817295.620
  23367740.991    -8921238.70043  -6915156.30642  23367743.195    23367740.024
  20244027.971   -28172732.59044 -21436546.18642  20244030.798    20244024.136
  23019779.427   -13825914.76343 -10738266.51042  23019780.438    23019777.285
  24500995.692    -4881772.73643  -3790667.44442  24500997.738    24500994.469
  22486262.427   -15267473.37643 -11858449.24242  22486264.525    22486260.936
 04  7 22  0 20 30.0000000  0  9G27G20G23G16G 3G13G 8G19G 1
  21445540.621   -21807636.34743 -16794084.40442  21445542.774    21445538.063
  24689313.611    -4922636.57843  -3822863.70742  24689315.103    24689314.206
  21543674.558   -21646133.67843 -16815168.92042  21543676.856    21543669.243
  23835423.685    -9439189.90743  -7350516.00942  23835425.562    23835421.038
  23360332.904    -8960168.52243  -6945491.21042  23360335.007    23360331.924
  20242497.127   -28180777.31944 -21442814.80642  20242499.946    20242493.244
  23004780.225   -13904735.64043 -10799685.29742  23004781.259    23004778.108
  24485424.385    -4963600.31643  -3854429.11142  24485426.295    24485423.180
  22500641.052   -15191913.44943 -11799571.43942  22500643.122    22500639.560
 04  7 22  0 21  0.0000000  0  9G27G20G23G16G 3G13G 8G19G 1
  21438252.365   -21845936.44043 -16823928.61042  21438254.490    21438249.772
  24711182.462    -4807716.09243  -3733315.47142  24711183.916    24711183.048
  21556616.417   -21578123.69943 -16762174.16642  21556618.722    21556611.132
  23853592.587    -9343711.93143  -7276117.64942  23853594.444    23853589.859
  23353011.947    -8998640.48443  -6975469.33842  23353014.014    23353010.968
  20241043.604   -28188415.71044 -21448766.79442  20241046.426    20241039.706
  22989811.737   -13983395.44343 -10860978.57842  22989812.747    22989809.534
  24469870.981    -5045333.52443  -3918117.22742  24469872.917    24469869.685
  22515069.945   -15116089.19843 -11740487.65142  22515072.021    22515068.463
 04  7 22  0 21 30.0000000  0  9G27G20G23G16G 3G13G 8G19G 1
  21431000.710   -21884044.07343 -16853622.85242  21431002.836    21430998.108
  24733050.133    -4692801.23743  -3643771.63442  24733051.549    24733050.815
  21569622.818   -21509774.70743 -16708915.24642  21569625.122    21569617.550
  23871805.447    -9248002.94443  -7201539.28942  23871807.395    23871802.719
  23345779.453    -9036647.47043  -7005085.14142  23345781.410    23345778.448
  20239668.558   -28195641.50544 -21454397.28642  20239671.377    20239664.698
  22974874.931   -14061888.57843 -10922141.99942  22974875.922    22974872.737
  24454337.015    -5126964.31843  -3981725.54642  24454338.895    24454335.583
  22529550.114   -15039995.98843 -11681194.32042  22529552.158    22529548.544
 04  7 22  0 22  0.0000000  0  9G27G20G23G16G 3G13G 8G19G 1
  21423783.638   -21921969.86943 -16883175.41042  21423785.766    21423781.038
  24754914.279    -4577904.89843  -3554242.24142  24754915.829    24754915.035
  21582691.668   -21441097.63643 -16655400.68442  21582693.971    21582686.407
  23890059.861    -9152075.67943  -7126790.85142  23890061.751    23890057.123
  23338633.871    -9074197.58743  -7034344.95842  23338635.875    23338632.867
  20238370.242   -28202464.20044 -21459713.67742  20238373.056    20238366.380
  22959967.928   -14140225.11143 -10983183.39042  22959968.921    22959965.723
  24438821.201    -5208500.22343  -4045259.90642  24438823.041    24438819.933
  22544079.293   -14963645.01543 -11621700.12142  22544081.321    22544077.718
 04  7 22  0 22 30.0000000  0  9G27G20G23G16G 3G13G 8G19G 1
  21416602.944   -21959704.44343 -16912578.95942  21416605.075    21416600.357
  24776776.274    -4463020.24843  -3464721.94442  24776777.805    24776777.129
  21595824.694   -21372083.48543 -16601623.45842  21595826.972    21595819.411
  23908357.038    -9055923.50943  -7051867.14642  23908358.933    23908354.280
  23331577.324    -9111279.45543  -7063239.89342  23331579.428    23331576.448
  20237150.700   -28208873.03244 -21464707.57342  20237153.507    20237146.818
  22945092.616   -14218395.13543 -11044095.03742  22945093.614    22945090.358
  24423325.854    -5289928.47143  -4108710.40942  24423327.620    24423324.681
  22558659.218   -14887027.33543 -11561998.10142  22558661.232    22558657.636
 04  7 22  0 23  0.0000000  0  8G27G23G16G 3G13G 8G19G 1
  21409459.380   -21997243.89743 -16941830.46042  21409461.519    21409456.829
  21609022.507   -21302728.72343 -16547580.82542  21609024.799    21609017.217
  23926697.381    -8959544.80843  -6976766.94842  23926699.217    23926694.522
  23324611.206    -9147886.42643  -7091764.78742  23324613.270    23324610.356
  20236010.925   -28214862.59644 -21469374.76642  20236013.742    20236007.030
  22930249.897   -14296394.11443 -11104873.39742  22930250.869    22930247.587
  24407852.226    -5371241.95143  -4172071.43142  24407853.999    24407851.097
  22573290.586   -14810139.29543 -11502085.40942  22573292.568    22573288.989
 04  7 22  0 23 30.0000000  0  8G27G23G16G 3G13G 8G19G 1
  21402350.355   -22034602.05143 -16970940.69142  21402352.470    21402347.798
  21622282.353   -21233047.89843 -16493284.12342  21622284.678    21622277.105
  23945077.732    -8862955.85643  -6901502.89442  23945079.518    23945074.770
  23317733.279    -9184030.32343  -7119928.83942  23317735.317    23317732.394
  20234948.472   -28220445.71344 -21473725.25042  20234951.296    20234944.602
  22915437.193   -14374235.51143 -11165528.97142  22915438.092    22915434.794
  24392398.400    -5452451.62743  -4235351.55142  24392400.180    24392397.259
  22587970.552   -14732995.59243 -11441973.50542  22587972.535    22587969.026
 04  7 22  0 24  0.0000000  0  8G27G23G16G 3G13G 8G19G 1
  21395276.844   -22071773.38943 -16999905.35342  21395278.959    21395274.311
  21635605.222   -21163036.00743 -16438729.45342  21635607.531    21635599.944
  23963498.609    -8766153.38443  -6826072.45942  23963500.442    23963495.719
  23310944.936    -9219703.50743  -7147726.10642  23310946.969    23310943.960
  20233964.643   -28225615.67444 -21477753.79842  20233967.464    20233960.811
  22900655.454   -14451913.78643 -11226057.43242  22900656.352    22900653.141
  24376966.147    -5533548.60543  -4298543.93742  24376967.940    24376964.775
  22602700.281   -14655590.87643 -11381658.21542  22602702.237    22602698.746
 04  7 22  0 24 30.0000000  0  8G27G23G16G 3G13G 8G19G 1
  21388238.951   -22108757.84543 -17028724.39742  21388241.065    21388236.392
  21648991.038   -21092693.35843 -16383917.05342  21648993.340    21648985.707
  23981959.707    -8669139.84943  -6750477.57742  23981961.579    23981956.849
  23304246.575    -9254903.62943  -7175154.75442  23304248.616    23304245.579
  20233059.732   -28230370.99044 -21481459.25242  20233062.543    20233055.914
  22885904.948   -14529427.98543 -11286458.05242  22885905.883    22885902.632
  24361556.080    -5614529.62243  -4361645.98442  24361557.896    24361554.278
  22617479.568   -14577925.59143 -11321139.90642  22617481.523    22617478.016
 04  7 22  0 25  0.0000000  0  8G27G23G16G 3G13G 8G19G 1
  21381237.056   -22145553.35043 -17057396.20642  21381239.143    21381234.428
  21662440.089   -21022018.42343 -16328845.72242  21662442.376    21662434.714
  24000460.994    -8571915.30643  -6674718.28642  24000462.917    24000458.086
  23297638.907    -9289626.49743  -7202211.52642  23297641.058    23297637.946
  20232234.322   -28234708.69344 -21484839.28942  20232237.107    20232230.477
  22871186.325   -14606774.95543 -11346728.37542  22871187.231    22871183.897
  24346168.869    -5695389.32043  -4424653.45542  24346170.792    24346167.287
  22632308.689   -14499997.95343 -11260417.14942  22632310.674    22632307.222
 04  7 22  0 25 30.0000000  0  8G27G23G16G 3G13G 8G19G 1
  21374270.735   -22182161.50543 -17085922.03242  21374272.819    21374268.112
  21675951.949   -20951013.23843 -16273517.05342  21675954.273    21675946.558
  24019001.628    -8474483.86243  -6598797.76742  24019003.545    24018998.703
  23291122.301    -9323871.45743  -7228895.89142  23291124.485    23291121.285
  20231488.333   -28238628.94844 -21487894.03942  20231491.104    20231484.471
  22856499.200   -14683956.14143 -11406869.50342  22856500.164    22856496.754
  24330805.086    -5776126.35743  -4487565.36142  24330806.975    24330803.454
  22647187.443   -14421810.07043 -11199491.59942  22647189.443    22647185.989
 04  7 22  0 26  0.0000000  0  8G27G23G16G 3G13G 8G19G 1
  21367339.658   -22218584.56043 -17114303.62142  21367341.738    21367337.012
  21689526.028   -20879681.00143 -16217933.53242  21689528.355    21689520.675
  24037580.816    -8376850.04343  -6522719.53642  24037582.647    24037577.980
  23284696.539    -9357638.67543  -7255207.98142  23284698.728    23284695.518
  20230821.576   -28242132.78144 -21490624.30342  20230824.355    20230817.723
  22841843.232   -14760973.30043 -11466882.82142  22841844.210    22841840.807
  24315464.724    -5856739.84643  -4550381.00142  24315466.523    24315463.104
  22662115.084   -14343364.99143 -11138365.64642  22662117.090    22662113.718
 04  7 22  0 26 30.0000000  0  8G27G23G16G 3G13G 8G19G 1
  21360444.245   -22254820.14843 -17142539.14442  21360446.311    21360441.589
  21703162.806   -20808019.39543 -16162093.38642  21703165.119    21703157.467
  24056198.562    -8279013.90543  -6446483.71542  24056200.318    24056195.722
  23278362.634    -9390923.68443  -7281144.36842  23278364.758    23278361.557
  20230234.807   -28245216.45544 -21493027.18442  20230237.559    20230230.934
  22827219.052   -14837823.53443 -11526766.09142  22827219.983    22827216.614
  24300148.973    -5937223.95343  -4613095.82842  24300150.778    24300147.448
  22677092.102   -14264660.65843 -11077037.69642  22677094.109    22677090.718
 04  7 22  0 27  0.0000000  0  8G27G23G16G 3G13G 8G19G 1
  21353584.555   -22290868.14643 -17170628.51242  21353586.605    21353581.852
  21716862.238   -20736028.78343 -16105996.89242  21716864.514    21716856.888
  24074854.350    -8180977.82543  -6370092.11942  24074855.990    24074851.412
  23272120.941    -9423724.35743  -7306703.37442  23272123.060    23272119.826
  20229728.208   -28247878.85144 -21495101.81642  20229730.962    20229724.308
  22812626.850   -14914506.13343 -11586518.76542  22812627.725    22812624.328
  24284858.496    -6017575.32743  -4675707.30242  24284860.267    24284857.014
  22692118.397   -14185697.29043 -11015507.92642  22692120.383    22692116.944
 04  7 22  0 27 30.0000000  0  8G27G23G16G 3G13G 8G19G 1
  21346760.249   -22326730.18843 -17198572.97142  21346762.274    21346757.511
  21730623.729   -20663711.73343 -16049646.01742  21730626.015    21730618.453
  24093547.389    -8082745.76143  -6293547.78342  24093549.067    24093544.542
  23265971.458    -9456040.12343  -7331884.50342  23265973.623    23265970.346
  20229301.638   -28250120.49344 -21496848.57542  20229304.389    20229297.756
  22798066.245   -14991022.59243 -11646141.97042  22798067.138    22798063.689
  24269593.760    -6097792.64043  -4738214.27142  24269595.502    24269592.141
  22707193.538   -14106477.22243 -10953778.11642  22707195.497    22707192.077
 04  7 22  0 28  0.0000000  0  8G27G23G16G 3G13G 8G19G 1
  21339971.384   -22362405.87943 -17226372.20642  21339973.423    21339968.611
  21744447.378   -20591068.13543 -15993040.67142  21744449.654    21744442.144
  24112277.410    -7984319.48643  -6216852.08642  24112279.125    24112274.600
  23259914.801    -9487868.19343  -7356685.60342  23259916.916    23259913.611
  20228955.448   -28251939.77644 -21498266.20142  20228958.215    20228951.571
  22783537.514   -15067371.48043 -11705634.56342  22783538.395    22783534.906
  24254354.925    -6177872.35143  -4800613.98142  24254356.689    24254353.419
  22722317.483   -14027000.45743 -10891848.25742  22722319.458    22722316.096
 04  7 22  0 28 30.0000000  0  9G10G27G23G16G 3G13G 8G19G 1
  24621205.729    -1130043.25053   -870608.03852  24621207.241    24621205.478
  21333218.181   -22397894.30543 -17254025.52842  21333220.221    21333215.372
  21758333.187   -20518097.89043 -15936180.80542  21758335.468    21758327.975
  24131044.088    -7885700.57543  -6140006.28942  24131045.814    24131041.300
  23253951.289    -9519205.91243  -7381104.61642  23253953.476    23253950.326
  20228690.056   -28253334.61644 -21499353.10842  20228692.811    20228686.165
  22769040.828   -15143551.88143 -11764995.87842  22769041.718    22769038.259
  24239143.305    -6257810.22743  -4862903.20842  24239145.015    24239141.563
  22737490.439   -13947266.73443 -10829718.18542  22737492.325    22737489.024
 04  7 22  0 29  0.0000000  0  9G10G27G23G16G 3G13G 8G19G 1
  24604719.378    -1216679.11443   -938116.42542  24604720.933    24604719.287
  21326500.657   -22433195.04943 -17281532.57942  21326502.729    21326497.859
  21772281.164   -20444801.05843 -15879066.42242  21772283.429    21772275.938
  24149846.992    -7786890.89243  -6063011.78642  24149848.826    24149844.320
  23248081.653    -9550050.73743  -7405139.51642  23248083.782    23248080.754
  20228505.763   -28254303.06244 -21500107.74142  20228508.534    20228501.895
  22754576.403   -15219562.61443 -11824224.95442  22754577.330    22754573.865
  24223959.315    -6337602.65843  -4925079.02842  24223961.021    24223957.479
  22752712.179   -13867276.01243 -10767387.81442  22752714.112    22752710.856
 04  7 22  0 29 30.0000000  0  9G10G27G23G16G 3G13G 8G19G 1
  24588296.265    -1302982.64143  -1005365.87542  24588297.992    24588296.201
  21319817.711   -22468314.20943 -17308898.14542  21319819.760    21319814.934
  21786289.954   -20371184.59343 -15821702.99042  21786292.192    21786284.713
  24168684.573    -7687899.21843  -5985875.50942  24168686.397    24168681.973
  23242304.980    -9580407.25043  -7428793.92542  23242307.089    23242303.992
  20228401.534   -28254850.87244 -21500534.61242  20228404.281    20228397.635
  22740143.173   -15295409.37643 -11883326.26142  22740144.092    22740140.675
  24208802.311    -6417252.86443  -4987143.99642  24208804.072    24208800.555
  22767981.579   -13787035.25443 -10704862.62042  22767983.515    22767980.238
 04  7 22  0 30  0.0000000  0  9G10G27G23G16G 3G13G 8G19G 1
  24571938.653    -1388942.24043  -1072347.36442  24571940.415    24571938.566
  21313170.877   -22503243.37543 -17336115.67042  21313172.930    21313168.137
  21800361.126   -20297240.43043 -15764084.21442  21800363.359    21800355.884
  24187557.947    -7588719.10143  -5908592.41142  24187559.813    24187555.330
  23236623.506    -9610264.48743  -7452059.29742  23236625.566    23236622.349
  20228379.213   -28254968.18044 -21500626.03742  20228381.972    20228375.321
  22725742.799   -15371083.58043 -11942293.13442  22725743.687    22725740.355
  24193674.673    -6496748.96343  -5049088.96242  24193676.449    24193672.846
  22783300.121   -13706536.21643 -10642136.19142  22783302.061    22783298.727
 04  7 22  0 30 30.0000000  0  9G10G27G23G16G 3G13G 8G19G 1
  24555646.061    -1474560.03743  -1139062.56742  24555647.871    24555645.969
  21306559.326   -22537987.23944 -17363188.81842  21306561.356    21306556.610
  21814493.629   -20222974.00543 -15706214.34842  21814495.829    21814488.413
  24206465.851    -7489357.76843  -5831168.14542  24206467.728    24206463.270
  23231036.346    -9639625.41543  -7474937.97342  23231038.413    23231035.172
  20228438.186   -28254658.39444 -21500384.67442  20228440.923    20228434.287
  22711374.605   -15446589.30743 -12001128.75042  22711375.423    22711372.054
  24178576.109    -6576092.61643  -5110915.15742  24178577.919    24178574.132
  22798666.727   -13625784.37343 -10579212.79542  22798668.698    22798665.334
 04  7 22  0 31  0.0000000  0  9G10G27G23G16G 3G13G 8G19G 1
  24539418.886    -1559834.52243  -1205510.23142  24539420.567    24539418.769
  21299982.746   -22572547.36143 -17390118.77642  21299984.776    21299980.034
  21828687.022   -20148387.47943 -15648095.04542  21828689.224    21828681.837
  24225407.519    -7389818.95043  -5753605.56742  24225409.345    24225404.967
  23225543.693    -9668489.40843  -7497429.39742  23225545.758    23225542.522
  20228578.364   -28253921.79244 -21499810.71242  20228581.124    20228574.465
  22697038.257   -15521927.07843 -12059833.46942  22697039.089    22697035.699
  24163506.852    -6655281.91943  -5172621.04242  24163508.726    24163504.821
  22814081.049   -13544781.70243 -10516093.93042  22814083.040    22814079.658
 04  7 22  0 31 30.0000000  0  9G10G27G23G16G 3G13G 8G19G 1
  24523257.698    -1644762.24943  -1271687.64742  24523259.290    24523257.513
  21293441.216   -22606923.20444 -17416905.13442  21293443.284    21293438.514
  21842941.284   -20073480.84843 -15589726.29342  21842943.510    21842936.106
  24244382.596    -7290104.51543  -5675906.11542  24244384.419    24244380.183
  23220146.124    -9696854.12743  -7519531.76542  23220148.174    23220144.887
  20228800.011   -28252756.97244 -21498903.06242  20228802.778    20228796.145
  22682733.963   -15597096.27343 -12118406.82442  22682734.814    22682731.442
  24148467.534    -6734313.36543  -5234203.88342  24148469.447    24148465.547
  22829543.170   -13463528.16943 -10452779.56942  22829545.182    22829541.810
 04  7 22  0 32  0.0000000  0  9G10G27G23G16G 3G13G 8G19G 1
  24507163.907    -1729336.07143  -1337589.30042  24507165.455    24507163.506
  21286935.674   -22641109.91843 -17443544.11242  21286937.781    21286932.983
  21857257.219   -19998250.12643 -15531104.99942  21857259.485    21857252.094
  24263391.476    -7190212.13043  -5598067.98242  24263393.320    24263389.179
  23214844.629    -9724713.26443  -7541240.16742  23214846.741    23214843.428
  20229104.235   -28251158.37944 -21497657.41042  20229107.007    20229100.386
  22668462.740   -15672091.52143 -12176844.62542  22668463.655    22668460.263
  24133459.729    -6813179.01343  -5295657.54242  24133461.732    24133457.916
  22845053.758   -13382019.70543 -10389266.55142  22845055.794    22845052.443
 04  7 22  0 32 30.0000000  0  9G10G27G23G16G 3G13G 8G19G 1
  24491136.486    -1813560.90643  -1403218.99042  24491138.114    24491136.020
  21280464.623   -22675115.36344 -17470041.83442  21280466.729    21280461.972
  21871633.288   -19922703.59443 -15472237.61342  21871635.576    21871628.193
  24282432.426    -7090151.78443  -5520098.99642  24282434.184    24282430.115
  23209638.325    -9752072.33843  -7562558.90042  23209640.388    23209637.198
  20229489.758   -28249132.32644 -21496078.67142  20229492.529    20229485.937
  22654223.249   -15746920.21343 -12235152.64542  22654224.155    22654220.783
  24118482.802    -6891883.34343  -5356985.49942  24118484.746    24118480.992
  22860611.239   -13300264.60443 -10325561.35142  22860613.339    22860610.056
 04  7 22  0 33  0.0000000  0  9G10G27G23G16G 3G13G 8G19G 1
  24475177.104    -1897428.70743  -1468570.49342  24475178.685    24475176.479
  21274029.102   -22708934.16144 -17496394.12642  21274031.221    21274026.472
  21886070.272   -19846836.73943 -15413120.63342  21886072.591    21886065.223
  24301505.871    -6989920.47643  -5441996.77042  24301507.671    24301503.694
  23204528.566    -9778924.46843  -7583482.62642  23204530.666    23204527.481
  20229957.870   -28246672.38744 -21494161.84742  20229960.641    20229954.050
  22640016.583   -15821576.56343 -12293326.37242  22640017.496    22640014.083
  24103538.020    -6970417.92443  -5418181.21142  24103539.985    24103536.248
  22876216.645   -13218258.25043 -10261660.37642  22876218.633    22876215.457
 04  7 22  0 33 30.0000000  0  9G10G27G23G16G 3G13G 8G19G 1
  24459285.950    -1980936.78843  -1533641.68442  24459287.644    24459285.334
  21267629.176   -22742565.97044 -17522600.70742  21267631.296    21267626.542
  21900568.232   -19770649.78643 -15353754.21142  21900570.526    21900563.146
  24320611.474    -6889520.19443  -5363762.87742  24320613.276    24320609.296
  23199515.713    -9805267.25743  -7604009.43342  23199517.851    23199514.606
  20230508.786   -28243777.46644 -21491906.07642  20230511.535    20230504.946
  22625842.837   -15896059.72343 -12351365.14542  22625843.788    22625840.335
  24088626.326    -7048779.21643  -5479241.89642  24088628.311    24088624.417
  22891869.730   -13136000.86343 -10197563.77942  22891871.718    22891868.647
 04  7 22  0 34  0.0000000  0  9G10G27G23G16G 3G13G 8G19G 1
  24443463.168    -2064086.07443  -1598433.29242  24443464.848    24443462.549
  21261264.127   -22776014.35144 -17548664.35942  21261266.257    21261261.523
  21915126.139   -19694147.33643 -15294141.96142  21915128.434    21915121.095
  24339747.931    -6788957.04643  -5285402.05242  24339749.860    24339745.937
  23194599.397    -9831102.62143  -7624140.86142  23194601.516    23194598.248
  20231141.962   -28240450.11044 -21489313.34442  20231144.731    20231138.141
  22611701.508   -15970372.94343 -12409271.48042  22611702.411    22611698.945
  24073747.549    -7126967.90543  -5540168.07442  24073749.542    24073745.525
  22907569.691   -13053496.94743 -10133275.08442  22907571.688    22907568.650
 04  7 22  0 34 30.0000000  0  9G10G27G23G16G 3G13G 8G19G 1
  24427709.296    -2146872.67643  -1662942.26842  24427711.029    24427708.816
  21254934.165   -22809278.35243 -17574584.33642  21254936.293    21254931.551
  21929744.241   -19617328.72343 -15234283.34042  21929746.548    21929739.227
  24358915.184    -6688232.15243  -5206915.17842  24358917.155    24358913.289
  23189780.140    -9856427.67843  -7643874.63342  23189782.264    23189779.022
  20231857.838   -28236688.30444 -21486382.07942  20231860.585    20231853.980
  22597592.792   -16044514.77343 -12467044.27442  22597593.704    22597590.182
  24058902.390    -7204979.54843  -5600956.28342  24058904.310    24058900.286
  22923316.862   -12970745.90243 -10068793.81042  22923318.773    22923315.703
 04  7 22  0 35  0.0000000  0  9G10G27G23G16G 3G13G 8G19G 1
  24412025.073    -2229293.11743  -1727165.93542  24412026.976    24412024.834
  21248639.430   -22842357.43244 -17600360.22142  21248641.544    21248636.797
  21944422.445   -19540194.30543 -15174178.63342  21944424.759    21944417.474
  24378112.932    -6587347.40643  -5128303.73642  24378114.944    24378111.216
  23185058.495    -9881240.04343  -7663208.91342  23185060.660    23185057.305
  20232656.699   -28232490.11644 -21483110.76542  20232659.463    20232652.896
  22583516.869   -16118483.96943 -12524682.55242  22583517.835    22583514.263
  24044091.566    -7282810.37043  -5661603.57442  24044093.548    24044089.642
  22939110.964   -12887747.81643 -10004120.03942  22939112.850    22939109.798
 04  7 22  0 35 30.0000000  0  9G10G27G23G16G 3G13G 8G19G 1
  24396411.171    -2311344.66543  -1791102.15342  24396413.086    24396410.972
  21242379.900   -22875251.44244 -17625991.89742  21242382.004    21242377.233
  21959160.671   -19462744.76743 -15113828.38742  21959162.948    21959155.686
  24397340.803    -6486304.84643  -5049569.32742  24397342.756    24397339.075
  23180434.704    -9905537.92043  -7682142.30142  23180436.921    23180433.598
  20233538.758   -28227854.65244 -21479498.71042  20233541.573    20233534.999
  22569473.998   -16192279.87943 -12582185.79242  22569474.928    22569471.311
  24029315.901    -7360457.48243  -5722107.75542  24029317.794    24029313.883
  22954951.919   -12804503.25443  -9939254.21942  22954953.852    22954950.799
 04  7 22  0 36  0.0000000  0  9G10G27G23G16G 3G13G 8G19G 1
  24380867.323    -2393028.20843  -1854751.62642  24380869.212    24380867.101
  21236154.929   -22907963.86144 -17651482.07742  21236157.038    21236152.235
  21973958.042   -19384984.20443 -15053235.77942  21973960.320    21973953.068
  24416597.594    -6385110.11943  -4970716.35342  24416599.593    24416595.757
  23175908.492    -9929323.10043  -7700676.18142  23175910.756    23175907.398
  20234503.556   -28222784.58944 -21475548.00942  20234506.361    20234499.799
  22555463.453   -16265905.67143 -12639556.47942  22555464.384    22555460.745
  24014575.064    -7437920.85043  -5782468.73342  24014576.885    24014572.950
  22970838.991   -12721016.26043  -9874199.48642  22970840.919    22970837.958
 04  7 22  0 36 30.0000000  0  9G10G27G23G16G 3G13G 8G19G 1
  24365395.026    -2474335.89443  -1918108.20942  24365396.844    24365394.589
  21229965.509   -22940489.30144 -17676826.55542  21229967.630    21229962.824
  21988815.473   -19306908.13643 -14992397.32142  21988817.750    21988810.503
  24435883.869    -6283760.73743  -4891742.86242  24435885.866    24435881.959
  23171481.090    -9952588.70043  -7718805.19842  23171483.405    23171480.084
  20235552.272   -28217273.59144 -21471253.72742  20235555.057    20235548.480
  22541486.294   -16339355.72143 -12696790.22042  22541487.243    22541483.615
  23999870.715    -7515192.19243  -5842680.09042  23999872.573    23999868.634
  22986773.016   -12637282.35043  -9808952.34842  22986775.028    22986772.107
 04  7 22  0 37  0.0000000  0  9G10G27G23G16G 3G13G 8G19G 1
  24349994.013    -2555267.74043  -1981171.91942  24349996.053    24349993.625
  21223811.191   -22972830.43544 -17702027.41942  21223813.316    21223808.467
  22003732.230   -19228520.11843 -14931315.78842  22003734.517    22003727.305
  24455198.676    -6182261.19743  -4812652.35342  24455200.667    24455196.807
  23167152.525    -9975335.47443  -7736529.92442  23167154.800    23167151.528
  20236684.560   -28211323.45044 -21466617.25542  20236687.329    20236680.743
  22527542.106   -16412632.41043 -12753888.88242  22527543.048    22527539.461
  23985202.972    -7592271.05743  -5902741.47942  23985204.891    23985200.895
  23002753.572   -12553304.62343  -9743515.23442  23002755.581    23002752.577
 04  7 22  0 37 30.0000000  0  9G10G27G23G16G 3G13G 8G19G 1
  24334665.026    -2635822.29143  -2043941.65042  24334666.912    24334664.604
  21217691.748   -23004988.33944 -17727085.50942  21217693.862    21217688.989
  22018708.058   -19149821.74143 -14869992.41642  22018710.357    22018703.150
  24474541.392    -6080614.92843  -4733447.52742  24474543.296    24474539.545
  23162922.753    -9997562.91643  -7753849.97242  23162925.012    23162921.756
  20237900.415   -28204934.07844 -21461638.52542  20237903.212    20237896.591
  22513631.019   -16485735.73243 -12810852.45942  22513631.958    22513628.353
  23970572.301    -7669155.18243  -5962651.08442  23970574.230    23970570.419
  23018780.073   -12469084.98043  -9677889.60642  23018782.091    23018779.105
 04  7 22  0 38  0.0000000  0  9G10G27G23G16G 3G13G 8G19G 1
  24319408.607    -2715994.98743  -2106413.81442  24319410.522    24319408.253
  21211607.479   -23036961.34244 -17751999.52142  21211609.603    21211604.701
  22033743.191   -19070812.11243 -14808426.51042  22033745.463    22033738.219
  24493911.836    -5978822.61643  -4654128.90042  24493913.783    24493910.063
  23158792.409   -10019267.85943  -7770762.88042  23158794.710    23158791.386
  20239200.374   -28198102.69844 -21456315.36542  20239203.163    20239196.542
  22499753.188   -16558664.05943 -12867679.67242  22499754.121    22499750.514
  23955979.624    -7745839.63843  -6022405.13942  23955981.593    23955977.735
  23034852.760   -12384622.60243  -9612074.83542  23034854.806    23034851.765
 04  7 22  0 38 30.0000000  0  9G10G27G23G16G 3G13G 8G19G 1
  24304224.698    -2795786.35743  -2168588.83742  24304226.744    24304224.501
  21205557.838   -23068752.38044 -17776771.74442  21205559.969    21205555.048
  22048836.711   -18991495.20643 -14746621.16642  22048838.998    22048831.805
  24513309.200    -5876889.66543  -4574700.67842  24513311.024    24513307.414
  23154761.281   -10040451.57143  -7787269.63942  23154763.528    23154760.201
  20240584.023   -28190831.46544 -21450649.45842  20240586.833    20240580.224
  22485908.124   -16631419.76843 -12924372.36142  22485909.099    22485905.549
  23941424.871    -7822324.50743  -6082003.65942  23941426.904    23941423.038
  23050971.007   -12299921.06843  -9546073.71242  23050973.042    23050970.026
 04  7 22  0 39  0.0000000  0  9G10G27G23G16G 3G13G 8G19G 1
  24289114.460    -2875190.82543  -2230462.37842  24289116.396    24289114.216
  21199543.341   -23100358.63244 -17801399.97642  21199545.484    21199540.554
  22063989.139   -18911868.85243 -14684574.69142  22063991.427    22063984.225
  24532733.406    -5774815.44343  -4495162.40742  24532735.058    24532731.628
  23150830.196   -10061109.73043  -7803366.87342  23150832.381    23150829.011
  20242052.038   -28183117.02444 -21444638.20242  20242054.852    20242048.243
  22472096.634   -16703999.59143 -12980928.00542  22472097.581    22472094.026
  23926909.443    -7898603.65743  -6141441.86942  23926911.536    23926907.526
  23067135.123   -12214978.28143  -9479884.58542  23067137.148    23067134.198
 04  7 22  0 39 30.0000000  0  9G10G27G23G16G 3G13G 8G19G 1
  24274078.187    -2954206.11643  -2292032.66242  24274080.186    24274078.008
  21193563.895   -23131780.58844 -17825884.60042  21193566.035    21193561.145
  22079200.117   -18831934.50243 -14622288.22742  22079202.434    22079195.271
  24552183.866    -5672602.71743  -4415516.19042  24552185.530    24552182.117
  23146999.346   -10081240.95543  -7819053.50642  23147001.527    23146998.041
  20243604.523   -28174958.67444 -21438281.04242  20243607.328    20243600.722
  22458318.536   -16776403.75243 -13037346.77342  22458319.481    22458315.876
  23912433.518    -7974674.62343  -6200717.87942  23912435.598    23912431.500
  23083344.941   -12129795.44343  -9413508.42542  23083346.949    23083344.047
 04  7 22  0 40  0.0000000  0  9G10G27G23G16G 3G13G 8G19G 1
  24259116.254    -3032831.99143  -2353299.50642  24259118.152    24259115.935
  21187619.152   -23163020.36544 -17850227.26442  21187621.270    21187616.425
  22094469.159   -18751694.99643 -14559763.97842  22094471.475    22094464.371
  24571659.831    -5570255.84243  -4335765.42442  24571661.524    24571658.094
  23143268.641   -10100846.00443  -7834330.13642  23143270.795    23143267.332
  20245241.227   -28166357.58444 -21431578.88942  20245244.052    20245237.459
  22444573.661   -16848633.50443 -13093629.64742  22444574.605    22444570.930
  23897997.519    -8050536.40043  -6259830.85642  23897999.501    23897995.494
  23099599.884   -12044375.53143  -9346947.51842  23099601.842    23099598.966
 04  7 22  0 40 30.0000000  0  9G10G27G23G16G 3G13G 8G19G 1
  24244229.077    -3111064.25843  -2414259.63442  24244231.069    24244228.851
  21181709.402   -23194076.27444 -17874426.65442  21181711.507    21181706.671
  22109796.468   -18671149.42543 -14497001.24142  22109798.746    22109791.697
  24591161.244    -5467775.35443  -4255910.55942  24591162.990    24591159.454
  23139638.647   -10119921.81943  -7849194.37642  23139640.766    23139637.323
  20246962.692   -28157311.12344 -21424529.68942  20246965.525    20246958.945
  22430862.303   -16920686.89943 -13149775.08842  22430863.268    22430859.558
  23883602.112    -8126184.25543  -6318777.16642  23883604.043    23883600.100
  23115900.112   -11958717.51643  -9280201.08042  23115902.093    23115899.257
 04  7 22  0 41  0.0000000  0  9G10G27G23G16G 3G13G 8G19G 1
  24229417.496    -3188900.07043  -2474910.84442  24229419.345    24229416.986
  21175834.700   -23224947.97444 -17898482.50442  21175836.809    21175831.980
  22125181.905   -18590298.66443 -14434000.69242  22125184.166    22125177.110
  24610687.613    -5365163.50743  -4175953.35742  24610689.374    24610685.877
  23136109.605   -10138466.89543  -7863645.04942  23136111.795    23136108.346
  20248769.042   -28147818.74344 -21417133.02942  20248771.868    20248765.283
  22417184.522   -16992563.75543 -13205782.95942  22417185.498    22417181.774
  23869248.197    -8201614.70443  -6377554.05642  23869250.089    23869246.059
  23132245.475   -11872822.02443  -9213269.60742  23132247.557    23132244.700
 04  7 22  0 41 30.0000000  0  9G10G27G23G16G 3G13G 8G19G 1
  24214681.603    -3266336.92843  -2535251.17342  24214683.543    24214681.084
  21169995.069   -23255635.40944 -17922394.76942  21169997.199    21169992.323
  22140625.278   -18509143.42243 -14370762.88642  22140627.525    22140620.483
  24630238.723    -5262422.24543  -4095895.31442  24630240.383    24630236.897
  23132681.861   -10156479.65043  -7877680.93342  23132684.020    23132680.610
  20250660.463   -28137879.27144 -21409387.98442  20250663.300    20250656.700
  22403540.476   -17064263.13043 -13261652.52842  22403541.446    22403537.757
  23854936.170    -8276824.45843  -6436158.98742  23854938.158    23854934.018
  23148636.009   -11786689.58743  -9146153.48642  23148638.066    23148635.223
 04  7 22  0 42  0.0000000  0  9G10G27G23G16G 3G13G 8G19G 1
  24200021.605    -3343375.13643  -2595280.87042  24200023.593    24200021.062
  21164189.931   -23286141.53544 -17946165.75842  21164192.050    21164187.154
  22156125.895   -18427687.39343 -14307290.70542  22156128.136    22156121.115
  24649813.381    -5159556.89243  -4015740.56342  24649815.042    24649811.584
  23129355.284   -10173961.16743  -7891302.88642  23129357.399    23129353.937
  20252636.569   -28127494.78444 -21401296.17642  20252639.379    20252632.786
  22389929.790   -17135787.74443 -13317385.92242  22389930.706    22389927.002
  23840666.198    -8351813.27843  -6494591.75642  23840668.286    23840663.958
  23165070.857   -11700324.06143  -9078855.73942  23165072.946    23165070.104
 04  7 22  0 42 30.0000000  0  9G10G27G23G16G 3G13G 8G19G 1
  24185438.848    -3420008.15043  -2654994.83742  24185440.825    24185438.251
  21158420.018   -23316462.39244 -17969792.38242  21158422.125    21158417.265
  22171684.360   -18345927.61543 -14243581.82542  22171686.613    22171679.541
  24669412.081    -5056565.67943  -3935487.74842  24669413.742    24669410.227
  23126130.689   -10190906.32543  -7904506.86942  23126132.855    23126129.316
  20254698.291   -28116660.47544 -21392853.85742  20254701.082    20254694.488
  22376353.175   -17207132.86243 -13372979.43642  22376354.143    22376350.422
  23826439.516    -8426574.27743  -6552846.97942  23826441.638    23826437.337
  23181550.668   -11613722.30343  -9011373.93042  23181552.699    23181549.883
 04  7 22  0 43  0.0000000  0  9G10G27G23G16G 3G13G 8G19G 1
  24170932.351    -3496240.12343  -2714396.29442  24170934.348    24170931.745
  21152684.118   -23346604.47744 -17993279.69942  21152686.235    21152681.375
  22187299.187   -18263871.25743 -14179641.83942  22187301.447    22187294.400
  24689033.060    -4953457.30143  -3855143.66742  24689034.626    24689031.090
  23123007.205   -10207320.45043  -7917297.07342  23123009.361    23123005.798
  20256844.457   -28105382.17044 -21384065.55642  20256847.254    20256840.671
  22362809.592   -17278304.46743 -13428437.74342  22362810.603    22362806.839
  23812255.660    -8501110.96243  -6610927.43442  23812257.611    23812253.378
  23198074.041   -11526891.56943  -8943713.70242  23198076.024    23198073.243
 04  7 22  0 43 30.0000000  0  9G10G27G23G16G 3G13G 8G19G 1
  24156503.874    -3572062.06043  -2773478.25942  24156505.799    24156503.287
  21146983.449   -23376561.57144 -18016622.87042  21146985.553    21146980.683
  22202971.435   -18181513.04843 -14115466.65442  22202973.669    22202966.665
  24708676.978    -4850227.90943  -3774705.27942  24708678.502    24708675.133
  23119986.229   -10223195.55043  -7929667.27042  23119988.390    23119984.912
  20259076.457   -28093652.97144 -21374925.91942  20259079.243    20259072.642
  22349300.173   -17349296.59043 -13483756.19542  22349301.173    22349297.416
  23798116.254    -8575413.81143  -6668825.66642  23798118.202    23798113.964
  23214642.127   -11439826.56743  -8875870.91642  23214644.095    23214641.237
 04  7 22  0 44  0.0000000  0  9G10G27G23G16G 3G13G 8G19G 1
  24142154.002    -3647470.92143  -2832238.34242  24142155.949    24142153.349
  21141318.180   -23406332.83744 -18039821.24342  21141320.245    21141315.389
  22218701.033   -18098853.40243 -14051056.58642  22218703.309    22218696.319
  24728343.590    -4746879.02543  -3694173.77242  24728345.254    24728341.735
  23117068.122   -10238529.80443  -7941616.00842  23117070.347    23117066.892
  20261394.599   -28081470.89144 -21365433.39142  20261397.392    20261390.801
  22335825.261   -17420107.46043 -13538933.41242  22335826.252    22335822.473
  23784022.048    -8649479.03143  -6726538.74942  23784023.981    23784019.833
  23231254.671   -11352527.24743  -8807845.54442  23231256.753    23231253.817
 04  7 22  0 44 30.0000000  0  9G10G27G23G16G 3G13G 8G19G 1
  24127882.134    -3722469.54743  -2890678.76942  24127884.057    24127881.510
  21135687.189   -23435923.84544 -18062879.14742  21135689.285    21135684.410
  22234486.849   -18015898.63443 -13986416.54242  22234489.129    22234482.157
  24748031.551    -4643418.42443  -3613555.22042  24748033.225    24748029.670
  23114252.198   -10253327.67443  -7953146.79242  23114254.426    23114250.947
  20263797.948   -28068840.95444 -21355591.87742  20263800.748    20263794.180
  22322383.808   -17490742.68143 -13593973.75342  22322384.778    22322380.959
  23769972.545    -8723309.16843  -6784068.64642  23769974.516    23769970.320
  23247910.536   -11265000.09443  -8739642.62842  23247912.667    23247909.806
 04  7 22  0 45  0.0000000  0  9G10G27G23G16G 3G13G 8G19G 1
  24113689.367    -3797052.55543  -2948795.33542  24113691.247    24113688.805
  21130091.111   -23465331.56144 -18085794.23042  21130093.207    21130088.302
  22250329.158   -17932646.75743 -13921544.99642  22250331.448    22250324.539
  24767740.927    -4539845.20143  -3532848.89342  24767742.721    24767739.053
  23111539.165   -10267584.70743  -7964256.16042  23111541.392    23111537.864
  20266287.249   -28055759.62544 -21345398.63642  20266290.037    20266283.476
  22308976.432   -17561198.45443 -13648874.27442  22308977.403    22308973.564
  23755969.106    -8796898.01243  -6841410.51642  23755971.078    23755966.785
  23264610.182   -11177242.80243  -8671260.40342  23264612.371    23264609.567
 04  7 22  0 45 30.0000000  0  8G10G27G23G 3G13G 8G19G 1
  24099576.698    -3871214.97643  -3006584.18642  24099578.554    24099576.125
  21124530.322   -23494553.48344 -18108564.53642  21124532.461    21124527.568
  22266228.367   -17849096.21143 -13856440.71642  22266230.598    22266223.694
  23108929.785   -10281297.16443  -7974941.15842  23108931.981    23108928.475
  20268863.082   -28042223.48244 -21334850.99342  20268865.871    20268859.335
  22295603.765   -17631472.03643 -13703632.83642  22295604.715    22295600.843
  23742012.489    -8870240.12543  -6898560.12642  23742014.522    23742010.141
  23281354.093   -11089253.69843  -8602697.53542  23281356.223    23281353.415
 04  7 22  0 46  0.0000000  0  8G10G27G23G 3G13G 8G19G 1
  24085543.205    -3944960.88643  -3064048.46042  24085545.023    24085542.578
  21119003.676   -23523596.09644 -18131195.11642  21119005.815    21119000.924
  22282182.962   -17765254.54643 -13791109.59042  22282185.227    22282178.261
  23106423.080   -10294469.96443  -7985205.64442  23106425.252    23106421.791
  20271524.393   -28028238.36744 -21323953.50042  20271527.165    20271520.621
  22282264.531   -17701569.88543 -13758254.47142  22282265.436    22282261.580
  23728102.073    -8943338.96543  -6955520.16842  23728104.135    23728099.849
  23298140.617   -11001040.33243  -8533959.91142  23298142.693    23298139.917
 04  7 22  0 46 30.0000000  0  8G10G27G23G 3G13G 8G19G 1
  24071590.540    -4018283.40543  -3121182.84342  24071592.178    24071589.713
  21113512.026   -23552454.83644 -18153682.42142  21113514.156    21113509.257
  22298193.650   -17681118.18043 -13725548.83742  22298195.901    22298188.904
  23104020.018   -10307097.80243  -7995045.50042  23104022.248    23104018.817
  20274272.106   -28013799.05244 -21312702.08742  20274274.891    20274268.340
  22268959.804   -17771486.49343 -13812734.86242  22268960.711    22268956.825
  23714239.512    -9016186.82543  -7012284.61142  23714241.557    23714237.211
  23314970.531   -10912599.14843  -8465044.76642  23314972.631    23314969.796
 04  7 22  0 47  0.0000000  0  8G10G27G23G 3G13G 8G19G 1
  24057718.188    -4091182.62343  -3177987.37242  24057719.976    24057717.462
  21108054.879   -23581132.29644 -18176028.47442  21108056.982    21108052.081
  22314259.706   -17596690.52143 -13659761.09142  22314261.991    22314254.991
  23101720.451   -10319181.99443  -8004461.74542  23101722.632    23101719.237
  20277105.883   -27998907.41644 -21301098.21642  20277108.685    20277102.155
  22255689.024   -17841224.49543 -13867076.08542  22255689.953    22255686.031
  23700424.731    -9088783.44643  -7068853.30042  23700426.743    23700422.381
  23331843.041   -10823933.42543  -8395954.67942  23331845.087    23331842.274
 04  7 22  0 47 30.0000000  0  8G10G27G23G 3G13G 8G19G 1
  24043927.170    -4163655.42343  -3234459.64142  24043928.907    24043926.291
  21102632.433   -23609627.50044 -18198232.51042  21102634.521    21102629.606
  22330381.187   -17511971.71243 -13593746.48142  22330383.479    22330376.423
  23099524.818   -10330720.36143  -8013452.65942  23099526.944    23099523.526
  20280025.968   -27983562.28444 -21289140.97142  20280028.785    20280022.237
  22242452.611   -17910781.87643 -13921276.56742  22242453.554    22242449.649
  23686658.586    -9161124.72243  -7125223.01842  23686660.610    23686656.274
  23348758.386   -10735043.17543  -8326689.61742  23348760.350    23348757.634
 04  7 22  0 48  0.0000000  0  8G10G27G23G 3G13G 8G19G 1
  24030217.765    -4235698.30143  -3290596.90442  24030219.575    24030216.964
  21097244.848   -23637939.41844 -18220293.72742  21097246.934    21097241.977
  22346558.094   -17426961.74443 -13527504.99542  22346560.371    22346553.367
  23097433.349   -10341710.74843  -8022016.57742  23097435.511    23097432.100
  20283032.733   -27967761.60644 -21276828.76142  20283035.545    20283029.020
  22229250.793   -17980157.85543 -13975335.70042  22229251.709    22229247.751
  23672941.845    -9233206.46543  -7181390.52942  23672943.852    23672939.503
  23365716.460   -10645928.30143  -8257249.52242  23365718.408    23365715.713
 04  7 22  0 48 30.0000000  0  8G10G27G23G 3G13G 8G19G 1
  24016590.328    -4307310.25543  -3346398.37642  24016592.102    24016589.537
  21091891.875   -23666069.55344 -18242213.28942  21091893.952    21091888.969
  22362789.990   -17341662.93243 -13461038.43842  22362792.245    22362785.234
  23095446.075   -10352153.74443  -8030153.94642  23095448.269    23095444.864
  20286126.082   -27951506.13144 -21264162.16042  20286128.877    20286122.339
  22216083.196   -18049353.53043 -14029254.34142  22216084.182    22216080.157
  23659274.630    -9305027.28243  -7237354.70542  23659276.760    23659272.404
  23382716.778   -10556590.98143  -8187636.10542  23382718.740    23382716.085
 04  7 22  0 49  0.0000000  0  8G10G27G23G 3G13G 8G19G 1
  24003045.863    -4378486.63543  -3401860.44442  24003047.569    24003045.151
  21086573.918   -23694015.50544 -18263989.33242  21086576.001    21086571.014
  22379077.062   -17256074.28443 -13394346.02342  22379079.293    22379072.246
  23093563.682   -10362045.92043  -8037862.10942  23093565.848    23093562.454
  20289306.453   -27934793.13744 -21251139.04542  20289309.270    20289302.697
  22202950.479   -18118366.07843 -14083030.29342  22202951.419    22202947.443
  23645658.220    -9376581.85043  -7293111.40142  23645660.242    23645655.874
  23399759.613   -10467029.98643  -8117848.38242  23399761.589    23399759.098
 04  7 22  0 49 30.0000000  0  8G10G27G23G 3G13G 8G19G 1
  23989584.584    -4449225.52643  -3456981.61242  23989586.392    23989583.966
  21081290.846   -23721778.00744 -18285622.42842  21081292.948    21081287.973
  22395418.885   -17170197.46043 -13327429.06442  22395421.174    22395414.106
  23091786.087   -10371386.78043  -8045140.66742  23091788.258    23091784.911
  20292573.849   -27917622.76644 -21237759.52742  20292576.665    20292570.097
  22189852.494   -18187196.01443 -14136663.94942  22189853.437    22189849.447
  23632092.922    -9447867.75843  -7348658.77942  23632094.939    23632090.383
  23416844.875   -10377246.94943  -8047887.65042  23416846.789    23416844.347
 04  7 22  0 50  0.0000000  0  9G10G27G28G23G 3G13G 8G19G 1
  23976204.388    -4519539.18643  -3511771.41842  23976206.178    23976203.720
  21076040.029   -23749371.14944 -18307123.55042  21076042.131    21076037.160
  24768137.315    -1810648.44953  -1369290.90052  24768139.773    24768139.409
  22411812.685   -17084047.70043 -13260299.42342  22411814.975    22411807.927
  23090110.972   -10380189.63843  -8052000.01042  23090113.102    23090109.755
  20295925.679   -27900008.59844 -21224034.19542  20295928.501    20295921.954
  22176786.699   -18255857.07943 -14190166.02242  22176787.648    22176783.606
  23618576.735    -9518896.04043  -7404005.38742  23618578.762    23618574.034
  23433969.357   -10287257.07043  -7977765.72442  23433971.365    23433968.747
 04  7 22  0 50 30.0000000  0  9G10G27G28G23G 3G13G 8G19G 1
  23962910.062    -4589400.52743  -3566208.77942  23962911.995    23962909.489
  21070826.150   -23776770.23144 -18328473.45842  21070828.254    21070823.269
  24748052.377    -1916194.60143  -1451534.48042  24748055.011    24748054.641
  22428262.930   -16997601.23743 -13192938.59042  22428265.224    22428258.188
  23088543.198   -10388428.57743  -8058419.94442  23088545.263    23088541.939
  20299366.837   -27881925.10244 -21209943.16542  20299369.645    20299363.139
  22163757.949   -18324323.67443 -14243516.56842  22163758.896    22163754.805
  23605114.592    -9589639.21143  -7459129.83142  23605116.708    23605112.007
  23451137.879   -10197036.39843  -7907463.97542  23451139.877    23451137.291
 04  7 22  0 51  0.0000000  0  9G10G27G28G23G 3G13G 8G19G 1
  23949700.071    -4658819.34743  -3620301.32442  23949702.036    23949699.399
  21065646.911   -23803987.32944 -18349681.56742  21065648.999    21065643.995
  24727984.803    -2021650.81043  -1533707.97542  24727987.333    24727986.730
  22444767.021   -16910871.59343 -13125357.08942  22444769.345    22444762.357
  23087080.512   -10396114.94243  -8064409.28942  23087082.616    23087079.263
  20302895.073   -27863384.11344 -21195495.64542  20302897.887    20302891.362
  22150763.839   -18392607.85143 -14296724.97242  22150764.791    22150760.710
  23591705.049    -9660106.48943  -7514039.32342  23591707.167    23591702.441
  23468347.692   -10106598.16643  -7836992.69842  23468349.730    23468347.147
 04  7 22  0 51 30.0000000  0  9G10G27G28G23G 3G13G 8G19G 1
  23936574.532    -4727794.58643  -3674048.19442  23936576.494    23936573.841
  21060502.021   -23831023.93644 -18370749.02942  21060504.089    21060499.075
  24707934.142    -2127016.59243  -1615810.97242  24707936.716    24707936.247
  22461324.675   -16823860.93543 -13057556.62442  22461326.955    22461319.911
  23085722.832   -10403249.21543  -8069968.42842  23085724.982    23085721.588
  20306510.181   -27844386.54744 -21180692.34942  20306512.989    20306506.471
  22137804.202   -18460710.81143 -14349792.16342  22137805.159    22137801.117
  23578348.357    -9730296.10043  -7568732.42542  23578350.446    23578345.670
  23485598.560   -10015944.89343  -7766353.84342  23485600.490    23485598.005
 04  7 22  0 52  0.0000000  0  9G10G27G28G23G 3G13G 8G19G 1
  23923534.527    -4796319.54543  -3727444.20242  23923536.535    23923533.869
  21055392.294   -23857875.53544 -18391672.33142  21055394.371    21055389.322
  24687901.858    -2232285.77943  -1697838.69842  24687904.443    24687903.891
  22477936.242   -16736566.26743 -12989534.83942  22477938.591    22477931.577
  23084471.197   -10409826.25043  -8075093.37742  23084473.354    23084469.971
  20310213.110   -27824927.40944 -21165529.38242  20310215.939    20310209.416
  22124880.026   -18528627.67843 -14402714.35442  22124880.945    22124876.906
  23565045.729    -9800200.83143  -7623203.54742  23565047.844    23565043.121
  23502890.979    -9925073.15543  -7695544.77042  23502892.975    23502890.391
 04  7 22  0 52 30.0000000  0  9G10G27G28G23G 3G13G 8G19G 1
  23910579.760    -4864397.54143  -3780491.92742  23910581.671    23910578.946
  21050316.726   -23884547.59544 -18412455.73442  21050318.838    21050313.740
  24667887.306    -2337461.70243  -1779793.76142  24667889.950    24667889.458
  22494600.759   -16648993.85943 -12921296.64442  22494603.027    22494596.075
  23083324.785   -10415850.34543  -8079787.43842  23083326.932    23083323.552
  20314002.972   -27805011.61644 -21150010.57542  20314005.770    20313999.256
  22111990.392   -18596363.01243 -14455495.08542  22111991.276    22111987.254
  23551796.996    -9869823.17443  -7677454.62642  23551799.075    23551794.320
  23520223.711    -9833989.28543  -7624570.39742  23520225.679    23520223.208
 04  7 22  0 53  0.0000000  0  9G10G27G28G23G 3G13G 8G19G 1
  23897711.126    -4932022.72443  -3833186.81042  23897713.021    23897710.248
  21045276.074   -23911036.22944 -18433096.21142  21045278.204    21045273.076
  24647891.662    -2442538.90443  -1861671.87542  24647894.208    24647893.533
  22511318.502   -16561141.17843 -12852840.05642  22511320.848    22511313.899
  23082284.476   -10421317.09043  -8084047.22142  23082286.612    23082283.249
  20317880.444   -27784635.25544 -21134132.88142  20317883.255    20317876.741
  22099135.875   -18663913.72943 -14508131.96042  22099136.762    22099132.731
  23538603.260    -9939156.21643  -7731480.27242  23538605.354    23538600.574
  23537597.234    -9742690.83643  -7553428.82442  23537599.262    23537596.803
 04  7 22  0 53 30.0000000  0  9G10G27G28G23G 3G13G 8G19G 1
  23884928.738    -4999194.73643  -3885528.56742  23884930.579    23884927.715
  21040269.945   -23937343.58144 -18453595.42942  21040272.065    21040266.940
  24627914.724    -2547517.47943  -1943473.12242  24627917.365    24627916.624
  22528089.157   -16473011.28543 -12784167.46142  22528091.401    22528084.503
  23081350.070   -10426227.55543  -8087873.52242  23081352.191    23081348.831
  20321845.319   -27763799.54144 -21117897.26042  20321848.145    20321841.649
  22086316.350   -18731280.82443 -14560625.76442  22086317.222    22086313.170
  23525464.765   -10008199.11643  -7785279.85842  23525466.752    23525462.070
  23555011.190    -9651180.61143  -7482122.23542  23555013.177    23555010.796
 04  7 22  0 54  0.0000000  0  9G10G27G28G23G 3G13G 8G19G 1
  23872233.614    -5065907.18843  -3937512.24442  23872235.495    23872232.726
  21035299.057   -23963465.69244 -18473950.30642  21035301.152    21035296.076
  24607957.582    -2652391.59443  -2025192.97642  24607960.286    24607959.475
  22544912.980   -16384601.44743 -12715276.71542  22544915.273    22544908.391
  23080522.272   -10430577.12343  -8091262.76942  23080524.424    23080521.146
  20325898.486   -27742500.20644 -21101300.37842  20325901.273    20325894.774
  22073532.525   -18798460.13943 -14612973.24142  22073533.402    22073529.321
  23512382.768   -10076945.11243  -7838848.06642  23512384.771    23512380.052
  23572465.876    -9559455.75043  -7410648.39142  23572467.915    23572465.542
 04  7 22  0 54 30.0000000  0  9G10G27G28G23G 3G13G 8G19G 1
  23859625.200    -5132164.81443  -3989141.48442  23859627.061    23859624.299
  21030362.168   -23989409.10844 -18494165.94242  21030364.250    21030359.184
  24588019.577    -2757166.20043  -2106835.29742  24588022.114    24588021.280
  22561788.603   -16295919.63643 -12646174.05542  22561790.892    22561784.010
  23079800.203   -10434371.76443  -8094219.59842  23079802.368    23079798.949
  20330038.612   -27720743.72644 -21084347.27842  20330041.418    20330034.890
  22060783.165   -18865458.42743 -14665179.65842  22060784.023    22060779.911
  23499356.667   -10145397.97743  -7892187.89142  23499358.631    23499353.845
  23589959.880    -9467524.17843  -7339013.46442  23589961.961    23589959.581
 04  7 22  0 55  0.0000000  0  9G10G27G28G23G 3G13G 8G19G 1
  23847104.619    -5197960.70843  -4040410.93742  23847106.410    23847103.714
  21025460.221   -24015168.91844 -18514238.50342  21025462.322    21025457.256
  24568101.731    -2861834.55143  -2188394.81242  24568104.206    24568103.295
  22578716.670   -16206962.02243 -12576856.48242  22578718.985    22578712.167
  23079184.846   -10437605.74443  -8096739.57142  23079186.999    23079183.486
  20334266.836   -27698524.42244 -21067033.53642  20334269.616    20334263.084
  22048069.398   -18932269.60143 -14717240.26442  22048070.259    22048066.120
  23486387.621   -10213549.84843  -7945293.15542  23486389.617    23486384.834
  23607494.036    -9375381.82143  -7267214.31442  23607496.050    23607493.784
 04  7 22  0 55 30.0000000  0  9G10G27G28G23G 3G13G 8G19G 1
  23834672.361    -5263292.37943  -4091318.64642  23834674.175    23834671.527
  21020593.256   -24040744.94744 -18534167.86142  21020595.345    21020590.290
  24548204.496    -2966394.48143  -2269869.85542  24548206.937    24548205.934
  22595697.145   -16117729.42743 -12507324.64142  22595699.426    22595692.698
  23078676.277   -10440278.11443  -8098821.89542  23078678.441    23078674.857
  20338583.215   -27675841.63844 -21049358.63842  20338586.025    20338579.467
  22035391.269   -18998893.58943 -14769155.01142  22035392.151    22035387.955
  23473476.658   -10281397.37943  -7998161.29242  23473478.725    23473473.781
  23625068.280    -9283029.52243  -7195251.56242  23625070.148    23625067.952
 04  7 22  0 56  0.0000000  0  9G10G27G28G23G 3G13G 8G19G 1
  23822328.006    -5328162.07243  -4141866.39442  23822329.819    23822327.098
  21015760.449   -24066141.54444 -18553957.40242  21015762.535    21015757.466
  24528327.416    -3070848.54743  -2351262.41642  24528329.776    24528328.718
  22612728.763   -16028227.73143 -12437583.10342  22612731.061    22612724.337
  23078273.840   -10442392.49943  -8100469.43542  23078276.030    23078272.508
  20342986.995   -27652699.63744 -21031325.90742  20342989.796    20342983.228
  22022747.937   -19065334.49643 -14820927.08742  22022748.839    22022744.619
  23460623.152   -10348942.29943  -8050793.60642  23460625.213    23460620.355
  23642681.286    -9190472.78543  -7123129.49842  23642683.182    23642681.003
 04  7 22  0 56 30.0000000  0  9G10G27G28G23G 3G13G 8G19G 1
  23810072.585    -5392563.94343  -4192049.58942  23810074.439    23810071.717
  21010962.437   -24091355.12344 -18573604.33242  21010964.526    21010959.446
  24508471.588    -3175191.59743  -2432568.47542  24508473.880    24508472.546
  22629812.195   -15938454.26543 -12367629.80542  22629814.430    22629807.678
  23077978.418   -10443944.85243  -8101679.02942  23077980.577    23077977.062
  20347478.958   -27629094.35444 -21012932.18042  20347481.741    20347475.175
  22010140.120   -19131588.69243 -14872553.67842  22010141.034    22010136.822
  23447828.542   -10416178.18043  -8103185.12242  23447830.603    23447825.768
  23660333.617    -9097709.19343  -7050846.25542  23660335.545    23660333.406
 04  7 22  0 57  0.0000000  0  9G10G27G28G23G 3G13G 8G19G 1
  23797906.958    -5456494.08943  -4241865.20342  23797908.837    23797906.094
  21006199.621   -24116383.80344 -18593107.18342  21006201.694    21006196.634
  24488637.432    -3279419.80543  -2513785.05242  24488639.786    24488638.549
  22646947.288   -15848408.55343 -12297464.36542  22646949.607    22646942.814
  23077790.359   -10444932.94243  -8102448.93842  23077792.531    23077789.052
  20352059.444   -27605023.61044 -20994175.75542  20352062.245    20352055.684
  21997568.424   -19197653.07143 -14924032.36742  21997569.361    21997565.126
  23435093.557   -10483100.24743  -8155332.09342  23435095.647    23435090.854
  23678025.554    -9004737.96643  -6978401.24942  23678027.487    23678025.291
 04  7 22  0 57 30.0000000  0  9G10G27G28G23G 3G13G 8G19G 1
  23785830.540    -5519955.45543  -4291315.54342  23785832.505    23785829.811
  21001471.054   -24141232.53744 -18612469.81942  21001473.133    21001468.056
  24468824.518    -3383536.30043  -2594914.58042  24468826.930    24468825.603
  22664133.190   -15758096.77643 -12227091.60442  22664135.383    22664128.621
  23077708.880   -10445360.78943  -8102782.28542  23077711.063    23077707.606
  20356727.596   -27580492.22944 -20975060.39242  20356730.417    20356723.850
  21985031.828   -19263532.98943 -14975367.31742  21985032.766    21985028.556
  23422418.105   -10549710.43943  -8207236.06942  23422420.190    23422415.267
  23695755.708    -8911565.13543  -6905799.10842  23695757.788    23695755.564
 04  7 22  0 58  0.0000000  0  9G10G27G28G23G 3G13G 8G19G 1
  23773844.615    -5582942.50043  -4340396.28242  23773846.475    23773843.625
  20996777.424   -24165897.67244 -18631689.39242  20996779.501    20996774.423
  24449033.961    -3487535.84943  -2675952.99742  24449036.301    24449034.949
  22681370.026   -15667516.62643 -12156509.71942  22681372.242    22681365.505
  23077734.857   -10445224.26243  -8102675.89242  23077737.024    23077733.516
  20361484.182   -27555496.07144 -20955582.86342  20361486.999    20361480.462
  21972531.113   -19329224.23543 -15026555.24342  21972532.061    21972527.886
  23409803.096   -10616002.44843  -8258892.08942  23409805.095    23409800.261
  23713524.819    -8818188.35743  -6833038.06742  23713526.806    23713524.702
 04  7 22  0 58 30.0000000  0  9G10G27G28G23G 3G13G 8G19G 1
  23761948.434    -5645456.89143  -4389108.71642  23761950.367    23761947.431
  20992118.047   -24190382.94144 -18650768.81142  20992120.107    20992115.025
  24429265.222    -3591420.40543  -2756901.79442  24429267.595    24429266.112
  22698656.999   -15576673.04043 -12085722.57442  22698659.246    22698652.522
  23077867.603   -10444526.58643  -8102132.21842  23077869.777    23077866.286
  20366328.493   -27530038.95644 -20935746.15342  20366331.323    20366324.768
  21960065.695   -19394730.36043 -15077598.91942  21960066.612    21960062.441
  23397248.451   -10681977.38043  -8310301.05842  23397250.453    23397245.548
  23731331.793    -8724612.49343  -6760121.90242  23731333.708    23731331.674
 04  7 22  0 59  0.0000000  0  9G10G27G28G23G 3G13G 8G19G 1
  23750143.801    -5707490.65843  -4437446.63142  23750145.714    23750142.753
  20987494.026   -24214682.34144 -18669703.39642  20987496.084    20987491.003
  24409519.809    -3695182.03143  -2837754.81742  24409522.283    24409520.824
  22715994.938   -15485561.32943 -12014726.48642  22715997.278    22715990.536
  23078108.344   -10443261.35743  -8101146.30942  23078110.522    23078107.010
  20371261.757   -27504114.51144 -20915545.29642  20371264.589    20371258.010
  21947636.713   -19460044.94443 -15128493.34542  21947637.648    21947633.443
  23384755.771   -10747626.36143  -8361456.02342  23384757.769    23384752.846
  23749177.516    -8630832.87343  -6687046.96542  23749179.522    23749177.260
 04  7 22  0 59 30.0000000  0  9G10G27G28G23G 3G13G 8G19G 1
  23738429.902    -5769047.31543  -4485412.77642  23738431.844    23738428.868
  20982904.247   -24238801.60144 -18688497.61142  20982906.318    20982901.230
  24389797.001    -3798824.62543  -2918515.08342  24389799.588    24389798.093
  22733382.754   -15394188.25943 -11943526.75342  22733385.013    22733378.249
  23078456.077   -10441433.67643  -8099722.12842  23078458.288    23078454.748
  20376282.898   -27477728.04744 -20894984.41242  20376285.754    20376279.184
  21935243.181   -19525173.29943 -15179242.65342  21935244.100    21935239.843
  23372324.695   -10812951.98043  -8412359.02842  23372326.658    23372321.703
  23767060.785    -8536855.93543  -6613818.25942  23767062.792    23767060.583
 04  7 22  1  0  0.0000000  0  9G10G27G28G23G 3G13G 8G19G 1
  23726807.654    -5830122.17843  -4533003.50542  23726809.564    23726806.684
  20978349.276   -24262737.96144 -18707149.30742  20978351.343    20978346.267
  24370097.865    -3902343.83543  -2999179.19642  24370100.356    24370098.780
  22750820.435   -15302552.65543 -11872122.44242  22750822.737    22750816.002
  23078911.566   -10439040.38943  -8097857.21342  23078913.743    23078910.199
  20381392.514   -27450876.81744 -20874061.38042  20381395.362    20381388.815
  21922885.578   -19590112.56643 -15229844.61542  21922886.509    21922882.233
  23359956.042   -10877948.83443  -8463005.84242  23359958.001    23359953.077
  23784981.940    -8442680.35043  -6540434.77442  23784983.905    23784981.729
 04  7 22  1  0 30.0000000  0  9G10G27G28G23G 3G13G 8G19G 1
  23715277.528    -5890712.80843  -4580216.90942  23715279.432    23715276.519
  20973829.251   -24286490.83244 -18725658.02742  20973831.321    20973826.223
  24350422.475    -4005737.42243  -3079745.41842  24350425.089    24350423.497
  22768308.042   -15210655.30043 -11800514.17842  22768310.312    22768303.568
  23079474.766   -10436080.46843  -8095550.75042  23079476.964    23079473.375
  20386590.782   -27423559.90144 -20852775.47342  20386593.597    20386587.068
  21910564.080   -19654862.17243 -15280298.79242  21910565.007    21910560.741
  23347650.728   -10942613.70043  -8513393.97242  23347652.637    23347647.705
  23802940.571    -8348306.81843  -6466897.04042  23802942.584    23802940.453
 04  7 22  1  1  0.0000000  0  9G10G27G28G23G 3G13G 8G19G 1
  23703839.775    -5950819.06943  -4627052.89042  23703841.579    23703838.603
  20969343.798   -24310062.04044 -18744025.19042  20969345.845    20969340.737
  24330771.086    -4109005.29743  -3160213.69742  24330773.648    24330772.060
  22785844.747   -15118499.22143 -11728704.31242  22785847.089    22785840.281
  23080145.501   -10432555.47943  -8092803.98342  23080147.736    23080144.181
  20391877.310   -27395779.06744 -20831128.06842  20391880.105    20391873.586
  21898278.425   -19719423.45043 -15330606.23242  21898279.363    21898275.089
  23335408.682   -11006945.76843  -8563522.78542  23335410.657    23335405.658
  23820936.315    -8253738.22343  -6393207.30442  23820938.361    23820936.218
 04  7 22  1  1 30.0000000  0  9G10G27G28G23G 3G13G 8G19G 1
  23692494.204    -6010439.57243  -4673510.34142  23692496.172    23692493.065
  20964892.774   -24333452.22644 -18762251.29742  20964894.822    20964889.704
  24311143.979    -4212146.56143  -3240583.31442  24311146.474    24311144.842
  22803430.370   -15026086.42243 -11656694.40442  22803432.635    22803425.910
  23080923.734   -10428465.77443  -8089617.19542  23080925.984    23080922.382
  20397251.997   -27367534.85444 -20809119.58942  20397254.788    20397248.290
  21886028.710   -19783796.07043 -15380766.66142  21886029.632    21886025.312
  23323230.413   -11070942.66343  -8613390.41142  23323232.431    23323227.429
  23838969.005    -8158976.46543  -6319367.06242  23838971.123    23838968.777
 04  7 22  1  2  0.0000000  0  9G10G27G28G23G 3G13G 8G19G 1
  23681242.588    -6069566.97743  -4719583.58042  23681244.540    23681241.444
  20960477.264   -24356655.80444 -18780331.99442  20960479.307    20960474.194
  24291542.217    -4315153.77743  -3320848.48142  24291544.705    24291543.046
  22821065.545   -14933412.66143 -11584481.12242  22821067.850    22821061.204
  23081810.580   -10423805.27843  -8085985.61242  23081812.747    23081809.207
  20402716.001   -27338821.30844 -20786745.39942  20402718.787    20402712.298
  21873815.914   -19847974.84043 -15430776.04342  21873816.813    21873812.430
  23311117.528   -11134596.10943  -8662990.42442  23311119.514    23311114.542
  23857039.305    -8064017.02343  -6245372.77642  23857041.410    23857039.119
 04  7 22  1  2 30.0000000  0  9G10G27G28G23G 3G13G 8G19G 1
  23670083.846    -6128206.42243  -4765276.59442  23670085.679    23670082.652
  20956095.974   -24379679.68744 -18798272.66842  20956098.008    20956092.893
  24271964.868    -4418032.20843  -3401013.30042  24271967.386    24271965.714
  22838749.010   -14840485.99943 -11512070.80542  22838751.287    22838744.640
  23082804.801   -10418580.62443  -8081914.43642  23082806.963    23082803.462
  20408267.967   -27309645.50244 -20764011.00942  20408270.741    20408264.265
  21861638.712   -19911966.20043 -15480639.39242  21861639.617    21861635.224
  23299069.168   -11197910.45443  -8712326.20042  23299071.129    23299066.152
  23875145.467    -7968868.45943  -6171231.09742  23875147.582    23875145.231
 04  7 22  1  3  0.0000000  0  9G10G27G28G23G 3G13G 8G19G 1
  23659019.027    -6186351.88143  -4810584.66942  23659020.931    23659017.876
  20951749.573   -24402520.01444 -18816070.31842  20951751.619    20951746.512
  24252413.218    -4520776.17743  -3481073.34442  24252415.737    24252413.873
  22856481.036   -14747304.13543 -11439461.63042  22856483.287    22856476.627
  23083907.128   -10412787.76643  -8077400.50642  23083909.287    23083905.807
  20413908.709   -27280003.22644 -20740913.13642  20413911.467    20413905.014
  21849497.925   -19975766.07143 -15530353.53142  21849498.820    21849494.457
  23287086.618   -11260878.97043  -8761392.51842  23287088.551    23287083.534
  23893288.450    -7873527.90843  -6096939.84642  23893290.400    23893288.151
 04  7 22  1  3 30.0000000  0  9G10G27G28G23G 3G13G 8G19G 1
  23648048.346    -6244003.17443  -4855507.69542  23648050.213    23648047.194
  20947437.863   -24425178.12144 -18833725.97842  20947439.914    20947434.815
  24232887.229    -4623385.29643  -3561028.30742  24232889.712    24232887.808
  22874261.064   -14653870.01743 -11366655.86842  22874263.273    22874256.645
  23085117.316   -10406428.05443  -8072444.88142  23085119.492    23085116.005
  20419637.922   -27249895.84444 -20717452.84442  20419640.714    20419634.247
  21837393.416   -20039375.50243 -15579919.27442  21837394.297    21837389.937
  23275170.121   -11323500.38243  -8810188.33542  23275172.044    23275166.987
  23911467.181    -7777998.14943  -6022501.14742  23911469.224    23911466.865
 04  7 22  1  4  0.0000000  0  9G10G27G28G23G 3G13G 8G19G 1
  23637172.616    -6301155.27943  -4900041.74042  23637174.490    23637171.463
  20943161.406   -24447650.95044 -18851237.26742  20943163.447    20943158.371
  24213387.644    -4725855.08743  -3640874.70042  24213390.326    24213388.279
  22892089.379   -14560181.85043 -11293652.16542  22892091.575    22892084.909
  23086436.016   -10399498.25243  -8067045.02642  23086438.171    23086434.695
  20425456.279   -27219320.21244 -20693627.67742  20425459.080    20425452.604
  21825325.820   -20102791.15843 -15629334.02942  21825326.677    21825322.288
  23263320.678   -11385768.95943  -8858709.22142  23263322.654    23263317.531
  23929682.240    -7682277.30843  -5947913.55842  23929684.204    23929682.136
 04  7 22  1  4 30.0000000  0  9G10G27G28G23G 3G13G 8G19G 1
  23626391.472    -6357810.19643  -4944188.38642  23626393.324    23626390.310
  20938919.511   -24469942.38944 -18868607.21242  20938921.531    20938916.436
  24193914.470    -4828187.50643  -3720614.05842  24193917.003    24193914.838
  22909965.003   -14466244.70543 -11220454.46142  22909967.242    22909960.580
  23087862.601   -10392001.82543  -8061203.64442  23087864.702    23087861.189
  20431362.988   -27188280.31344 -20669440.74542  20431365.791    20431359.298
  21813294.364   -20166016.61743 -15678600.58042  21813295.222    21813290.810
  23251538.168   -11447685.85543  -8906956.07942  23251540.124    23251535.009
  23947932.784    -7586370.52743  -5873181.08442  23947934.649    23947932.646
 04  7 22  1  5  0.0000000  0  9G10G27G28G23G 3G13G 8G19G 1
  23615705.534    -6413965.62543  -4987945.80842  23615707.287    23615704.204
  20934712.198   -24492051.85944 -18885835.36442  20934714.259    20934709.142
  24174467.554    -4930380.48943  -3800244.76342  24174469.990    24174468.007
  22927887.897   -14372059.67143 -11147063.57442  22927890.131    22927883.439
  23089397.055   -10383937.95643  -8054920.09642  23089399.212    23089395.673
  20437358.172   -27156775.48444 -20644891.53242  20437360.971    20437354.479
  21801299.202   -20229051.36543 -15727718.53042  21801300.044    21801295.645
  23239823.288   -11509247.85443  -8954926.40242  23239825.211    23239820.071
  23966218.755    -7490278.41243  -5798304.20142  23966220.576    23966218.523
 04  7 22  1  5 30.0000000  0  9G10G27G28G23G 3G13G 8G19G 1
  23605115.777    -6469615.43243  -5031309.26742  23605117.471    23605114.320
  20930540.366   -24513974.92044 -18902918.26342  20930542.420    20930537.305
  24155048.279    -5032427.88443  -3879762.05342  24155050.888    24155048.717
  22945858.439   -14277623.42943 -11073476.95442  22945860.756    22945854.056
  23091040.337   -10375302.24843  -8048190.97742  23091042.491    23091038.933
  20443442.657   -27124801.31744 -20619976.60642  20443445.454    20443438.965
  21789341.347   -20291889.96343 -15776683.63542  21789342.196    21789337.816
  23228177.222   -11570447.95243  -9002614.71542  23228179.180    23228174.065
  23984540.300    -7393997.92543  -5723280.51342  23984542.216    23984540.170
 04  7 22  1  6  0.0000000  0  9G10G27G28G23G 3G13G 8G19G 1
  23594621.331    -6524763.54843  -5074281.76742  23594623.142    23594619.878
  20926402.927   -24535717.24144 -18919860.31942  20926404.996    20926399.878
  24135656.236    -5134333.61943  -3959168.96242  24135658.764    24135656.509
  22963875.527   -14182943.33143 -10999700.32142  22963877.778    22963871.153
  23092791.430   -10366100.32343  -8041020.63942  23092793.541    23092789.968
  20449615.371   -27092363.50744 -20594700.40142  20449618.167    20449611.702
  21777419.685   -20354538.58543 -15825500.71242  21777420.545    21777416.131
  23216599.540   -11631288.95143  -9050023.21042  23216601.477    23216596.379
  24002896.417    -7297536.10243  -5648115.55742  24002898.313    24002896.443
 04  7 22  1  6 30.0000000  0  9G10G27G28G23G 3G13G 8G19G 1
  23584223.669    -6579403.59443  -5116858.37042  23584225.451    23584222.185
  20922300.776   -24557274.10044 -18936657.86142  20922302.840    20922297.757
  24116292.256    -5236091.61343  -4038460.75642  24116294.733    24116292.421
  22981939.510   -14088016.27143 -10925731.23542  22981941.824    22981935.251
  23094651.199   -10356327.43443  -8033405.39342  23094653.307    23094649.677
  20455877.202   -27059457.46444 -20569059.34142  20455879.985    20455873.549
  21765535.138   -20416992.23843 -15874165.87042  21765535.968    21765531.568
  23205091.438   -11691763.91543  -9097146.48742  23205093.428    23205088.322
  24021287.594    -7200889.77943  -5572806.81542  24021289.625    24021287.761
 04  7 22  1  7  0.0000000  0  9G10G27G28G23G 3G13G 8G19G 1
  23573922.503    -6633535.70943  -5159039.21242  23573924.320    23573921.136
  20918233.569   -24578647.41744 -18953312.38242  20918235.621    20918230.536
  24096956.361    -5337702.11543  -4117637.64642  24096958.904    24096956.452
  23000050.014   -13992845.36843 -10851572.14642  23000052.280    23000045.772
  23096619.240   -10345985.44643  -8025346.69942  23096621.318    23096617.678
  20462227.809   -27026084.74244 -20543054.63442  20462230.607    20462224.174
  21753687.450   -20479252.03443 -15922679.96742  21753688.292    21753683.877
  23193653.197   -11751872.01243  -9143983.90642  23193655.164    23193650.053
  24039713.380    -7104061.95043  -5497356.67142  24039715.398    24039713.623
 04  7 22  1  7 30.0000000  0  9G10G27G28G23G 3G13G 8G19G 1
  23563718.248    -6687158.99243  -5200823.52742  23563720.047    23563716.890
  20914201.201   -24599837.77244 -18969824.33642  20914203.255    20914198.132
  24077648.777    -5439163.84543  -4196698.57842  24077651.309    24077648.758
  23018206.413   -13897432.78143 -10777224.73542  23018208.701    23018202.208
  23098695.410   -10335075.06043  -8016845.09342  23098697.483    23098693.811
  20468667.059   -26992246.34144 -20516687.05942  20468669.852    20468663.385
  21741876.515   -20541318.89243 -15971043.71642  21741877.347    21741872.909
  23182285.279   -11811611.21643  -9190533.85742  23182287.108    23182281.970
  24058173.329    -7007054.67043  -5421766.66542  24058175.292    24058173.470
 04  7 22  1  8  0.0000000  0  9G10G27G28G23G 3G13G 8G19G 1
  23553611.126    -6740272.35943  -5242210.52142  23553612.895    23553609.718
  20910203.477   -24620845.93944 -18986194.32342  20910205.546    20910200.383
  24058369.515    -5540476.02343  -4275643.00642  24058372.107    24058369.523
  23036408.573   -13801780.69343 -10702690.69642  23036410.773    23036404.280
  23100879.703   -10323596.71143  -8007900.92242  23100881.754    23100878.051
  20475194.700   -26957943.24644 -20489957.37442  20475197.505    20475191.051
  21730102.295   -20603192.73143 -16019257.06142  21730103.136    21730098.676
  23170987.844   -11870979.74143  -9236794.97442  23170989.734    23170984.492
  24076666.977    -6909869.94743  -5346038.39342  24076668.948    24076667.129
 04  7 22  1  8 30.0000000  0  9G10G27G28G23G 3G13G 8G19G 1
  23543601.652    -6792872.05543  -5283197.24842  23543603.466    23543600.190
  20906240.912   -24641669.25344 -19002420.26942  20906242.997    20906237.793
  24039119.523    -5641634.41643  -4354467.58842  24039122.090    24039119.513
  23054656.410   -13705888.01543 -10627969.20342  23054658.675    23054652.173
  23103172.477   -10311547.99843  -7998512.31042  23103174.535    23103170.852
  20481811.294   -26923172.82844 -20462863.54842  20481814.079    20481807.641
  21718365.314   -20664870.99943 -16067318.01642  21718366.155    21718361.668
  23159761.780   -11929972.19943  -9282763.03942  23159763.762    23159758.513
  24095194.701    -6812506.67943  -5270171.01842  24095196.666    24095194.946
 04  7 22  1  9  0.0000000  0  9G10G27G28G23G 3G13G 8G19G 1
  23533690.254    -6844956.67643  -5323782.62842  23533692.043    23533688.769
  20902313.362   -24662308.45644 -19018502.75342  20902315.436    20902310.274
  24019899.105    -5742638.03043  -4433171.56442  24019901.564    24019899.008
  23072949.657   -13609756.93343 -10553061.92642  23072951.895    23072945.383
  23105573.669   -10298929.79843  -7988679.93242  23105575.734    23105572.052
  20488516.680   -26887935.91144 -20435406.22842  20488519.447    20488513.013
  21706665.469   -20726353.99343 -16115226.81442  21706666.328    21706661.797
  23148607.693   -11988586.96143  -9328436.81842  23148609.682    23148604.400
  24113755.986    -6714966.80243  -5194166.01042  24113757.959    24113756.292
 04  7 22  1  9 30.0000000  0  9G10G27G28G23G 3G13G 8G19G 1
  23523877.166    -6896524.75443  -5363965.51542  23523878.978    23523875.696
  20898420.900   -24682763.40444 -19034441.66142  20898422.956    20898417.815
  24000708.400    -5843485.32043  -4511753.73242  24000710.871    24000708.186
  23091287.924   -13513389.01143 -10477970.09642  23091290.115    23091283.697
  23108083.154   -10285742.21143  -7978403.89742  23108085.224    23108081.587
  20495310.806   -26852232.52244 -20407585.41242  20495313.581    20495307.122
  21695002.805   -20787641.74643 -16162983.46742  21695003.667    21694999.089
  23137525.930   -12046821.48243  -9373814.27942  23137527.966    23137522.634
  24132350.680    -6617251.67043  -5118024.45742  24132352.582    24132350.977
 04  7 22  1 10  0.0000000  0  9G10G27G28G23G 3G13G 8G19G 1
  23514162.462    -6947575.60643  -5403745.36042  23514164.256    23514161.049
  20894563.339   -24703035.13944 -19050237.80842  20894565.380    20894560.251
  23981547.575    -5944175.76743  -4590213.68542  23981550.058    23981547.285
  23109670.788   -13416786.58743 -10402695.56942  23109672.963    23109666.574
  23110700.744   -10271986.34543  -7967685.02442  23110702.832    23110699.250
  20502193.486   -26816063.80844 -20379402.00642  20502196.269    20502189.831
  21683377.130   -20848734.65943 -16210588.29642  21683378.008    21683373.428
  23126516.888   -12104674.14443  -9418894.22242  23126518.939    23126513.544
  24150978.369    -6519363.53343  -5041748.06042  24150980.418    24150978.450
 04  7 22  1 10 30.0000000  0  9G10G27G28G23G 3G13G 8G19G 1
  23504547.084    -6998105.26943  -5443119.09742  23504548.781    23504545.537
  20890741.083   -24723121.11644 -19065889.21042  20890743.152    20890738.029
  23962417.541    -6044704.95043  -4668547.97442  23962419.925    23962417.145
  23128098.472   -13319948.64643 -10327237.49042  23128100.634    23128094.274
  23113427.029   -10257659.81643  -7956521.51242  23113429.088    23113425.433
  20509165.147   -26779427.47844 -20350854.22442  20509167.925    20509161.514
  21671789.087   -20909630.15743 -16258039.30142  21671789.929    21671785.376
  23115581.442   -12162139.92943  -9463672.69742  23115583.476    23115578.080
  24169638.964    -6421301.28143  -4965336.04142  24169641.109    24169639.266
 04  7 22  1 11  0.0000000  0  9G10G27G28G23G 3G13G 8G19G 1
  23495030.421    -7048115.48643  -5482088.07742  23495032.140    23495028.863
  20886953.586   -24743024.51344 -19081398.34442  20886955.647    20886950.529
  23943317.665    -6145074.72743  -4746758.06242  23943320.074    23943317.348
  23146570.034   -13222880.18043 -10251599.79342  23146572.230    23146565.825
  23116261.131   -10242766.03943  -7944915.96542  23116263.228    23116259.609
  20516225.111   -26742327.05344 -20321944.81342  20516227.917    20516221.515
  21660238.048   -20970331.13043 -16305338.72442  21660238.894    21660234.348
  23104719.476   -12219219.67843  -9508150.37542  23104721.481    23104716.062
  24188331.887    -6323069.83643  -4888792.17342  24188333.853    24188332.032
 04  7 22  1 11 30.0000000  0  9G10G27G28G23G 3G13G 8G19G 1
  23485613.641    -7097600.30443  -5520647.64242  23485615.387    23485612.201
  20883201.615   -24762741.06944 -19096761.89142  20883203.675    20883198.580
  23924249.260    -6245279.34643  -4824839.44642  23924251.702    23924248.977
  23165086.034   -13125578.33543 -10175780.23342  23165088.209    23165081.783
  23119204.027   -10227301.00543  -7932865.28442  23119206.054    23119202.525
  20523374.265   -26704758.08244 -20292670.29842  20523377.044    20523370.666
  21648724.886   -21030832.96243 -16352482.97742  21648725.770    21648721.192
  23093932.281   -12275906.50643  -9552321.86342  23093934.267    23093928.826
  24207057.488    -6224666.19743  -4812114.11942  24207059.484    24207057.658
 04  7 22  1 12  0.0000000  0  9G10G27G28G23G 3G13G 8G19G 1
  23476296.793    -7146560.51843  -5558798.44142  23476298.536    23476295.276
  20879484.831   -24782273.02244 -19111981.59142  20879486.869    20879481.769
  23905212.314    -6345319.25443  -4902792.48842  23905214.667    23905211.921
  23183645.674   -13028046.89943 -10099781.77642  23183647.848    23183641.440
  23122255.160   -10211267.09443  -7920371.32842  23122257.205    23122253.697
  20530612.007   -26666723.49744 -20263032.96542  20530614.781    20530608.412
  21637249.268   -21091137.68743 -16399473.63442  21637250.148    21637245.548
  23083219.943   -12332200.15343  -9596186.99242  23083221.843    23083216.420
  24225815.102    -6126094.08443  -4735304.80342  24225817.120    24225815.443
 04  7 22  1 12 30.0000000  0  9G10G27G28G23G 3G13G 8G19G 1
  23467080.241    -7194993.71343  -5596538.55942  23467081.925    23467078.702
  20875803.323   -24801619.45544 -19127056.72642  20875805.352    20875800.238
  23886206.980    -6445192.25543  -4980615.46242  23886209.353    23886206.659
  23202248.939   -12930286.51543 -10023604.92442  23202251.070    23202244.689
  23125414.671   -10194663.72443  -7907433.64642  23125416.702    23125413.223
  20537938.462   -26628222.72644 -20233032.37342  20537941.225    20537934.880
  21625811.379   -21151244.03243 -16446309.71242  21625812.281    21625807.624
  23072583.032   -12388097.54243  -9639743.33742  23072585.028    23072579.410
  24244604.708    -6027354.06343  -4658364.64442  24244606.627    24244605.276
 04  7 22  1 13  0.0000000  0  9G10G27G28G23G 3G13G 8G19G 1
  23457963.495    -7242902.24543  -5633869.85742  23457965.225    23457961.951
  20872156.428   -24820783.99344 -19141990.12442  20872158.459    20872153.353
  23867233.050    -6544900.50343  -5058310.05642  23867235.386    23867232.633
  23220894.671   -12832302.40043  -9947253.74642  23220896.871    23220890.547
  23128681.754   -10177494.95143  -7894055.37642  23128683.802    23128680.314
  20545352.894   -26589259.68244 -20202671.56742  20545355.655    20545349.314
  21614410.539   -21211155.72743 -16492994.11042  21614411.411    21614406.780
  23062021.247   -12443599.58443  -9682991.62342  23062023.260    23062017.675
  24263425.586    -5928451.18943  -4581297.53742  24263427.383    24263425.991
 04  7 22  1 13 30.0000000  0  9G10G27G28G23G 3G13G 8G19G 1
  23448947.971    -7290279.09243  -5670786.84242  23448949.672    23448946.475
  20868545.200   -24839761.13144 -19156777.49642  20868547.253    20868542.116
  23848291.742    -6644436.68243  -5135870.55842  23848294.105    23848291.404
  23239583.836   -12734090.67043  -9870725.18942  23239586.001    23239579.654
  23132057.401   -10159755.67943  -7880232.58042  23132059.470    23132055.947
  20552856.342   -26549828.76644 -20171946.19142  20552859.118    20552852.759
  21603047.860   -21270866.76143 -16539522.14642  21603048.737    21603044.115
  23051536.183   -12498698.54143  -9725925.83042  23051538.152    23051532.635
  24282278.070    -5829381.48843  -4504100.46242  24282279.935    24282278.411
 04  7 22  1 14  0.0000000  0  9G10G27G28G23G 3G13G 8G19G 1
  23440033.806    -7337122.99243  -5707288.54342  23440035.533    23440032.431
  20864969.649   -24858550.60844 -19171418.64142  20864971.713    20864966.618
  23829383.513    -6743799.20543  -5213295.76542  23829385.927    23829383.181
  23258315.995   -12635652.81943  -9794020.42842  23258318.178    23258311.816
  23135541.682   -10141445.92043  -7865965.23642  23135543.668    23135540.183
  20560448.752   -26509930.41444 -20140856.57842  20560451.519    20560445.185
  21591723.380   -21330377.06943 -16585893.76942  21591724.251    21591719.675
  23041128.357   -12553391.76643  -9768543.87342  23041130.352    23041124.753
  24301161.954    -5730146.19343  -4426774.38042  24301163.975    24301162.323
 04  7 22  1 14 30.0000000  0  9G10G27G28G23G 3G13G 8G19G 1
  23431220.226    -7383438.85143  -5743378.80042  23431221.901    23431218.727
  20861428.630   -24877158.75444 -19185918.49042  20861430.676    20861425.590
  23810507.449    -6842992.81543  -5290589.33942  23810509.831    23810507.156
  23277089.669   -12536996.80943  -9717145.67742  23277091.807    23277085.482
  23139133.233   -10122572.54943  -7851258.71742  23139135.170    23139131.617
  20568128.861   -26469571.12844 -20109407.79742  20568131.628    20568125.295
  21580436.070   -21389692.28543 -16632113.37542  21580436.950    21580432.345
  23030796.881   -12607683.53843  -9810849.08842  23030798.878    23030793.341
  24320075.797    -5630753.16743  -4349325.35042  24320077.869    24320076.282
 04  7 22  1 15  0.0000000  0  9G10G27G28G23G 3G13G 8G19G 1
  23422508.531    -7429219.32743  -5779051.86942  23422510.160    23422506.980
  20857923.186   -24895579.90444 -19200272.62542  20857925.205    20857920.130
  23791664.868    -6942010.49943  -5367745.83842  23791667.393    23791664.606
  23295905.707   -12438118.35043  -9640097.60242  23295907.821    23295901.455
  23142832.998   -10103130.13443  -7836108.78442  23142834.996    23142831.390
  20575897.691   -26428745.58944 -20077595.70342  20575900.471    20575894.145
  21569186.929   -21448806.81043 -16678176.59942  21569187.826    21569183.188
  23020543.395   -12661565.67143  -9852835.10842  23020545.384    23020539.866
  24339020.580    -5531198.11443  -4271750.11142  24339022.552    24339020.994
 04  7 22  1 15 30.0000000  0  9G10G27G28G23G 3G13G 8G19G 1
  23413898.650    -7474463.81543  -5814307.29042  23413900.403    23413897.154
  20854453.239   -24913814.64544 -19214481.50842  20854455.238    20854450.147
  23772855.965    -7040851.45843  -5444764.62642  23772858.485    23772855.658
  23314763.500   -12339019.84643  -9562878.05842  23314765.725    23314759.389
  23146640.871   -10083119.67543  -7820516.21042  23146642.930    23146639.249
  20583755.084   -26387454.73144 -20045421.02242  20583757.857    20583751.519
  21557975.902   -21507720.92343 -16724083.66242  21557976.791    21557972.152
  23010368.261   -12715036.34743  -9894500.52742  23010370.208    23010364.697
  24357995.782    -5431483.31543  -4194050.31742  24357997.725    24357996.174
 04  7 22  1 16  0.0000000  0  9G10G27G28G23G 3G13G 8G19G 1
  23405390.496    -7519174.31943  -5849146.60742  23405392.267    23405388.959
  20851018.194   -24931866.05244 -19228547.53942  20851020.186    20851015.058
  23754080.458    -7139517.02043  -5521646.74242  23754082.898    23754080.003
  23333662.460   -12239705.97843  -9485490.68342  23333664.636    23333658.244
  23150556.173   -10062544.84143  -7804483.88142  23150558.236    23150554.535
  20591700.276   -26345702.35344 -20012886.71342  20591703.070    20591696.740
  21546802.459   -21566437.66343 -16769836.92842  21546803.304    21546798.657
  23000271.331   -12768096.11843  -9935845.75642  23000273.260    23000267.651
  24377000.565    -5331613.21743  -4116229.56842  24377002.503    24377000.791
 04  7 22  1 16 30.0000000  0  9G10G27G28G23G 3G13G 8G19G 1
  23396985.427    -7563343.42343  -5883564.07042  23396987.143    23396983.762
  20847619.180   -24949728.11444 -19242466.02542  20847621.178    20847616.008
  23735339.669    -7237999.91843  -5598386.52642  23735342.134    23735339.194
  23352602.998   -12140172.55443  -9407932.24642  23352605.282    23352598.858
  23154579.800   -10041400.36743  -7788007.65942  23154581.944    23154578.162
  20599734.396   -26303482.79244 -19979988.37042  20599737.179    20599730.869
  21535667.676   -21624951.09243 -16815431.77142  21535668.524    21535663.858
  22990254.035   -12820737.00943  -9976864.58442  22990256.003    22990250.410
  24396035.521    -5231583.60143  -4038284.51442  24396037.396    24396035.994
 04  7 22  1 17  0.0000000  0  9G10G27G28G23G 3G13G 8G19G 1
  23388682.520    -7606974.84843  -5917562.53742  23388684.284    23388680.947
  20844255.226   -24967405.65044 -19256240.72442  20844257.245    20844252.071
  23716633.131    -7336303.30543  -5674986.43042  23716635.561    23716632.471
  23371584.182   -12040425.94443  -9330207.68342  23371586.461    23371579.991
  23158710.790   -10019691.79943  -7771091.88142  23158712.928    23158709.162
  20607856.422   -26260801.29044 -19946730.07142  20607859.194    20607852.893
  21524570.840   -21683265.20943 -16860871.30742  21524571.690    21524567.027
  22980316.063   -12872961.37243 -10017558.84442  22980318.001    22980312.422
  24415099.845    -5131400.57543  -3960219.93942  24415101.648    24415100.227
 04  7 22  1 17 30.0000000  0  9G10G27G28G23G 3G13G 8G19G 1
  23380483.304    -7650062.41543  -5951137.23042  23380484.998    23380481.656
  20840927.362   -24984893.72244 -19269867.78942  20840929.361    20840924.211
  23697961.821    -7434421.01943  -5751441.67442  23697964.226    23697961.157
  23390606.513   -11940462.95943  -9252314.51942  23390608.872    23390602.334
  23162950.051    -9997414.37943  -7753732.85542  23162952.218    23162948.355
  20616067.218   -26217653.40944 -19913108.35142  20616069.995    20616063.704
  21513512.939   -21741374.90243 -16906151.56042  21513513.772    21513509.093
  22970458.675   -12924762.02843 -10057922.93242  22970460.624    22970455.079
  24434193.990    -5031060.85743  -3882033.23242  24434195.805    24434194.234
 04  7 22  1 18  0.0000000  0  9G10G27G28G23G 3G13G 8G19G 1
  23372387.263    -7692607.23643  -5984289.00642  23372388.983    23372385.677
  20837635.088   -25002194.63644 -19283349.01442  20837637.084    20837631.936
  23679325.750    -7532353.88943  -5827752.87242  23679328.086    23679325.046
  23409669.295   -11840287.64243  -9174255.90042  23409671.662    23409665.168
  23167296.995    -9974571.09943  -7735932.89942  23167299.135    23167295.264
  20624366.254   -26174041.72144 -19879125.22042  20624369.026    20624362.737
  21502493.416   -21799282.90743 -16951274.65242  21502494.222    21502489.542
  22960681.940   -12976139.32643 -10097957.15042  22960683.868    22960678.252
  24453317.134    -4930568.32643  -3803727.44142  24453319.063    24453317.204
 04  7 22  1 18 30.0000000  0  9G10G27G28G23G 3G13G 8G19G 1
  23364393.862    -7734612.61343  -6017020.43342  23364395.606    23364392.304
  20834377.573   -25019312.89244 -19296687.90542  20834379.604    20834374.452
  23660724.203    -7630105.06943  -5903922.50642  23660726.549    23660723.446
  23428771.288   -11739906.33443  -9096036.78042  23428773.603    23428767.211
  23171750.545    -9951167.28443  -7717696.14942  23171752.695    23171748.881
  20632752.569   -26129971.45744 -19844784.76142  20632755.353    20632749.039
  21491511.569   -21856992.70143 -16996243.29342  21491512.377    21491507.699
  22950985.302   -13027095.30443 -10137663.05242  22950987.193    22950981.583
  24472468.284    -4829928.92843  -3725307.25742  24472470.223    24472468.319
 04  7 22  1 19  0.0000000  0  9G10G27G28G23G 3G13G 8G19G 1
  23356504.865    -7776069.33243  -6049324.32442  23356506.593    23356503.315
  20831156.415   -25036240.19344 -19309877.99942  20831158.436    20831153.310
  23642159.053    -7727664.63443  -5979942.82742  23642161.444    23642158.393
  23447913.807   -11639312.00643  -9017651.65642  23447916.093    23447909.772
  23176312.298    -9927195.16843  -7699016.58342  23176314.477    23176310.568
  20641227.674   -26085434.68244 -19810080.79342  20641230.436    20641224.110
  21480568.955   -21914496.37843 -17041051.32142  21480569.771    21480565.084
  22941370.772   -13077619.37243 -10177032.41042  22941372.756    22941367.084
  24491648.493    -4729135.93743  -3646767.35642  24491650.514    24491648.900
 04  7 22  1 19 30.0000000  0  9G10G27G28G23G 3G13G 8G19G 1
  23348719.757    -7816980.04743  -6081202.76642  23348721.505    23348718.247
  20827970.890   -25052980.26544 -19322922.20242  20827972.925    20827967.767
  23623629.942    -7825035.17643  -6055815.86142  23623632.374    23623629.296
  23467095.787   -11538510.46143  -8939105.08542  23467097.975    23467091.749
  23180981.407    -9902658.93543  -7679897.42642  23180983.569    23180979.642
  20649790.635   -26040435.79044 -19775016.73342  20649793.429    20649787.145
  21469664.909   -21971797.27043 -17085701.33442  21469665.741    21469661.061
  22931838.229   -13127713.38943 -10216066.66442  22931840.218    22931834.497
  24510857.122    -4628194.93043  -3568112.12642  24510858.983    24510857.501
 04  7 22  1 20  0.0000000  0  9G10G27G28G23G 3G13G 8G19G 1
  23341038.722    -7857343.99943  -6112655.17342  23341040.519    23341037.201
  20824820.881   -25069533.59044 -19335820.88442  20824822.921    20824817.759
  23605137.056    -7922215.55743  -6131540.71742  23605139.515    23605136.324
  23486316.735   -11437503.75343  -8860398.65042  23486318.916    23486312.812
  23185757.536    -9877560.18943  -7660339.95842  23185759.675    23185755.750
  20658441.371   -25994975.89644 -19739593.45742  20658444.152    20658437.856
  21458799.434   -22028895.56443 -17130193.47842  21458800.250    21458795.589
  22922387.743   -13177375.61143 -10254764.45642  22922389.792    22922384.094
  24530093.393    -4527107.79043  -3489343.04542  24530095.311    24530094.019
 04  7 22  1 20 30.0000000  0  8G10G27G28G23G 3G13G 8G19
  23333463.519    -7897151.92243  -6143674.29442  23333465.270    23333461.954
  20821708.035   -25085891.65844 -19348567.41742  20821710.055    20821704.927
  23586682.273    -8019195.97543  -6207109.77742  23586684.776    23586681.402
  23505578.004   -11336285.22243  -8781527.16342  23505580.161    23505574.101
  23190642.235    -9851891.12443  -7640338.09542  23190644.356    23190640.379
  20667181.319   -25949047.20144 -19703804.87942  20667184.067    20667177.813
  21447974.139   -22085782.68143 -17174521.07542  21447974.949    21447970.288
  22913021.480   -13226595.51543 -10293117.58442  22913023.476    22913017.828
 04  7 22  1 21  0.0000000  0  8G10G27G28G23G 3G13G 8G19
  23325991.488    -7936417.36243  -6174270.69142  23325993.313    23325989.963
  20818629.504   -25102069.41744 -19361173.45642  20818631.517    20818626.406
  23568262.881    -8115990.12243  -6282533.70542  23568265.344    23568261.968
  23524876.394   -11234871.66043  -8702503.70042  23524878.639    23524872.513
  23195632.404    -9825667.29843  -7619903.94142  23195634.496    23195630.595
  20676007.559   -25902665.01544 -19667662.93542  20676010.313    20676004.058
  21437186.199   -22142473.53043 -17218695.73442  21437187.024    21437182.326
  22903737.019   -13275385.57243 -10331135.76842  22903738.977    22903733.311
 04  7 22  1 21 30.0000000  0  8G10G27G28G23G 3G13G 8G19
  23318624.814    -7975129.78743  -6204436.19142  23318626.574    23318623.144
  20815587.072   -25118057.49644 -19373631.68542  20815589.078    20815583.969
  23549880.994    -8212587.07643  -6357803.95942  23549883.504    23549880.069
  23544213.352   -11133255.44543  -8623322.30442  23544215.598    23544209.499
  23200729.903    -9798880.10243  -7599030.80342  23200731.957    23200728.013
  20684921.739   -25855820.69544 -19631160.88342  20684924.469    20684918.231
  21426437.480   -22198958.28843 -17262709.80442  21426438.318    21426433.583
  22894536.553   -13323734.37043 -10368810.10942  22894538.462    22894532.792
 04  7 22  1 22  0.0000000  0  8G10G27G28G23G 3G13G 8G19
  23311363.117    -8013290.21143  -6234171.55042  23311364.848    23311361.402
  20812580.451   -25133857.32244 -19385943.22142  20812582.470    20812577.330
  23531536.615    -8308987.20443  -6432920.85042  23531539.039    23531535.574
  23563588.388   -11031439.84543  -8543985.55842  23563590.506    23563584.363
  23205934.031    -9771532.03943  -7577720.62042  23205936.109    23205932.252
  20693923.431   -25808516.54544 -19594300.52442  20693926.181    20693919.904
  21415727.745   -22255238.15543 -17306564.21742  21415728.549    21415723.843
  22885420.018   -13371641.65243 -10406140.40842  22885421.935    22885416.266
 04  7 22  1 22 30.0000000  0  8G10G27G28G23G 3G13G 8G19
  23304207.128    -8050895.04843  -6263473.99442  23304208.897    23304205.465
  20809610.142   -25149466.34744 -19398106.08742  20809612.160    20809607.005
  23513230.295    -8405186.45343  -6507881.20042  23513232.787    23513229.335
  23583001.291   -10929423.99843  -8464492.78442  23583003.461    23582997.422
  23211245.209    -9743621.30043  -7555972.00642  23211247.316    23211243.552
  20703013.011   -25760750.57244 -19557080.29442  20703015.756    20703009.453
  21405057.472   -22311310.74143 -17350257.11142  21405058.268    21405053.550
  22876388.486   -13419102.52443 -10443122.86942  22876390.402    22876384.689
 04  7 22  1 23  0.0000000  0  8G10G27G28G23G 3G13G 8G19
  23297156.088    -8087948.72843  -6292346.96642  23297157.802    23297154.339
  20806675.040   -25164890.26744 -19410124.71542  20806677.075    20806671.902
  23494961.548    -8501188.95043  -6582688.22842  23494964.025    23494960.528
  23602451.103   -10827215.23643  -8384849.68842  23602453.274    23602447.244
  23216662.253    -9715154.59943  -7533790.16042  23216664.388    23216660.550
  20712189.206   -25712529.36344 -19519505.33642  20712191.970    20712185.638
  21394425.652   -22367181.33143 -17393792.60442  21394426.447    21394421.689
  22867441.178   -13466120.74343 -10479760.39442  22867443.082    22867437.372
 04  7 22  1 23 30.0000000  0  8G10G27G28G23G 3G13G 8G19
  23290211.067    -8124444.98843  -6320785.58442  23290212.796    23290209.275
  20803776.206   -25180123.56944 -19421994.81142  20803778.240    20803773.078
  23476731.580    -8596988.14043  -6657336.85542  23476733.979    23476730.422
  23621938.234   -10724809.93443  -8305053.43042  23621940.483    23621934.399
  23222185.955    -9686127.29243  -7511171.47942  23222188.097    23222184.235
  20721453.090   -25663847.35244 -19481571.31242  20721455.858    20721449.512
  21383833.264   -22422844.55643 -17437166.51542  21383834.091    21383829.279
  22858579.560   -13512688.74043 -10516047.09442  22858581.446    22858575.711
 04  7 22  1 24  0.0000000  0  8G10G27G28G23G 3G13G 8G19
  23283371.819    -8160385.39943  -6348791.06342  23283373.548    23283370.007
  20800913.289   -25195168.35444 -19433718.00942  20800915.300    20800910.132
  23458540.071    -8692584.93943  -6731827.74742  23458542.414    23458538.872
  23641462.153   -10622212.35343  -8225107.36242  23641464.272    23641458.133
  23227815.779    -9656542.53043  -7488118.41342  23227817.953    23227814.083
  20730804.017   -25614708.04044 -19443280.94542  20730806.764    20730800.411
  21373280.007   -22478302.07943 -17480380.14242  21373280.857    21373276.029
  22849803.559   -13558806.62743 -10551983.07442  22849805.460    22849799.705
 04  7 22  1 24 30.0000000  0  8G10G27G28G23G 3G13G 8G19
  23276639.390    -8195764.77043  -6376359.38842  23276641.050    23276637.492
  20798087.007   -25210020.42044 -19445291.03842  20798089.054    20798083.878
  23440388.047    -8787973.67543  -6806156.52842  23440390.439    23440386.942
  23661022.906   -10519419.99743  -8145009.49342  23661025.119    23661019.003
  23233552.326    -9626396.76643  -7464628.21642  23233554.479    23233550.687
  20740242.649   -25565107.71344 -19404631.35642  20740245.394    20740239.022
  21362766.731   -22533549.43643 -17523429.99842  21362767.582    21362762.794
  22841114.404   -13604468.17643 -10587563.45742  22841116.321    22841110.598
 04  7 22  1 25  0.0000000  0  8G10G27G28G23G 3G13G 8G19
  23270013.107    -8230585.68743  -6403492.54042  23270014.799    23270011.275
  20795296.821   -25224683.03544 -19456716.44742  20795298.842    20795293.659
  23422275.244    -8883156.44243  -6880324.81042  23422277.690    23422274.222
  23680619.872   -10416437.82043  -8064763.73742  23680621.993    23680616.031
  23239394.740    -9595694.73543  -7440704.56142  23239396.879    23239393.056
  20749768.216   -25515050.44544 -19365625.69542  20749770.989    20749764.591
  21352292.786   -22588590.25243 -17566318.91042  21352293.631    21352288.862
  22832511.855   -13649674.66243 -10622789.24142  22832513.746    22832508.027
 04  7 22  1 25 30.0000000  0  8G10G27G28G23G 3G13G 8G19
  23263493.523    -8264846.23243  -6430189.04942  23263495.246    23263491.703
  20792542.803   -25239155.38244 -19467993.59842  20792544.839    20792539.661
  23404202.144    -8978130.81143  -6954330.70342  23404204.588    23404201.093
  23700252.697   -10313266.72343  -7984370.77442  23700254.841    23700248.990
  23245343.031    -9564436.15343  -7416347.24542  23245345.117    23245341.328
  20759380.740   -25464536.20844 -19326263.95742  20759383.515    20759377.156
  21341858.541   -22643422.64743 -17609045.41742  21341859.364    21341854.596
  22823996.439   -13694423.23343 -10657658.20842  22823998.323    22823992.644
 04  7 22  1 26  0.0000000  0  8G10G27G28G23G 3G13G 8G19
  23257080.880    -8298544.57243  -6456447.46742  23257082.595    23257079.175
  20789825.254   -25253436.15644 -19479121.46942  20789827.284    20789822.099
  23386169.046    -9072894.77443  -7028172.64542  23386171.510    23386168.021
  23719921.469   -10209907.33943  -7903831.07742  23719923.556    23719917.757
  23251397.285    -9532620.99743  -7391556.21142  23251399.378    23251395.470
  20769080.322   -25413564.62944 -19286545.85142  20769083.082    20769076.731
  21331464.082   -22698045.66743 -17651608.77142  21331464.913    21331460.159
  22815568.780   -13738710.83243 -10692167.98642  22815570.657    22815564.968
 04  7 22  1 26 30.0000000  0  8G10G27G28G23G 3G13G 8G19
  23250774.654    -8331683.98343  -6482270.36042  23250776.365    23250772.961
  20787143.394   -25267529.30144 -19490103.13642  20787145.426    20787140.272
  23368175.546    -9167450.68443  -7101852.45642  23368177.999    23368174.595
  23739624.924   -10106365.74243  -7823149.41742  23739627.000    23739621.224
  23257556.281    -9500254.61243  -7366335.65242  23257558.400    23257554.663
  20778865.984   -25362140.61644 -19246475.20042  20778868.734    20778862.402
  21321108.737   -22752463.34243 -17694012.11742  21321109.561    21321104.796
  22807228.432   -13782539.56343 -10726320.20442  22807230.325    22807224.557
 04  7 22  1 27  0.0000000  0  8G10G27G28G23G 3G13G 8G19
  23244576.125    -8364257.64743  -6507652.43042  23244577.815    23244574.309
  20784498.401   -25281428.93144 -19500934.01642  20784500.411    20784495.263
  23350223.026    -9261791.45943  -7175364.62142  23350225.469    23350222.088
  23759363.664   -10002637.84043  -7742322.57242  23759365.826    23759360.087
  23263821.288    -9467331.99143  -7340681.67642  23263823.318    23263819.646
  20788738.748   -25310258.97744 -19206047.96642  20788741.488    20788735.167
  21310793.629   -22806669.30343 -17736250.49842  21310794.477    21310789.708
  22798976.846   -13825901.72343 -10760108.86542  22798978.725    22798972.944
 04  7 22  1 27 30.0000000  0  8G10G27G28G23G 3G13G 8G19
  23238484.536    -8396269.21143  -6532596.49942  23238486.183    23238482.698
  20781889.424   -25295139.27844 -19511617.40242  20781891.410    20781886.240
  23332310.867    -9355920.14843  -7248711.54442  23332313.317    23332309.891
  23779136.813    -9898729.74143  -7661355.30242  23779139.018    23779133.179
  23270191.086    -9433858.39343  -7314598.36442  23270193.177    23270189.478
  20798697.581   -25257924.98744 -19165268.25342  20798700.340    20798694.047
  21300518.091   -22860667.54143 -17778327.01842  21300518.917    21300514.134
  22790813.585   -13868799.70043 -10793535.81742  22790815.484    22790809.690
 04  7 22  1 28  0.0000000  0  8G10G27G28G23G 3G13G 8G19
  23232500.744    -8427714.26543  -6557099.13242  23232502.411    23232498.848
  20779317.243   -25308656.15644 -19522150.03742  20779319.225    20779314.055
  23314440.012    -9449831.41643  -7321889.04642  23314442.475    23314439.055
  23798944.627    -9794639.20643  -7580245.89342  23798946.793    23798940.999
  23276666.268    -9399830.95843  -7288083.47942  23276668.382    23276664.737
  20808743.167   -25205135.16144 -19124133.34542  20808745.905    20808739.652
  21290282.841   -22914454.14043 -17820238.62442  21290283.660    21290278.835
  22782739.811   -13911227.35243 -10826596.29642  22782741.711    22782735.955
 04  7 22  1 28 30.0000000  0  8G10G27G28G23G 3G13G 8G19
  23226624.543    -8458593.98943  -6581161.24442  23226626.173    23226622.621
  20776781.490   -25321981.71444 -19532533.59042  20776783.463    20776778.271
  23296610.412    -9543526.04243  -7394897.72542  23296612.850    23296609.413
  23818786.536    -9690370.07243  -7498997.30342  23818788.713    23818782.795
  23283246.257    -9365253.15443  -7261139.74742  23283248.381    23283244.663
  20818874.894   -25151892.53844 -19082645.60542  20818877.626    20818871.412
  21280087.532   -22968030.65643 -17861986.52642  21280088.370    21280083.503
  22774755.585   -13953184.97843 -10859290.51542  22774757.436    22774751.695
 04  7 22  1 29  0.0000000  0  8G10G27G28G23G 3G13G 8G19
  23220855.893    -8488908.12143  -6604782.62842  23220857.540    23220853.984
  20774282.064   -25335116.31644 -19542768.34142  20774284.040    20774278.831
  23278822.258    -9637003.31343  -7467737.05142  23278824.644    23278821.175
  23838661.874    -9585924.88643  -7417611.54842  23838664.085    23838658.191
  23289930.616    -9330126.65943  -7233768.46542  23289932.685    23289928.947
  20829092.504   -25098198.67744 -19040806.25142  20829095.242    20829089.033
  21269932.089   -23021397.83743 -17903571.31742  21269932.908    21269928.024
  22766860.970   -13994671.31343 -10891617.49542  22766862.856    22766857.101
 04  7 22  1 29 30.0000000  0  8G10G27G28G23G 3G13G 8G19
  23215195.767    -8518652.50543  -6627960.07342  23215197.341    23215193.737
  20771819.677   -25348056.15944 -19552851.33542  20771821.655    20771816.446
  23261076.466    -9730258.21643  -7540403.10642  23261078.834    23261075.247
  23858571.071    -9481301.47643  -7336086.91742  23858573.266    23858567.477
  23296719.938    -9294448.59543  -7205967.39942  23296722.028    23296718.251
  20839396.578   -25044050.45844 -18998612.85742  20839399.284    20839393.132
  21259817.324   -23074551.19843 -17944989.49242  21259818.127    21259813.243
  22759057.015   -14035680.94843 -10923573.01442  22759058.977    22759053.200
 04  7 22  1 30  0.0000000  0  8G10G27G28G23G 3G13G 8G19
  23209643.771    -8547827.80943  -6650694.06242  23209645.420    23209641.875
  20769394.116   -25360802.53844 -19562783.57942  20769396.103    20769390.879
  23243372.847    -9823290.86943  -7612895.99742  23243375.291    23243371.555
  23878513.569    -9376503.33943  -7254426.13342  23878515.637    23878509.980
  23303613.685    -9258221.72143  -7177738.66842  23303615.843    23303612.029
  20849786.664   -24989450.23144 -18956067.24542  20849789.370    20849783.235
  21249742.968   -23127492.29643 -17986242.27342  21249743.736    21249738.858
  22751343.901   -14076213.31543 -10955156.64142  22751345.857    22751340.158
 04  7 22  1 30 30.0000000  0  8G10G27G28G23G 3G13G 8G19
  23204199.868    -8576435.50843  -6672985.76542  23204201.501    23204197.990
  20767004.990   -25373357.45944 -19572566.63042  20767006.987    20767001.753
  23225711.446    -9916101.93243  -7685216.22342  23225713.881    23225710.050
  23898488.440    -9271534.38243  -7172632.21142  23898490.610    23898484.946
  23310611.298    -9221449.13443  -7149084.72442  23310613.400    23310609.689
  20860262.199   -24934401.04944 -18913171.79542  20860264.897    20860258.781
  21239708.716   -23180222.52843 -18027330.74242  21239709.506    21239704.603
  22743721.588   -14116268.55143 -10986368.47542  22743723.583    22743717.833
 04  7 22  1 31  0.0000000  0  8G10G27G28G23G 3G13G 8G19
  23198864.994    -8604470.43143  -6694831.13942  23198866.621    23198863.176
  20764653.183   -25385716.40344 -19582196.97442  20764655.176    20764649.909
  23208093.122   -10008685.97343  -7757359.54242  23208095.599    23208091.740
  23918496.597    -9166392.01943  -7090703.19642  23918498.645    23918492.797
  23317713.346    -9184127.66543  -7120003.07842  23317715.478    23317711.792
  20870823.868   -24878899.14144 -18869923.56542  20870826.602    20870820.487
  21229715.454   -23232737.13343 -18068251.19242  21229716.272    21229711.349
  22736191.345   -14155840.40343 -11017203.65742  22736193.310    22736187.506
 04  7 22  1 31 30.0000000  0  8G10G27G28G23G 3G13G 8G19
  23193638.242    -8631937.55243  -6716234.06242  23193639.810    23193636.375
  20762337.628   -25397884.71144 -19591678.77042  20762339.630    20762334.358
  23190517.272   -10101047.26243  -7829329.27642  23190519.716    23190515.903
  23938535.925    -9061083.58543  -7008644.76642  23938538.160    23938532.247
  23324918.466    -9146264.28943  -7090499.16142  23324920.616    23324916.964
  20881470.394   -24822951.40144 -18826327.94842  20881473.100    20881467.009
  21219762.123   -23285042.06943 -18109008.26742  21219762.909    21219758.005
  22728752.352   -14194932.71443 -11047665.16942  22728754.273    22728748.484
 04  7 22  1 32  0.0000000  0  8G10G27G28G23G 3G13G 8G19
  23188520.694    -8658830.15043  -6737189.30142  23188522.291    23188518.853
  20760059.568   -25409856.01544 -19601007.05942  20760061.555    20760056.301
  23172985.263   -10193178.13643  -7901119.48942  23172987.662    23172983.810
  23958608.060    -8955604.69043  -6926453.53142  23958610.227    23958604.335
  23332227.655    -9107854.00843  -7060569.09042  23332229.836    23332226.308
  20892202.808   -24766552.30344 -18782380.62642  20892205.532    20892199.382
  21209849.917   -23337130.74343 -18149596.82442  21209850.699    21209845.819
  22721406.032   -14233537.60543 -11077746.87042  22721407.949    22721402.167
 04  7 22  1 32 30.0000000  0  8G10G27G28G23G 3G13G 8G19
  23183512.166    -8685149.67443  -6757697.98842  23183513.850    23183510.372
  20757818.679   -25421631.93444 -19610183.09042  20757820.646    20757815.427
  23155497.062   -10285079.25743  -7972730.66942  23155499.379    23155495.429
  23978711.654    -8849959.03843  -6844132.34842  23978713.895    23978708.206
  23339640.437    -9068899.82243  -7030215.20442  23339642.583    23339639.044
  20903020.617   -24709704.49044 -18738083.65542  20903023.327    20903017.154
  21199978.721   -23389004.18743 -18190017.66942  21199979.465    21199974.615
  22714152.572   -14271654.62843 -11107448.41042  22714154.503    22714148.687
 04  7 22  1 33  0.0000000  0  8G10G27G28G23G 3G13G 8G19
  23178612.055    -8710899.99243  -6777763.13842  23178613.664    23178610.276
  20755614.143   -25433216.82544 -19619210.27242  20755616.091    20755610.895
  23138051.893   -10376753.90743  -8044165.38942  23138054.192    23138050.187
  23998845.931    -8744152.95643  -6761686.17242  23998848.174    23998842.589
  23347155.540    -9029407.57243  -6999442.03842  23347157.729    23347154.177
  20913922.803   -24652413.30444 -18693441.20842  20913925.520    20913919.311
  21190147.704   -23440666.50643 -18230274.00442  21190148.446    21190143.569
  22706991.309   -14309286.82543 -11136772.16142  22706993.256    22706987.501
 04  7 22  1 33 30.0000000  0  8G10G27G28G23G 3G13G 8G19
  23173821.329    -8736074.64743  -6797379.73442  23173823.012    23173819.688
  20753447.095   -25444604.66544 -19628083.90442  20753449.045    20753443.855
  23120651.191   -10468194.82543  -8115417.97342  23120653.490    23120649.462
  24019011.602    -8638182.27143  -6679111.69142  24019013.743    24019008.203
  23354773.917    -8989372.68943  -6968246.03842  23354776.108    23354772.534
  20924910.277   -24594674.03344 -18648449.60042  20924912.967    20924906.755
  21180357.994   -23492111.89344 -18270361.30442  21180358.726    21180353.828
  22699923.812   -14346426.57343 -11165712.19242  22699925.765    22699919.958
 04  7 22  1 34  0.0000000  0  8G10G27G28G23G 3G13G 8G19
  23169139.890    -8760676.00743  -6816549.58442  23169141.547    23169138.237
  20751317.059   -25455798.02544 -19636805.99542  20751319.012    20751313.795
  23103294.742   -10559403.50643  -8186489.60442  23103297.030    23103292.955
  24039207.629    -8532051.52343  -6596412.50642  24039209.847    24039204.240
  23362494.932    -8948799.05143  -6936630.24342  23362497.017    23362493.463
  20935982.293   -24536490.19644 -18603111.57242  20935984.990    20935978.780
  21170609.155   -23543342.37444 -18310281.14042  21170609.908    21170604.981
  22692949.888   -14383074.76543 -11194269.18942  22692951.826    22692945.992
 04  7 22  1 34 30.0000000  0  8G10G27G28G23G 3G13G 8G19
  23164567.794    -8784702.58843  -6835271.58242  23164569.427    23164566.119
  20749224.278   -25466795.56944 -19645375.50342  20749226.256    20749221.013
  23085982.934   -10650377.54843  -8257378.39542  23085985.191    23085981.128
  24059434.118    -8425761.43943  -6513589.14242  24059436.264    24059430.609
  23370318.413    -8907686.81643  -6904594.75642  23370320.482    23370316.868
  20947138.944   -24477861.49444 -18557426.89042  20947141.631    20947135.431
  21160901.348   -23594357.15044 -18350032.89442  21160902.134    21160897.194
  22686070.037   -14419228.51143 -11222440.91042  22686071.941    22686066.135
 04  7 22  1 35  0.0000000  0  8G10G27G28G23G 3G13G 8G19
  23160105.502    -8808151.96343  -6853543.79042  23160107.168    23160103.807
  20747169.151   -25477595.23544 -19653790.81842  20747171.130    20747165.884
  23068716.235   -10741113.80643  -8328081.88542  23068718.550    23068714.515
  24079690.853    -8319312.10943  -6430641.70942  24079692.971    24079687.352
  23378244.355    -8866035.59143  -6872139.27842  23378246.405    23378242.837
  20958380.371   -24418787.38344 -18511395.14242  20958383.052    20958376.855
  21151235.080   -23645153.56744 -18389614.49942  21151235.886    21151230.921
  22679284.925   -14454884.56543 -11250224.81242  22679286.797    22679280.948
 04  7 22  1 35 30.0000000  0  8G10G27G28G23G 3G13G 8G19
  23155752.273    -8831028.23843  -6871369.43642  23155753.972    23155750.508
  20745150.888   -25488201.25344 -19662055.23642  20745152.865    20745147.606
  23051494.321   -10831615.54243  -8398602.65042  23051496.558    23051492.516
  24099976.818    -8212709.72743  -6347574.99842  24099978.937    24099973.249
  23386271.836    -8823851.22743  -6839268.36942  23386273.901    23386270.302
  20969705.510   -24359273.53644 -18465020.73642  20969708.170    20969701.993
  21141609.618   -23695735.60444 -18429029.05442  21141610.435    21141605.436
  22672593.964   -14490045.59643 -11277622.98542  22672595.840    22672589.948
 04  7 22  1 36  0.0000000  0  8G10G27G28G23G 3G13G 8G19
  23151509.573    -8853323.87543  -6888742.63842  23151511.201    23151507.809
  20743170.812   -25498606.44844 -19670163.16842  20743172.808    20743167.578
  23034318.541   -10921874.57343  -8468934.29242  23034320.750    23034316.733
  24120292.557    -8105949.09143  -6264384.96842  24120294.912    24120289.180
  23394401.810    -8781128.10643  -6805977.65042  23394403.832    23394400.257
  20981115.580   -24299313.24144 -18418298.45142  20981118.259    20981112.076
  21132026.316   -23746096.27844 -18468271.12042  21132027.109    21132022.102
  22665998.801   -14524703.03743 -11304628.75642  22666000.686    22665994.779
 04  7 22  1 36 30.0000000  0  8G10G27G28G23G 3G13G 8G19
  23147376.108    -8875045.22943  -6905668.35242  23147377.766    23147374.308
  20741227.744   -25508817.27044 -19678119.64442  20741229.731    20741224.516
  23017187.930   -11011896.24543  -8539080.97442  23017190.113    23017186.148
  24140637.182    -7999038.83243  -6181078.39542  24140639.440    24140633.612
  23402632.758    -8737874.23043  -6772273.34442  23402634.796    23402631.226
  20992609.130   -24238914.46644 -18371234.48742  20992611.786    20992605.631
  21122483.922   -23796241.95444 -18507345.65142  21122484.692    21122479.687
  22659498.649   -14558861.77243 -11331245.92842  22659500.495    22659494.532
 04  7 22  1 37  0.0000000  0  8G10G27G28G23G 3G13G 8G19
  23143352.780    -8896187.75743  -6922143.02742  23143354.451    23143350.999
  20739322.455   -25518829.60444 -19685921.45542  20739324.443    20739319.243
  23000103.470   -11101675.18543  -8609038.48942  23000105.677    23000101.753
  24161010.347    -7891976.84343  -6097653.56642  24161012.750    24161006.982
  23410965.199    -8694087.18743  -6738153.59242  23410967.233    23410963.605
  21004186.635   -24178074.42844 -18323826.69142  21004189.284    21004183.150
  21112983.263   -23846168.09444 -18546249.11942  21112984.064    21112979.051
  22653094.453   -14592515.96943 -11357469.95042  22653096.328    22653090.309
 04  7 22  1 37 30.0000000  0  8G10G27G28G23G 3G13G 8G19
  23139439.535    -8916751.84943  -6938166.98342  23139441.211    23139437.808
  20737454.945   -25528643.48644 -19693568.63642  20737456.925    20737451.717
  22983065.309   -11191210.91643  -8678806.51442  22983067.559    22983063.588
  24181412.166    -7784765.31443  -6014112.22042  24181414.442    24181408.876
  23419398.744    -8649768.66243  -6703619.69742  23419400.777    23419397.189
  21015847.790   -24116794.61644 -18276076.20942  21015850.457    21015844.362
  21103524.344   -23895874.94444 -18584981.71042  21103525.134    21103520.152
  22646786.453   -14625664.62943 -11383300.04842  22646788.357    22646782.286
 04  7 22  1 38  0.0000000  0  8G10G27G28G23G 3G13G 8G19
  23135636.581    -8936736.64743  -6953739.53242  23135638.245    23135634.875
  20735625.367   -25538258.03444 -19701060.49442  20735627.333    20735622.106
  22966073.770   -11280501.37843  -8748383.41742  22966076.055    22966072.070
  24201842.202    -7677405.39843  -5930455.25142  24201844.402    24201838.914
  23427933.217    -8604919.77143  -6668672.52442  23427935.258    23427931.630
  21027592.600   -24055075.24144 -18227983.20642  21027595.287    21027589.205
  21094107.341   -23945361.56444 -18623542.69142  21094108.131    21094103.143
  22640575.072   -14658305.47143 -11408734.43942  22640576.987    22640570.921
 04  7 22  1 38 30.0000000  0  8G10G27G28G23G 3G13G 8G19
  23131943.203    -8956145.50043  -6968863.30542  23131944.839    23131941.456
  20733833.008   -25547677.11744 -19708400.03942  20733834.963    20733829.706
  22949128.460   -11369549.54543  -8817771.51942  22949130.685    22949126.720
  24222299.248    -7569903.07643  -5846687.31742  24222301.365    24222295.968
  23436567.632    -8559545.53143  -6633315.99642  23436569.697    23436566.090
  21039420.099   -23992921.34544 -18179551.61842  21039422.783    21039416.711
  21084731.536   -23994631.71544 -18661934.99542  21084732.303    21084727.340
  22634459.931   -14690440.92643 -11433775.02542  22634461.826    22634455.717
 04  7 22  1 39  0.0000000  0  8G10G27G28G23G 3G13G 8G19
  23128360.990    -8974970.18243  -6983531.87942  23128362.660    23128359.173
  20732079.455   -25556892.09344 -19715580.54842  20732081.401    20732076.125
  22932231.090   -11458345.56243  -8886963.13042  22932233.368    22932229.322
  24242784.813    -7462251.55743  -5762803.14142  24242786.771    24242781.511
  23445303.311    -8513639.34743  -6597544.96642  23445305.339    23445301.857
  21051331.603   -23930325.89644 -18130775.96842  21051334.303    21051328.260
  21075398.714   -24043676.15544 -18700151.42542  21075399.460    21075394.466
  22628442.829   -14722061.19143 -11458414.16542  22628444.689    22628438.543
 04  7 22  1 39 30.0000000  0  8G10G27G28G23G 3G13G 8G19
  23124888.480    -8993218.12243  -6997751.03942  23124890.184    23124886.653
  20730363.304   -25565910.61344 -19722607.97042  20730365.246    20730359.986
  22915380.405   -11546896.32143  -8955963.62842  22915382.720    22915378.584
  24263296.540    -7354460.86343  -5678810.49342  24263298.774    24263293.599
  23454138.388    -8467210.79243  -6561366.88042  23454140.484    23454136.895
  21063325.414   -23867298.19244 -18081663.50442  21063328.090    21063322.045
  21066107.372   -24092502.41344 -18738197.84342  21066108.136    21066103.129
  22622522.504   -14753172.38043 -11482656.61842  22622524.366    22622518.259
 04  7 22  1 40  0.0000000  0  8G10G27G28G23G 3G13G 8G19
  23121526.345    -9010885.98843  -7011518.20742  23121528.018    23121524.557
  20728685.140   -25574729.39244 -19729479.74742  20728687.089    20728681.834
  22898577.188   -11635197.58143  -9024769.71742  22898579.507    22898575.312
  24283835.437    -7246529.73343  -5594708.43542  24283837.488    24283832.346
  23463073.219    -8420258.27243  -6524780.53142  23463075.277    23463071.668
  21075401.909   -23803835.77843 -18032212.30042  21075404.598    21075398.533
  21056858.163   -24141107.24844 -18776071.72042  21056858.934    21056853.902
  22616699.845   -14783770.16943 -11506499.02442  22616701.724    22616695.662
 04  7 22  1 40 30.0000000  0  8G10G27G28G23G 3G13G 8G19
  23118274.729    -9027973.48843  -7024833.13542  23118276.360    23118272.888
  20727045.041   -25583348.21044 -19736195.70842  20727046.976    20727041.727
  22881821.617   -11723248.11743  -9093380.42842  22881823.993    22881819.752
  24304400.441    -7138460.08843  -5510498.44042  24304402.611    24304397.499
  23472107.355    -8372783.17443  -6487786.99042  23472109.376    23472105.922
  21087560.962   -23739939.60843 -17982423.10342  21087563.645    21087557.572
  21047651.082   -24189490.70844 -18813773.09842  21047651.866    21047646.803
  22610975.248   -14813853.03743 -11529940.19242  22610977.090    22610971.035
 04  7 22  1 41  0.0000000  0  8G10G27G28G23G 3G13G 8G19
  23115133.472    -9044480.98443  -7037696.11742  23115135.094    23115131.581
  20725443.052   -25591766.62944 -19742755.51942  20725444.998    20725439.765
  22865113.956   -11811046.93343  -9161794.99742  22865116.326    22865112.078
  24324991.740    -7030253.71143  -5426181.92942  24324993.796    24324988.548
  23481240.803    -8324787.20943  -6450387.54942  23481242.713    23481239.261
  21099802.300   -23675611.06043 -17932296.98642  21099804.971    21099798.922
  21038486.282   -24237652.15644 -18851301.48642  21038487.049    21038481.942
  22605348.990   -14843419.47243 -11552978.94542  22605350.813    22605344.729
 04  7 22  1 41 30.0000000  0  8G10G27G28G23G 3G13G 8G19
  23112102.799    -9060406.91843  -7050105.92042  23112104.480    23112100.976
  20723879.529   -25599983.09644 -19749157.96042  20723881.475    20723876.207
  22848454.737   -11898591.28143  -9230011.27942  22848457.107    22848452.880
  24345608.529    -6921911.21243  -5341759.32442  24345610.708    24345605.667
  23490473.266    -8276270.43443  -6412582.28542  23490475.230    23490471.734
  21112125.956   -23610849.91843 -17881833.77942  21112128.653    21112122.588
  21029364.059   -24285589.70844 -18888655.40942  21029364.830    21029359.700
  22599821.535   -14872466.65143 -11575613.08242  22599823.317    22599817.202
 04  7 22  1 42  0.0000000  0  8G10G27G28G23G 3G13G 8G19
  23109183.084    -9075750.11943  -7062061.66742  23109184.752    23109181.280
  20722354.605   -25607996.65444 -19755402.28942  20722356.557    20722351.273
  22831844.307   -11985879.20943  -9298027.74842  22831846.685    22831842.514
  24366251.339    -6813433.68143  -5257231.52842  24366253.382    24366248.340
  23499804.599    -8227233.82643  -6374371.96842  23499806.608    23499803.068
  21124531.890   -23545656.61244 -17831033.82842  21124534.566    21124528.447
  21020284.631   -24333302.33144 -18925834.06242  21020285.397    21020280.270
  22594393.212   -14900992.44443 -11597840.95742  22594395.017    22594388.865
 04  7 22  1 42 30.0000000  0  8G10G27G28G23G 3G13G 8G19
  23106373.999    -9090512.01643  -7073564.43042  23106375.624    23106372.193
  20720868.055   -25615808.47844 -19761489.42742  20720870.015    20720864.712
  22815282.616   -12072911.17943  -9365844.77842  22815284.944    22815280.739
  24386918.914    -6704824.36543  -5172601.00542  24386921.065    24386916.060
  23509234.228    -8177680.51143  -6335759.01942  23509236.294    23509232.773
  21137019.485   -23480033.89643 -17779899.26442  21137022.187    21137016.051
  21011247.784   -24380790.87444 -18962838.10542  21011248.582    21011243.508
  22589064.131   -14928996.70943 -11619662.43442  22589065.998    22589059.837
 04  7 22  1 43  0.0000000  0  8G10G27G28G23G 3G13G 8G19
  23103675.468    -9104693.05143  -7084614.60742  23103677.078    23103673.548
  20719419.918   -25623418.53344 -19767419.33842  20719421.864    20719416.540
  22798769.821   -12159686.27043  -9433461.63942  22798772.151    22798767.860
  24407611.574    -6596085.41543  -5087869.50642  24407613.442    24407608.388
  23518761.773    -8127612.45243  -6296744.96742  23518763.929    23518760.462
  21149588.425   -23413983.61543 -17728431.53242  21149591.123    21149585.027
  21002253.618   -24428055.27944 -18999667.49842  21002254.425    21002249.384
  22583834.482   -14956478.48443 -11641076.78442  22583836.367    22583830.239
 04  7 22  1 43 30.0000000  0  8G10G27G28G23G 3G13G 8G19
  23101088.036    -9118289.99743  -7095209.62642  23101089.641    23101086.142
  20718010.784   -25630823.53144 -19773189.46642  20718012.738    20718007.418
  22782306.644   -12246200.49643  -9500875.23742  22782308.976    22782304.643
  24428328.630    -6487215.85143  -5003036.17442  24428330.809    24428325.754
  23528387.682    -8077028.17543  -6257328.66442  23528389.786    23528386.338
  21162239.285   -23347503.13244 -17676628.58042  21162241.960    21162235.882
  20993302.765   -24475092.37044 -19036319.75742  20993303.559    20993298.512
  22578705.076   -14983433.34443 -11662080.55342  22578706.975    22578700.868
 04  7 22  1 44  0.0000000  0  8G10G27G28G23G 3G13G 8G19
  23098610.901    -9131307.46443  -7105353.10342  23098612.491    23098609.060
  20716639.826   -25638027.84644 -19778803.21942  20716641.774    20716636.475
  22765892.475   -12332457.01243  -9568088.02342  22765894.814    22765890.476
  24449069.721    -6378222.01543  -4918106.05242  24449071.780    24449066.600
  23538110.492    -8025934.23243  -6217515.23242  23538112.581    23538109.249
  21174970.854   -23280598.36643 -17624495.01842  21174973.549    21174967.468
  20984394.389   -24521906.16644 -19072798.02142  20984395.180    20984390.130
  22573675.452   -15009864.51543 -11682676.24042  22573677.330    22573671.123
 04  7 22  1 44 30.0000000  0  8G10G27G28G23G 3G13G 8G19
  23096244.428    -9143742.90243  -7115043.05042  23096246.034    23096242.645
  20715307.647   -25645028.38244 -19784258.17942  20715309.586    20715304.328
  22749527.992   -12418452.22043  -9635097.18542  22749530.354    22749526.092
  24469834.208    -6269103.12043  -4833078.45742  24469836.463    24469831.370
  23547930.549    -7974329.53343  -6177303.80142  23547932.635    23547929.382
  21187783.273   -23213268.67343 -17572030.34742  21187785.958    21187779.934
  20975529.043   -24568493.76144 -19109100.02842  20975529.832    20975524.790
  22568746.167   -15035768.02343 -11702860.76542  22568748.054    22568741.826
 04  7 22  1 45  0.0000000  0  8G10G27G28G23G 3G13G 8G19
  23093988.550    -9155597.17443  -7124280.15442  23093990.231    23093986.820
  20714014.134   -25651825.82544 -19789554.88842  20714016.080    20714010.842
  22733213.379   -12504185.86943  -9701902.54642  22733215.700    22733211.404
  24490622.366    -6159862.00143  -4747955.64842  24490624.491    24490619.333
  23557847.376    -7922216.43543  -6136696.21342  23557849.491    23557846.230
  21200676.334   -23145515.33843 -17519235.56542  21200678.997    21200672.999
  20966706.635   -24614855.71344 -19145226.20642  20966707.398    20966702.347
  22563917.361   -15061143.32943 -11722633.70742  22563919.239    22563913.047
 04  7 22  1 45 30.0000000  0  8G10G27G28G23G 3G13G 8G19
  23091843.775    -9166868.11643  -7133062.70742  23091845.433    23091841.965
  20712759.754   -25658417.59344 -19794691.33142  20712761.710    20712756.462
  22716949.156   -12589654.61943  -9768501.48542  22716951.489    22716947.156
  24511433.603    -6050498.40143  -4662737.36442  24511435.742    24511430.742
  23567860.956    -7869594.84343  -6095692.39242  23567862.999    23567859.755
  21213650.071   -23077337.90743 -17466110.31842  21213652.727    21213646.748
  20957927.677   -24660989.30444 -19181174.44242  20957928.462    20957923.373
  22559189.706   -15085987.09743 -11741992.46642  22559191.621    22559185.405
 04  7 22  1 46  0.0000000  0  8G10G27G28G23G 3G13G 8G19
  23089809.821    -9177556.82043  -7141391.56442  23089811.444    23089807.942
  20711544.322   -25664804.62244 -19799668.23342  20711546.265    20711541.036
  22700735.384   -12674858.36343  -9834893.94042  22700737.717    22700733.320
  24532267.601    -5941015.39843  -4577426.04242  24532269.784    24532264.758
  23577970.840    -7816467.32043  -6054294.35142  23577972.861    23577969.589
  21226704.114   -23008738.60243 -17412656.33742  21226706.762    21226700.771
  20949192.097   -24706895.21144 -19216945.26142  20949192.872    20949187.745
  22554563.273   -15110299.06643 -11760936.83042  22554565.180    22554558.960
 04  7 22  1 46 30.0000000  0  8G10G27G28G23G 3G13G 8G19
  23087886.378    -9187664.80543  -7149267.93142  23087888.007    23087884.430
  20710367.649   -25670987.88444 -19804486.35542  20710369.602    20710364.399
  22684571.873   -12759797.75043  -9901080.41042  22684574.216    22684569.791
  24553123.713    -5831416.01843  -4492024.04042  24553125.907    24553120.869
  23588176.330    -7762837.13243  -6012504.61642  23588178.408    23588175.001
  21239837.880   -22939720.29943 -17358875.86942  21239840.527    21239834.550
  20940499.650   -24752574.47044 -19252539.46942  20940500.405    20940495.246
  22550037.980   -15134079.45143 -11779466.98142  22550039.919    22550033.679
 04  7 22  1 47  0.0000000  0  8G10G27G28G23G 3G13G 8G19
  23086073.956    -9197188.93243  -7156689.33242  23086075.670    23086072.114
  20709230.524   -25676963.49844 -19809142.67642  20709232.477    20709227.300
  22668459.571   -12844468.00143  -9967057.14742  22668461.948    22668457.447
  24574002.345    -5721698.75143  -4406530.18742  24574004.683    24573999.468
  23598477.881    -7708702.53943  -5970321.83842  23598479.868    23598476.419
  21253051.860   -22870280.53643 -17304766.98942  21253054.508    21253048.509
  20931851.035   -24798023.07944 -19287953.95542  20931851.808    20931846.657
  22545614.776   -15157323.51443 -11797579.21442  22545616.705    22545610.470
 04  7 22  1 47 30.0000000  0  8G10G27G28G23G 3G13G 8G19
  23084372.822    -9206128.37843  -7163655.13242  23084374.485    23084371.044
  20708133.173   -25682730.18344 -19813636.19642  20708135.118    20708129.943
  22652398.994   -12928866.82543 -10032822.39642  22652401.283    22652396.787
  24594903.131    -5611864.55143  -4320945.21742  24594905.476    24594900.207
  23608875.111    -7654064.33043  -5927746.63442  23608877.090    23608873.713
  21266346.008   -22800419.56743 -17250329.89242  21266348.660    21266342.645
  20923246.589   -24843239.44144 -19323187.46642  20923247.371    20923242.238
  22541294.084   -15180029.09743 -11815271.85442  22541296.007    22541289.725
 04  7 22  1 48  0.0000000  0  8G10G27G28G23G 3G13G 8G19
  23082781.477    -9214491.10743  -7170171.54242  23082783.110    23082779.669
  20707074.084   -25688295.82144 -19817973.06042  20707076.026    20707070.829
  22636388.688   -13013001.32243 -10098381.67542  22636390.967    22636386.452
  24615824.285    -5501923.44043  -4235276.91842  24615826.723    24615821.560
  23619366.250    -7598932.52943  -5884786.80742  23619368.262    23619364.938
  21279718.457   -22730146.95243 -17195572.03542  21279721.131    21279715.088
  20914684.853   -24888231.39544 -19358246.11742  20914685.631    20914680.536
  22537074.521   -15202203.00843 -11832550.20042  22537076.437    22537070.166
 04  7 22  1 48 30.0000000  0  8G10G27G28G23G 3G13G 8G19
  23081301.422    -9222268.59643  -7176231.92542  23081303.106    23081299.708
  20706055.002   -25693651.17744 -19822146.06642  20706056.973    20706051.718
  22620430.566   -13096861.82943 -10163727.44942  22620432.828    22620428.273
  24636767.192    -5391868.55643  -4149519.99942  24636769.497    24636764.350
  23629952.895    -7543300.14543  -5841436.93842  23629954.849    23629951.502
  21293170.637   -22659455.40443 -17140487.73842  21293173.316    21293167.264
  20906167.631   -24932989.55644 -19393122.59442  20906168.401    20906163.330
  22532957.985   -15223835.35743 -11849406.55642  22532959.926    22532953.623
 04  7 22  1 49  0.0000000  0  7G10G27G28G 3G13G 8G19
  23079934.028    -9229454.70243  -7181831.49842  23079935.600    23079932.254
  20705077.213   -25698789.47144 -19826149.93042  20705079.189    20705073.918
  22604526.015   -13180440.65443 -10228853.74042  22604528.250    22604523.709
  23640635.627    -7487162.57943  -5797693.40342  23640637.609    23640634.264
  21306703.512   -22588339.59943 -17085072.85542  21306706.193    21306700.174
  20897696.207   -24977507.35844 -19427811.78642  20897696.952    20897691.876
  22528945.955   -15244918.69543 -11865835.10942  22528947.893    22528941.599
 04  7 22  1 49 30.0000000  0  7G10G27G28G 3G13G 8G19
  23078675.229    -9236070.15243  -7186986.38742  23078676.730    23078673.382
  20704136.951   -25703730.55544 -19830000.12142  20704138.899    20704133.656
  22588671.436   -13263757.03043 -10293775.53242  22588673.629    22588669.080
  23651410.164    -7430541.94643  -5753573.45642  23651412.145    23651408.835
  21320312.996   -22516821.30343 -17029344.33742  21320315.694    21320309.700
  20889266.713   -25021804.68244 -19462329.17442  20889267.478    20889262.339
  22525034.796   -15265471.89743 -11881850.56642  22525036.749    22525030.464
 04  7 22  1 50  0.0000000  0  7G10G27G28G 3G13G 8G19
  23077527.705    -9242100.15443  -7191685.08842  23077529.290    23077525.851
  20703237.044   -25708459.50344 -19833685.00942  20703238.996    20703233.764
  22572869.751   -13346795.36743 -10358480.66342  22572871.967    22572867.352
  23662278.968    -7373425.55443  -5709067.18942  23662281.052    23662277.724
  21334001.617   -22444887.14443 -16973291.77742  21334004.295    21333998.363
  20880882.069   -25065866.15444 -19496662.78142  20880882.840    20880877.698
  22521227.552   -15285479.27643 -11897440.71342  22521229.504    22521223.130
 04  7 22  1 50 30.0000000  0  7G10G27G28G 3G13G 8G19
  23076490.589    -9247549.82443  -7195931.58742  23076492.205    23076488.781
  20702376.787   -25712980.16244 -19837207.59942  20702378.724    20702373.531
  22557120.328   -13429558.93343 -10422971.69142  22557122.553    22557117.924
  23673241.046    -7315819.76243  -5664179.60942  23673243.107    23673239.717
  21347768.258   -22372543.04743 -16916919.78142  21347770.933    21347765.019
  20872541.600   -25109695.44944 -19530815.47442  20872542.372    20872537.218
  22517523.486   -15304944.13743 -11912608.11742  22517525.443    22517519.030
 04  7 22  1 51  0.0000000  0  7G10G27G28G 3G13G 8G19
  23075563.607    -9252421.29943  -7199727.55242  23075565.171    23075561.792
  20701555.794   -25717294.48444 -19840569.40842  20701557.724    20701552.562
  22541422.936   -13512048.77443 -10487249.42942  22541425.186    22541420.576
  23684295.408    -7257728.44043  -5618913.67142  23684297.526    23684294.158
  21361612.218   -22299792.48543 -16860231.05642  21361614.885    21361609.004
  20864244.974   -25153294.38544 -19564788.66342  20864245.747    20864240.609
  22513922.383   -15323867.73643 -11927353.75642  22513924.335    22513917.981
 04  7 22  1 51 30.0000000  0  7G10G27G28G 3G13G 8G19
  23074747.876    -9256707.81343  -7203067.65842  23074749.465    23074746.136
  20700775.560   -25721394.68644 -19843764.37842  20700777.473    20700772.321
  22525779.315   -13594256.35243 -10551307.22142  22525781.531    22525776.947
  23695443.186    -7199145.89143  -5573264.96142  23695445.362    23695442.080
  21375534.802   -22226629.08043 -16803220.64142  21375537.451    21375531.572
  20855993.653   -25196655.38644 -19598576.45142  20855994.412    20855989.303
  22510426.010   -15342241.31243 -11941670.81042  22510427.935    22510421.565
 04  7 22  1 52  0.0000000  0  7G10G27G28G 3G13G 8G19
  23074042.639    -9260414.05043  -7205955.67542  23074044.202    23074040.749
  20700035.303   -25725284.82944 -19846795.65842  20700037.203    20700032.071
  22510188.715   -13676185.26443 -10615147.86942  22510190.940    22510186.323
  23706683.423    -7140078.70443  -5527238.61542  23706685.547    23706682.188
  21389534.737   -22153058.99043 -16745893.32642  21389537.420    21389531.522
  20847786.942   -25239782.04044 -19632181.62842  20847787.686    20847782.578
  22507033.641   -15360068.38143 -11955562.01242  22507035.571    22507029.226
 04  7 22  1 52 30.0000000  0  7G10G27G28G 3G13G 8G19
  23073447.642    -9263540.94343  -7208392.22042  23073449.227    23073445.682
  20699334.973   -25728965.04944 -19849663.35642  20699336.894    20699331.729
  22494651.224   -13757835.21543 -10678771.14742  22494653.436    22494648.818
  23718015.369    -7080529.68043  -5480836.81842  23718017.456    23718013.978
  21403611.642   -22079084.36243 -16688250.78642  21403614.317    21403608.413
  20839624.732   -25282674.69944 -19665604.47442  20839625.467    20839620.372
  22503745.253   -15377348.66443 -11969027.15442  22503747.220    22503740.863
 04  7 22  1 53  0.0000000  0  7G10G27G28G 3G13G 8G19
  23072963.043    -9266087.64143  -7210376.68242  23072964.606    23072961.029
  20698674.882   -25732433.71744 -19852366.20942  20698676.831    20698671.644
  22479167.247   -13839203.59143 -10742175.02442  22479169.476    22479164.845
  23729438.858    -7020499.18043  -5434059.83542  23729440.944    23729437.388
  21417765.548   -22004705.14043 -16630292.98642  21417768.217    21417762.300
  20831507.362   -25325331.75744 -19698843.73442  20831508.078    20831502.974
  22500561.328   -15394079.81943 -11982064.39342  22500563.304    22500556.981
 04  7 22  1 53 30.0000000  0  8G31G10G27G28G 3G13G 8G19
  24643042.714    -5216823.61853  -4048691.97552  24643044.927    24643044.253
  23072586.248    -9268067.67443  -7211919.57342  23072587.769    23072584.256
  20698052.715   -25735703.17444 -19854913.83742  20698054.688    20698049.486
  22463734.521   -13920302.47443 -10805368.89542  22463736.827    22463732.191
  23740951.081    -6960002.08843  -5386919.27442  23740953.182    23740949.556
  21431993.767   -21929935.59943 -16572031.03442  21431996.390    21431990.473
  20823432.497   -25367765.41544 -19731908.91742  20823433.227    20823428.083
  22497479.756   -15410273.70543 -11994682.98942  22497481.654    22497475.371
 04  7 22  1 54  0.0000000  0  8G31G10G27G28G 3G13G 8G19
  24621134.339    -5331951.83443  -4138402.08742  24621136.482    24621136.127
  23072322.080    -9269456.05843  -7213001.42542  23072323.579    23072320.116
  20697473.359   -25738747.82144 -19857286.28842  20697475.326    20697470.110
  22448358.212   -14001105.57543 -10868332.30342  22448360.473    22448355.796
  23752556.529    -6899015.22343  -5339397.08442  23752558.592    23752555.017
  21446300.718   -21854752.11543 -16513446.52942  21446303.371    21446297.440
  20815405.075   -25409949.78144 -19764779.85142  20815405.775    20815400.648
  22494505.327   -15425904.21543 -12006862.58942  22494507.251    22494500.937
 04  7 22  1 54 30.0000000  0  8G31G10G27G28G 3G13G 8G19
  24599215.414    -5447136.13343  -4228155.90342  24599217.530    24599216.971
  23072168.027    -9270265.64143  -7213632.28042  23072169.554    23072166.105
  20696934.462   -25741579.80244 -19859493.02342  20696936.411    20696931.200
  22433035.907   -14081624.46243 -10931074.23342  22433038.205    22433033.496
  23764252.389    -6837553.02543  -5291504.48442  23764254.453    23764250.970
  21460683.719   -21779168.81943 -16454550.48442  21460686.387    21460680.469
  20807422.767   -25451896.99944 -19797465.99442  20807423.495    20807418.358
  22491635.962   -15440982.84543 -12018612.15342  22491637.868    22491631.570
 04  7 22  1 55  0.0000000  0  8G31G10G27G28G 3G13G 8G19
  24577287.011    -5562370.26743  -4317948.57742  24577289.138    24577288.448
  23072124.706    -9270493.40343  -7213809.77042  23072126.270    23072122.805
  20696436.783   -25744195.04144 -19861530.87742  20696438.733    20696433.539
  22417768.628   -14161854.22443 -10993590.87842  22417770.941    22417766.206
  23776038.954    -6775613.84443  -5243240.22042  23776040.950    23776037.560
  21475143.272   -21703183.31343 -16395341.03242  21475145.943    21475140.057
  20799486.432   -25493602.64944 -19829963.90042  20799487.166    20799482.024
  22488872.449   -15455505.05343 -12029928.14942  22488874.321    22488868.048
 04  7 22  1 55 30.0000000  0  8G31G10G27G28G 3G13G 8G19
  24555349.217    -5677653.46943  -4407779.47242  24555351.491    24555350.675
  23072191.633    -9270141.66443  -7213535.70142  23072193.242    23072189.781
  20695980.095   -25746594.90344 -19863400.91142  20695982.032    20695976.870
  22402556.201   -14241795.93343 -11055883.06742  22402558.439    22402553.719
  23787915.679    -6713201.48443  -5194607.26542  23787917.633    23787914.224
  21489678.818   -21626798.74843 -16335820.62642  21489681.474    21489675.614
  20791595.697   -25535068.63444 -19862275.05342  20791596.428    20791591.334
  22486214.640   -15469471.84643 -12040811.34142  22486216.530    22486210.234
 04  7 22  1 56  0.0000000  0  8G31G10G27G28G 3G13G 8G19
  24533401.678    -5792988.30243  -4497650.59042  24533404.000    24533403.080
  23072367.774    -9269216.28143  -7212814.62642  23072369.373    23072365.883
  20695563.472   -25748784.32244 -19865106.95642  20695565.400    20695560.237
  22387397.775   -14321453.74443 -11117954.03342  22387400.006    22387395.276
  23799881.232    -6650323.43443  -5145611.41842  23799883.058    23799879.389
  21504289.011   -21550021.93443 -16275994.56942  21504291.650    21504285.803
  20783749.827   -25576299.10344 -19894402.68442  20783750.532    20783745.423
  22483661.760   -15482887.72243 -12051265.25342  22483663.600    22483657.267
 04  7 22  1 56 30.0000000  0  8G31G10G27G28G 3G13G 8G19
  24511445.565    -5908367.61243  -4587556.37642  24511447.998    24511446.942
  23072653.827    -9267713.19843  -7211643.40142  23072655.449    23072651.900
  20695187.894   -25750758.12144 -19866644.98942  20695189.806    20695184.636
  22372294.428   -14400822.19543 -11179799.52042  22372296.627    22372291.903
  23811935.614    -6586977.00443  -5096250.60542  23811937.591    23811933.877
  21518974.384   -21472850.00443 -16215860.63642  21518977.044    21518971.165
  20775949.741   -25617288.88944 -19926342.77442  20775950.463    20775945.317
  22481214.666   -15495746.95243 -12061285.42042  22481216.484    22481210.203
 04  7 22  1 57  0.0000000  0  8G31G10G27G28G 3G13G 8G19
  24489481.709    -6023787.69843  -4677493.94142  24489484.128    24489483.134
  23073049.863    -9265632.09443  -7210021.76742  23073051.480    23073047.919
  20694853.596   -25752514.71944 -19868013.76842  20694855.523    20694850.365
  22357246.546   -14479899.21443 -11241417.91942  22357248.762    22357244.006
  23824078.924    -6523163.24343  -5046525.61242  23824080.942    23824077.187
  21533734.859   -21395283.33943 -16155419.11142  21533737.528    21533731.641
  20768195.702   -25658036.63944 -19958094.25842  20768196.415    20768191.274
  22478873.841   -15508047.85043 -12070870.52142  22478875.680    22478869.394
 04  7 22  1 57 30.0000000  0  8G31G10G27G28G 3G13G 8G19
  24467510.385    -6139247.29243  -4767462.29242  24467512.838    24467511.761
  23073555.604    -9262974.72543  -7207951.10342  23073557.187    23073553.630
  20694560.457   -25754055.16944 -19869214.11742  20694562.385    20694557.247
  22342254.073   -14558685.07543 -11302809.43942  22342256.284    22342251.522
  23836310.661    -6458885.54043  -4996439.12542  23836312.582    23836308.963
  21548569.930   -21317324.75043 -16094672.19142  21548572.571    21548566.696
  20760487.534   -25698543.38644 -19989657.95042  20760488.256    20760483.076
  22476639.203   -15519790.83043 -12080020.88242  22476641.052    22476634.729
 04  7 22  1 58  0.0000000  0  8G31G10G27G28G 3G13G 8G19
  24445532.163    -6254742.59843  -4857458.47342  24445534.648    24445533.548
  23074170.909    -9259740.77743  -7205431.15642  23074172.542    23074169.059
  20694308.761   -25755377.87344 -19870244.78942  20694310.692    20694305.546
  22327317.331   -14637177.93843 -11363972.66042  22327319.536    22327314.778
  23848630.490    -6394144.82843  -4945991.85642  23848632.442    23848628.849
  21563479.460   -21238974.78643 -16033620.30942  21563482.093    21563476.251
  20752825.554   -25738807.37144 -20021032.47442  20752826.288    20752821.077
  22474510.996   -15530974.29143 -12088735.25042  22474512.877    22474506.575
 04  7 22  1 58 30.0000000  0  8G31G10G27G28G 3G13G 8G19
  24423547.022    -6370275.06443  -4947483.61342  24423549.495    24423548.282
  23074895.214    -9255934.96843  -7202465.60442  23074896.772    23074893.248
  20694097.804   -25756486.56144 -19871108.69442  20694099.739    20694094.583
  22312435.784   -14715380.81143 -11424909.90442  22312437.977    22312433.223
  23861037.220    -6328947.33343  -4895188.64642  23861039.186    23861035.553
  21578462.474   -21160238.84343 -15972267.66342  21578465.078    21578459.259
  20745209.133   -25778831.87944 -20052220.39342  20745209.875    20745204.655
  22472488.758   -15541601.31843 -12097016.03842  22472490.621    22472484.304
 04  7 22  1 59  0.0000000  0  8G31G10G27G28G 3G13G 8G19
  24401556.465    -6485835.56343  -5037530.59942  24401558.903    24401557.747
  23075729.348    -9251551.54943  -7199049.96642  23075730.939    23075727.405
  20693928.896   -25757374.17644 -19871800.33742  20693930.827    20693925.687
  22297610.757   -14793286.47643 -11485615.56942  22297612.964    22297608.193
  23873531.660    -6263288.84043  -4844026.22442  23873533.669    23873530.073
  21593519.777   -21081112.21743 -15910610.58142  21593522.419    21593516.585
  20737639.505   -25818610.38344 -20083216.61742  20737640.245    20737635.049
  22470573.757   -15551664.90043 -12104857.77442  22470575.614    22470569.270
 04  7 22  1 59 30.0000000  0  8G31G10G27G28G 3G13G 8G19
  24379560.177    -6601426.26243  -5127601.11242  24379562.604    24379561.377
  23076672.366    -9246595.97543  -7195188.49042  23076673.919    23076670.446
  20693801.235   -25758045.04844 -19872323.09842  20693803.166    20693797.996
  22282841.620   -14870898.63543 -11546092.52742  22282843.804    22282839.038
  23886112.542    -6197175.89543  -4792509.68142  23886114.585    23886110.923
  21608650.204   -21001601.31943 -15848654.07642  21608652.867    21608647.028
  20730115.996   -25858146.51844 -20114023.98542  20730116.732    20730111.594
  22468765.173   -15561168.99243 -12112263.54342  22468767.066    22468760.715
 04  7 22  2  0  0.0000000  0  8G31G10G27G28G 3G13G 8G19
  24357559.006    -6717042.32743  -5217691.40442  24357561.375    24357560.277
  23077724.530    -9241066.89043  -7190880.11242  23077726.106    23077722.598
  20693715.303   -25758496.67044 -19872675.01242  20693717.243    20693712.022
  22268128.902   -14948214.28243 -11606338.44142  22268131.096    22268126.263
  23898779.773    -6130608.82843  -4740639.25642  23898781.913    23898778.284
  21623853.882   -20921705.47843 -15786397.61242  21623856.566    21623850.752
  20722639.021   -25897438.03144 -20144640.73742  20722639.770    20722634.691
  22467063.507   -15570111.05843 -12119231.37742  22467065.388    22467059.077
 04  7 22  2  0 30.0000000  0  8G31G10G27G28G 3G13G 8G19
  24335553.646    -6832680.44843  -5307798.88942  24335555.946    24335554.861
  23078885.734    -9234964.57043  -7186125.08142  23078887.283    23078883.756
  20693671.270   -25758727.95144 -19872855.23142  20693673.202    20693667.998
  22253472.883   -15025231.86943 -11666352.08842  22253475.071    22253470.259
  23911533.133    -6063589.34243  -4688416.31442  23911535.243    23911531.899
  21639130.613   -20841425.85843 -15723842.09742  21639133.296    21639127.483
  20715208.958   -25936483.27544 -20175065.59342  20715209.692    20715204.605
  22465469.059   -15578489.83143 -12125760.27542  22465470.903    22465464.618
 04  7 22  2  1  0.0000000  0  8G31G10G27G28G 3G13G 8G19
  24313544.369    -6948339.55043  -5397922.70342  24313546.634    24313545.443
  23080155.590    -9228291.16343  -7180925.03442  23080157.214    23080153.698
  20693668.965   -25758740.04544 -19872864.65442  20693670.875    20693665.673
  22238873.445   -15101952.16343 -11726134.07842  22238875.640    22238870.823
  23924372.017    -5996120.79543  -4635843.44442  23924374.135    23924370.844
  21654479.777   -20760765.56743 -15660989.96142  21654482.444    21654476.663
  20707825.415   -25975284.01444 -20205299.92542  20707826.143    20707821.037
  22463981.657   -15586305.89443 -12131850.69842  22463983.520    22463977.250
 04  7 22  2  1 30.0000000  0  8G31G10G27G28G 3G13G 8G19
  24291531.726    -7064015.68943  -5488059.81142  24291534.134    24291532.643
  23081534.237    -9221046.54843  -7175279.89642  23081535.847    23081532.333
  20693708.713   -25758531.25344 -19872701.96242  20693710.613    20693705.408
  22224330.899   -15178373.22843 -11785682.90542  22224333.095    22224328.334
  23937296.049    -5928204.58343  -4582921.75542  23937298.212    23937294.934
  21669901.271   -20679725.02143 -15597841.52142  21669903.943    21669898.154
  20700488.854   -26013837.88344 -20235341.89542  20700489.590    20700484.451
  22462601.719   -15593557.77143 -12137501.51042  22462603.540    22462597.302
 04  7 22  2  2  0.0000000  0  8G31G10G27G28G 3G13G 8G19
  24269515.964    -7179709.14143  -5578210.39042  24269518.367    24269516.801
  23083020.840    -9213234.21643  -7169192.37842  23083022.478    23083018.924
  20693790.025   -25758103.90444 -19872368.96242  20693791.927    20693786.742
  22209845.035   -15254496.80743 -11844999.92242  22209847.243    22209842.445
  23950304.414    -5859845.59243  -4529655.03342  23950306.525    23950303.346
  21685394.300   -20598308.77843 -15534400.33542  21685396.947    21685391.157
  20693198.796   -26052147.37144 -20265193.43542  20693199.535    20693194.373
  22461328.641   -15600247.53243 -12142714.29542  22461330.478    22461324.295
 04  7 22  2  2 30.0000000  0  8G31G10G27G28G 3G13G 8G19
  24247498.570    -7295410.59243  -5668367.24742  24247500.922    24247499.419
  23084616.670    -9204848.59443  -7162658.14642  23084618.217    23084614.588
  20693914.269   -25757451.03544 -19871860.23842  20693916.168    20693910.966
  22195417.217   -15330315.46043 -11904079.34842  22195419.390    22195414.587
  23963397.863    -5791039.64643  -4476040.05642  23963399.944    23963396.714
  21700959.788   -20516511.76843 -15470662.44542  21700962.418    21700956.629
  20685956.569   -26090205.41944 -20294849.04842  20685957.314    20685952.164
  22460163.925   -15606368.28643 -12147483.70542  22460165.786    22460159.527
 04  7 22  2  3  0.0000000  0  8G31G10G27G28G 3G13G 8G19
  24225478.866    -7411123.66043  -5758533.07442  24225481.333    24225479.853
  23086320.125    -9195897.02643  -7155682.90442  23086321.621    23086318.039
  20694080.292   -25756578.54844 -19871180.38342  20694082.202    20694076.999
  22181046.311   -15405834.97643 -11962925.66542  22181048.499    22181043.616
  23976574.684    -5721795.18243  -4422083.36842  23976576.774    23976573.532
  21716596.110   -20434342.31143 -15406634.33642  21716598.782    21716592.974
  20678761.196   -26128017.48144 -20324312.98342  20678761.900    20678756.780
  22459106.389   -15611925.86043 -12151814.26742  22459108.237    22459101.960
 04  7 22  2  3 30.0000000  0  8G31G10G27G28G 3G13G 8G19
  24203458.400    -7526841.21243  -5848702.44142  24203460.926    24203459.419
  23088131.823    -9186376.01143  -7148263.95642  23088133.327    23088129.816
  20694289.077   -25755481.39144 -19870325.45742  20694290.998    20694285.800
  22166733.361   -15481049.91343 -12021534.65442  22166735.562    22166730.645
  23989835.308    -5652109.78943  -4367783.11742  23989837.415    23989834.236
  21732303.882   -20351797.57343 -15342313.80042  21732306.560    21732300.767
  20671613.424   -26165579.25644 -20353581.89142  20671614.117    20671609.014
  22458156.869   -15616915.32443 -12155702.15542  22458158.790    22458152.462
 04  7 22  2  4  0.0000000  0  8G31G10G27G28G 3G13G 8G19
  24181437.116    -7642563.10043  -5938875.24142  24181439.618    24181438.111
  23090051.292    -9176288.93743  -7140403.90542  23090052.781    23090049.369
  20694540.171   -25754161.80744 -19869297.21042  20694542.115    20694536.905
  22152478.059   -15555961.96043 -12079907.61742  22152480.271    22152475.317
  24003178.995    -5581988.32043  -4313143.05842  24003181.045    24003177.924
  21748082.298   -20268881.58943 -15277703.98642  21748084.961    21748079.193
  20664513.026   -26202892.06944 -20382656.80442  20664513.694    20664508.614
  22457315.166   -15621338.47143 -12159148.75242  22457317.099    22457310.728
 04  7 22  2  4 30.0000000  0  9G31G10G27G28G29G 3G13G 8G19
  24159416.228    -7758283.24443  -6029046.60242  24159418.677    24159417.205
  23092078.940    -9165633.65743  -7132101.10642  23092080.420    23092076.994
  20694834.337   -25752615.95344 -19868092.64242  20694836.281    20694831.074
  22138281.129   -15630567.04043 -12138041.38442  22138283.380    22138278.381
  24756494.683    -5008431.62053  -3709698.58252  24756497.358    24756494.136
  24016605.697    -5511429.90343  -4258162.51842  24016607.719    24016604.741
  21763931.707   -20185592.89743 -15212803.75442  21763934.341    21763928.528
  20657460.703   -26239952.19044 -20411534.81542  20657461.392    20657456.280
  22456581.877   -15625192.05343 -12162151.53442  22456583.780    22456577.389
 04  7 22  2  5  0.0000000  0  9G31G10G27G28G29G 3G13G 8G19
  24137395.273    -7874003.79043  -6119218.34542  24137397.620    24137396.161
  23094213.573    -9154416.13243  -7123360.19042  23094215.102    23094211.625
  20695170.740   -25750848.14844 -19866715.12442  20695172.666    20695167.462
  22124141.820   -15704869.37543 -12195939.24842  22124144.065    22124139.039
  24737232.515    -5109654.79743  -3788573.68942  24737235.253    24737231.755
  24030114.285    -5440441.61043  -4202847.01542  24030116.248    24030113.440
  21779850.730   -20101938.09343 -15147618.23642  21779853.350    21779847.582
  20650455.596   -26276764.26344 -20440219.54542  20650456.278    20650451.160
  22455956.157   -15628480.11243 -12164713.64542  22455958.026    22455951.652
 04  7 22  2  5 30.0000000  0  9G31G10G27G28G29G 3G13G 8G19
  24115375.005    -7989719.99743  -6209386.64442  24115377.315    24115375.984
  23096455.372    -9142635.30243  -7114180.33442  23096456.911    23096453.491
  20695549.805   -25748856.03144 -19865162.81642  20695551.764    20695546.550
  22110060.653   -15778866.01543 -12253598.91342  22110062.907    22110057.887
  24717984.400    -5210804.05143  -3867391.21242  24717987.221    24717983.563
  24043704.608    -5369023.96843  -4147196.95242  24043706.579    24043703.867
  21795839.513   -20017916.80543 -15082147.14942  21795842.124    21795836.374
  20643498.170   -26313325.78244 -20468709.03242  20643498.857    20643493.712
  22455438.482   -15631200.40943 -12166833.34942  22455440.345    22455433.951
 04  7 22  2  6  0.0000000  0  9G31G10G27G28G29G 3G13G 8G19
  24093356.678    -8105426.49243  -6299547.43542  24093358.968    24093357.582
  23098804.706    -9130289.34543  -7104560.12842  23098806.269    23098802.897
  20695972.178   -25746636.38444 -19863433.22042  20695974.145    20695968.940
  22096038.395   -15852553.30443 -12311017.53442  22096040.614    22096035.593
  24698751.078    -5311874.89843  -3946147.64342  24698754.013    24698750.347
  24057376.813    -5297176.36743  -4091211.85342  24057378.765    24057376.043
  21811898.162   -19933528.26243 -15016389.88842  21811900.775    21811895.025
  20636589.101   -26349633.12244 -20497000.45642  20636589.792    20636584.644
  22455029.468   -15633349.84843 -12168508.23342  22455031.296    22455024.871
 04  7 22  2  6 30.0000000  0  9G31G10G27G28G29G 3G13G 8G19
  24071339.511    -8221126.49043  -6389703.10342  24071341.891    24071340.372
  23101260.284    -9117385.49143  -7094505.19142  23101261.838    23101258.431
  20696436.822   -25744194.76644 -19861530.65642  20696438.748    20696433.544
  22082073.956   -15925936.76243 -12368199.40742  22082076.159    22082071.139
  24679532.102    -5412871.35743  -4024846.12642  24679535.014    24679531.219
  24071129.189    -5224907.16443  -4034898.22642  24071131.121    24071128.421
  21828025.148   -19848780.39743 -14950352.64342  21828027.755    21828022.056
  20629727.371   -26385691.76844 -20525098.09842  20629728.072    20629722.922
  22454727.967   -15634934.29743 -12169742.86342  22454729.804    22454723.315
 04  7 22  2  7  0.0000000  0  9G31G10G27G28G29G 3G13G 8G19
  24049325.813    -8336808.91543  -6479845.13742  24049328.140    24049326.668
  23103823.381    -9103916.24143  -7084009.69142  23103824.988    23103821.583
  20696945.390   -25741522.16444 -19859448.10842  20696947.324    20696942.090
  22068169.070   -15999007.19343 -12425137.36342  22068171.281    22068166.270
  24660329.391    -5513782.74043  -4103478.30442  24660332.180    24660328.490
  24084962.950    -5152210.25943  -3978251.33842  24084964.867    24084962.158
  21844221.851   -19763666.21343 -14884029.95342  21844224.442    21844218.807
  20622914.668   -26421492.74844 -20552994.95942  20622915.358    20622910.224
  22454535.641   -15635944.69143 -12170530.17942  22454537.491    22454531.016
 04  7 22  2  7 30.0000000  0  9G31G10G27G28G29G 3G13G 8G19
  24027315.036    -8452476.48143  -6569975.58042  24027317.268    24027315.622
  23106492.758    -9089888.68843  -7073079.16742  23106494.367    23106490.943
  20697496.897   -25738623.91644 -19857189.73442  20697498.857    20697493.605
  22054322.851   -16071769.60743 -12481835.30842  22054325.037    22054319.986
  24641142.239    -5614612.85843  -4182047.18242  24641144.935    24641141.169
  24098876.753    -5079093.68243  -3921277.45942  24098878.541    24098875.678
  21860486.831   -19678193.31743 -14817427.74942  21860489.424    21860483.811
  20616150.005   -26457041.16544 -20580695.02342  20616150.728    20616145.571
  22454451.522   -15636386.60843 -12170874.52342  22454453.365    22454446.943
 04  7 22  2  8  0.0000000  0  9G31G10G27G28G29G 3G13G 8G19
  24005307.648    -8568125.08843  -6660091.23842  24005309.954    24005308.262
  23109268.459    -9075302.32543  -7061713.18742  23109270.055    23109266.670
  20698091.778   -25735497.83044 -19854753.82442  20698093.725    20698088.488
  22040535.678   -16144221.62743 -12538291.38842  22040537.863    22040532.780
  24621971.058    -5715358.07343  -4260549.90142  24621973.718    24621969.947
  24112870.125    -5005558.30743  -3863977.22642  24112871.950    24112868.977
  21876820.019   -19592361.94543 -14750546.21042  21876822.618    21876817.019
  20609433.897   -26492334.68044 -20608196.45842  20609434.600    20609429.430
  22454475.999   -15636258.27743 -12170774.51542  22454477.776    22454471.340
 04  7 22  2  8 30.0000000  0  9G31G10G27G28G29G 3G13G 8G19
  23983305.191    -8683748.58043  -6750187.35242  23983307.391    23983305.750
  23112150.890    -9060155.34443  -7049910.35742  23112152.476    23112149.065
  20698730.709   -25732140.26344 -19852137.53442  20698732.646    20698727.423
  22026808.295   -16216359.16043 -12594502.41342  22026810.482    22026805.400
  24602817.012    -5816013.11243  -4338982.35642  24602819.714    24602815.878
  24126943.315    -4931603.30043  -3806350.01542  24126945.249    24126942.204
  21893221.683   -19506170.65943 -14683384.21942  21893224.292    21893218.704
  20602766.944   -26527369.85344 -20635496.58842  20602767.628    20602762.432
  22454609.543   -15635556.19343 -12170227.42442  22454611.324    22454604.937
 04  7 22  2  9  0.0000000  0  9G31G10G27G28G29G 3G13G 8G19
  23961307.250    -8799348.19243  -6840264.82842  23961309.427    23961307.705
  23115139.066    -9044452.46943  -7037674.36942  23115140.649    23115137.232
  20699413.019   -25728554.65944 -19849343.55542  20699414.944    20699409.755
  22013140.206   -16288185.49243 -12650470.93842  22013142.350    22013137.250
  24583679.732    -5916579.86443  -4417346.02842  24583682.486    24583678.578
  24141095.151    -4857234.86743  -3748400.63642  24141097.186    24141094.091
  21909690.805   -19419625.17743 -14615946.23242  21909693.404    21909687.795
  20596148.571   -26562149.69844 -20662597.76042  20596149.255    20596144.030
  22454851.543   -15634284.14543 -12169236.20642  22454853.319    22454847.012
 04  7 22  2  9 30.0000000  0  9G31G10G27G28G29G 3G13G 8G19
  23939314.099    -8914922.97843  -6930322.97142  23939316.274    23939314.374
  23118232.477    -9028196.72843  -7025007.56042  23118234.032    23118230.577
  20700138.435   -25724742.37444 -19846372.94342  20700140.366    20700135.190
  21999531.119   -16359701.68643 -12706197.79942  21999533.231    21999528.116
  24564559.192    -6017058.22243  -4495640.81442  24564562.002    24564558.162
  24155324.859    -4782457.47143  -3690132.60742  24155326.903    24155323.793
  21926226.566   -19332729.40243 -14548235.28842  21926229.148    21926223.560
  20589578.544   -26596675.37844 -20689500.88042  20589579.229    20589573.992
  22455201.822   -15632443.71943 -12167802.11142  22455203.590    22455197.259
 04  7 22  2 10  0.0000000  0  9G31G10G27G28G29G 3G13G 8G19
  23917327.285    -9030463.59743  -7020354.49642  23917329.521    23917327.644
  23121432.027    -9011382.95943  -7011905.94942  23121433.606    23121430.127
  20700908.385   -25720696.30844 -19843220.16342  20700910.295    20700905.127
  21985982.333   -16430900.63343 -12761677.45042  21985984.477    21985979.361
  24545457.217    -6117439.52443  -4573859.99742  24545460.044    24545456.171
  24169633.227    -4707266.68543  -3631542.43842  24169635.245    24169632.162
  21942830.005   -19245477.97943 -14480247.22242  21942832.592    21942827.007
  20583058.169   -26630940.06244 -20716200.62842  20583058.857    20583053.631
  22455661.428   -15630028.29443 -12165919.95142  22455663.232    22455656.887
 04  7 22  2 10 30.0000000  0  9G31G10G27G28G29G 3G13G 8G19
  23895346.329    -9145973.58643  -7110362.14442  23895348.618    23895346.612
  23124736.198    -8994019.03443  -6998375.63742  23124737.847    23124734.360
  20701721.681   -25716422.46444 -19839889.89942  20701723.594    20701718.403
  21972492.957   -16501787.76643 -12816914.13642  21972495.100    21972489.930
  24526373.056    -6217727.96043  -4652006.79142  24526375.735    24526371.856
  24184018.741    -4631671.24543  -3572636.94242  24184020.745    24184017.606
  21959499.431   -19157879.70543 -14411988.87842  21959502.002    21959496.463
  20576586.407   -26664949.39344 -20742701.39842  20576587.094    20576581.872
  22456229.296   -15627043.95843 -12163594.48742  22456231.096    22456224.767
 04  7 22  2 11  0.0000000  0  9G31G10G27G28G29G 3G13G 8G19
  23873372.615    -9261445.60343  -7200340.21842  23873374.843    23873372.794
  23128145.816    -8976101.80243  -6984414.16542  23128147.410    23128143.914
  20702579.307   -25711915.56144 -19836378.03042  20702581.213    20702576.041
  21959063.801   -16572358.06043 -12871903.92642  21959065.973    21959060.802
  24507307.693    -6317916.97243  -4730076.14042  24507310.315    24507306.385
  24198481.565    -4555669.18443  -3513414.61242  24198483.473    24198480.391
  21976235.362   -19069931.86243 -14343458.14142  21976237.935    21976232.442
  20570164.101   -26698698.80144 -20768999.63242  20570164.786    20570159.565
  22456906.314   -15623486.16143 -12160822.16642  22456908.120    22456901.833
 04  7 22  2 11 30.0000000  0  9G31G10G27G28G29G 3G13G 8G19
  23851406.557    -9376877.42443  -7290286.96342  23851408.678    23851406.801
  23131660.240    -8957633.01843  -6970022.93442  23131661.826    23131658.453
  20703481.251   -25707175.77944 -19832684.70342  20703483.171    20703477.970
  21945694.987   -16642611.37543 -12926646.73042  21945697.161    21945691.984
  24488261.479    -6418005.01943  -4808066.79042  24488264.208    24488260.272
  24213021.032    -4479263.46743  -3453877.73742  24213023.065    24213019.874
  21993037.404   -18981636.63143 -14274656.72042  21993039.980    21993034.532
  20563791.477   -26732187.12544 -20795094.42342  20563792.167    20563786.942
  22457692.453   -15619355.21543 -12157603.24342  22457694.212    22457687.944
 04  7 22  2 12  0.0000000  0  9G31G10G27G28G29G 3G13G 8G19
  23829448.547    -9492267.26043  -7380200.99342  23829450.573    23829448.686
  23135279.239    -8938615.04843  -6955203.76142  23135280.818    23135277.484
  20704427.428   -25702203.54444 -19828810.23142  20704429.337    20704424.169
  21932386.429   -16712548.10643 -12981142.83242  21932388.625    21932383.460
  24469234.749    -6517991.01143  -4885977.91442  24469237.367    24469233.484
  24227636.738    -4402457.51743  -3394028.98442  24227638.784    24227635.586
  22009905.040   -18892996.87743 -14205586.82942  22009907.643    22009902.165
  20557468.391   -26765415.19544 -20820986.41542  20557469.082    20557463.853
  22458587.412   -15614652.15643 -12153938.51442  22458589.195    22458582.916
 04  7 22  2 12 30.0000000  0  9G31G10G27G28G29G 3G13G 8G19
  23807499.482    -9607609.87043  -7470078.21442  23807501.589    23807499.522
  23139003.091    -8919046.68243  -6939955.71842  23139004.624    23139001.253
  20705418.433   -25696995.96844 -19824752.38142  20705420.308    20705415.152
  21919138.755   -16782165.02343 -13035389.72842  21919140.929    21919135.756
  24450228.064    -6617870.61243  -4963806.14142  24450230.752    24450227.021
  24242328.638    -4325251.39743  -3333868.42042  24242330.669    24242327.478
  22026838.289   -18804012.32243 -14136248.26142  22026840.910    22026835.404
  20551195.283   -26798380.54044 -20846673.68642  20551195.972    20551190.751
  22459591.680   -15609374.62643 -12149826.15142  22459593.462    22459587.176
 04  7 22  2 13  0.0000000  0  9G31G10G27G28G29G 3G13G 8G19
  23785558.831    -9722907.93243  -7559920.74842  23785561.068    23785558.884
  23142830.181    -8898934.94443  -6924284.25242  23142831.772    23142828.407
  20706453.209   -25691558.15644 -19820515.13042  20706455.105    20706449.956
  21905950.922   -16851467.18743 -13089391.36842  21905953.142    21905947.942
  24431241.160    -6717647.12543  -5041554.01042  24431243.861    24431240.073
  24257095.127    -4247653.00843  -3273402.18842  24257097.145    24257094.099
  22043835.748   -18714690.31843 -14066646.75342  22043838.364    22043832.854
  20544971.296   -26831087.74144 -20872159.80842  20544972.011    20544966.774
  22460704.247   -15603528.03243 -12145270.35142  22460706.045    22460699.717
 04  7 22  2 13 30.0000000  0  9G31G10G27G28G29G 3G13G 8G19
  23763628.455    -9838152.81943  -7649721.84542  23763630.618    23763628.348
  23146761.512    -8878275.43743  -6908185.95342  23146763.127    23146759.819
  20707532.985   -25685883.80144 -19816093.55342  20707534.882    20707529.738
  21892824.286   -16920448.05343 -13143142.64242  21892826.503    21892821.266
  24412275.374    -6817312.69243  -5119215.42042  24412278.070    24412274.391
  24271936.811    -4169659.27943  -3212627.88642  24271938.768    24271936.058
  22060898.095   -18625026.86643 -13996779.18742  22060900.785    22060895.262
  20538797.692   -26863530.18844 -20897439.62142  20538798.405    20538793.178
  22461926.279   -15597106.49243 -12140266.54442  22461928.070    22461921.689
 04  7 22  2 14  0.0000000  0  9G31G10G27G28G29G 3G13G 8G19
  23741708.304    -9953343.61843  -7739480.79142  23741710.465    23741708.070
  23150796.546    -8857071.74943  -6891663.62442  23150798.115    23150794.785
  20708657.521   -25679974.20444 -19811488.67142  20708659.464    20708654.281
  21879758.477   -16989109.06843 -13196644.68542  21879760.710    21879755.451
  24393330.804    -6916866.95043  -5196790.10942  24393333.395    24393329.829
  24286852.994    -4091274.36643  -3151548.77942  24286854.957    24286852.316
  22078024.732   -18535026.02143 -13926648.71642  22078027.387    22078021.894
  20532674.256   -26895709.12044 -20922514.10142  20532674.962    20532669.733
  22463257.218   -15590112.17943 -12134816.42842  22463259.033    22463252.676
 04  7 22  2 14 30.0000000  0  9G31G10G27G28G29G 3G13G 8G19
  23719798.775   -10068478.20243  -7829195.94542  23719800.966    23719798.644
  23154934.620    -8835325.56443  -6874718.55642  23154936.257    23154932.945
  20709826.851   -25673829.46444 -19806700.56942  20709828.779    20709823.599
  21866753.577   -17057449.94343 -13249897.26442  21866755.846    21866750.551
  24374407.705    -7016308.25443  -5274276.74542  24374410.184    24374406.651
  24301843.064    -4012501.19643  -3090167.14342  24301845.046    24301842.280
  22095215.109   -18444690.11243 -13856257.15442  22095217.770    22095212.297
  20526600.912   -26927624.63344 -20947383.31542  20526601.618    20526596.392
  22464697.069   -15582545.58443 -12128920.37642  22464698.909    22464692.541
 04  7 22  2 15  0.0000000  0  9G31G10G27G28G29G 3G13G 8G19
  23697900.937   -10183551.24443  -7918863.13642  23697903.222    23697900.890
  23159176.222    -8813035.89743  -6857350.00442  23159177.813    23159174.563
  20711041.484   -25667446.69244 -19801726.98242  20711043.379    20711038.188
  21853810.181   -17125467.82243 -13302898.17042  21853812.421    21853807.112
  24355506.918    -7115632.48043  -5351672.15742  24355509.252    24355505.882
  24316906.977    -3933340.13743  -3028483.25742  24316908.933    24316906.083
  22112469.377   -18354018.54243 -13785604.04242  22112472.004    22112466.619
  20520578.254   -26959273.74044 -20972044.94242  20520578.978    20520573.745
  22466246.308   -15574404.37743 -12122576.57842  22466248.137    22466241.755
 04  7 22  2 15 30.0000000  0  9G31G10G27G28G29G 3G13G 8G19
  23676014.879   -10298562.72743  -8008482.37042  23676017.197    23676014.804
  23163520.346    -8790207.45943  -6839561.62542  23163521.913    23163518.741
  20712300.910   -25660828.28144 -19796569.78042  20712302.800    20712297.595
  21840927.804   -17193164.96343 -13355649.14142  21840930.044    21840924.729
  24336628.387    -7214840.21343  -5428976.80342  24336630.588    24336627.198
  24332043.799    -3853796.31943  -2966501.13942  24332045.617    24332042.733
  22129786.573   -18263016.36443 -13714693.31242  22129789.201    22129783.814
  20514605.891   -26990658.73144 -20996500.76742  20514606.594    20514601.333
  22467904.254   -15565691.50643 -12115787.32242  22467906.096    22467899.733
 04  7 22  2 16  0.0000000  0  9G31G10G27G28G29G 3G13G 8G19
  23654141.484   -10413507.73743  -8098049.81742  23654143.767    23654141.461
  23167967.134    -8766839.76643  -6821353.06342  23167968.668    23167965.464
  20713605.670   -25653971.59944 -19791226.91242  20713607.562    20713602.374
  21828106.954   -17260538.79343 -13408148.17942  21828109.188    21828103.897
  24317772.715    -7313927.25743  -5506187.40342  24317774.868    24317771.422
  24347253.267    -3773870.23143  -2904221.11542  24347255.033    24347252.115
  22147166.690   -18171683.48043 -13643524.87942  22147169.305    22147163.937
  20508684.298   -27021776.78644 -21020748.58642  20508685.007    20508679.753
  22469671.339   -15556405.32943 -12108551.32742  22469673.165    22469666.823
 04  7 22  2 16 30.0000000  0  9G31G10G27G28G29G 3G13G 8G19
  23632280.709   -10528386.07343  -8187565.30342  23632283.027    23632280.731
  23172515.759    -8742936.85243  -6802727.42342  23172517.335    23172514.031
  20714955.472   -25646878.60844 -19785699.90942  20714957.338    20714952.123
  21815347.196   -17327591.36443 -13460396.89242  21815349.423    21815344.183
  24298939.919    -7412894.01343  -5583304.27142  24298942.178    24298938.626
  24362534.489    -3693567.15443  -2841647.32442  24362536.297    24362533.212
  22164608.874   -18080024.41443 -13572102.29042  22164611.472    22164606.114
  20502813.037   -27052630.33644 -21044790.30242  20502813.748    20502808.532
  22471546.998   -15546548.56643 -12100870.72242  22471548.819    22471542.490
 04  7 22  2 17  0.0000000  0  9G31G10G27G28G29G 3G13G 8G19
  23610433.846   -10643191.52543  -8277023.98542  23610436.124    23610433.968
  23177166.503    -8718497.01343  -6783683.42742  23177168.121    23177164.775
  20716350.898   -25639545.59544 -19779985.88142  20716352.757    20716347.563
  21802649.336   -17394318.60543 -13512392.09542  21802651.561    21802646.359
  24280130.858    -7511734.96943  -5660323.10742  24280133.466    24280129.777
  24377887.704    -3612886.28243  -2778779.17342  24377889.526    24377886.378
  22182113.400   -17988037.77143 -13500424.44142  22182115.980    22182110.692
  20496992.941   -27083215.21544 -21068622.66642  20496993.626    20496988.400
  22473531.858   -15536117.85843 -12092742.89742  22473533.695    22473527.401
 04  7 22  2 17 30.0000000  0  9G31G10G27G28G29G 3G13G 8G19
  23588601.278   -10757922.12343  -8366424.35742  23588603.589    23588601.398
  23181918.967    -8693522.61843  -6764222.88242  23181920.571    23181917.222
  20717791.910   -25631972.95444 -19774085.12742  20717793.778    20717788.593
  21790013.380   -17460720.82443 -13564134.02442  21790015.581    21790010.395
  24261346.157    -7610448.83343  -5737242.92542  24261348.736    24261344.953
  24393312.020    -3531831.03443  -2715619.28642  24393313.846    24393310.854
  22199679.798   -17895726.07043 -13428493.30642  22199682.379    22199677.073
  20491223.990   -27113531.28444 -21092245.56742  20491224.681    20491219.432
  22475625.711   -15525114.40843 -12084168.76842  22475627.540    22475621.306
 04  7 22  2 18  0.0000000  0  9G31G10G27G28G29G 3G13G 8G19
  23566784.097   -10872572.27643  -8455762.05442  23566786.391    23566784.106
  23186773.436    -8668012.65643  -6744345.02342  23186774.987    23186771.635
  20719279.152   -25624157.50444 -19767995.17542  20719281.024    20719275.818
  21777439.889   -17526794.94743 -13615620.30142  21777442.073    21777436.864
  24242586.411    -7709030.85943  -5814060.00642  24242589.140    24242585.421
  24408807.588    -3450401.26243  -2652167.57242  24408809.382    24408806.725
  22217308.058   -17803089.32243 -13356308.87942  22217310.639    22217305.305
  20485506.774   -27143575.37644 -21115656.54042  20485507.473    20485502.207
  22477829.107   -15513535.74443 -12075146.42842  22477830.935    22477824.630
 04  7 22  2 18 30.0000000  0  9G31G10G27G28G29G 3G13G 8G19
  23544981.469   -10987145.64843  -8545039.91442  23544983.734    23544981.328
  23191728.218    -8641975.33943  -6724056.22742  23191729.771    23191726.408
  20720811.485   -25616104.95544 -19761720.47042  20720813.354    20720808.168
  21764927.639   -17592547.04643 -13666855.64842  21764929.834    21764924.592
  24223851.022    -7807485.49443  -5890777.81942  24223853.712    24223850.113
  24424372.886    -3368605.95343  -2588431.03842  24424374.563    24424372.004
  22234996.581   -17710135.81643 -13283877.62542  22234999.187    22234993.837
  20479840.072   -27173353.94344 -21138860.61642  20479840.782    20479835.505
  22480140.564   -15501388.65343 -12065681.16242  22480142.446    22480136.128
 04  7 22  2 19  0.0000000  0  9G31G10G27G28G29G 3G13G 8G19
  23523195.212   -11101633.14843  -8634250.85542  23523197.472    23523194.908
  23196784.269    -8615406.15543  -6703353.00142  23196785.824    23196782.411
  20722390.217   -25607808.77244 -19755255.91642  20722392.061    20722386.873
  21752477.911   -17657970.34643 -13717834.77742  21752480.157    21752474.887
  24205141.541    -7905804.19643  -5967389.71842  24205144.212    24205140.561
  24440008.267    -3286441.37143  -2524406.73642  24440010.038    24440007.526
  22252746.193   -17616861.14443 -13211196.11942  22252748.776    22252743.437
  20474225.326   -27202859.68544 -21161852.10042  20474226.008    20474220.717
  22482561.371   -15488667.29043 -12055768.40942  22482563.192    22482556.912
 04  7 22  2 19 30.0000000  0  9G31G10G27G28G29G 3G13G 8G19
  23501425.440   -11216034.14943  -8723394.39442  23501427.647    23501425.063
  23201940.681    -8588309.09143  -6682238.44342  23201942.235    23201938.797
  20724014.944   -25599270.79244 -19748602.94842  20724016.823    20724011.585
  21740090.506   -17723066.39543 -13768558.90942  21740092.739    21740087.450
  24186458.007    -8003987.26443  -6043895.93142  24186460.552    24186456.915
  24455713.001    -3203912.48743  -2460098.58442  24455714.713    24455712.253
  22270556.038   -17523269.70643 -13138267.77242  22270558.657    22270553.325
  20468662.167   -27232094.16144 -21184632.21242  20468662.865    20468657.565
  22485090.979   -15475374.14143 -12045410.11142  22485092.760    22485086.491
 04  7 22  2 20  0.0000000  0  9G31G10G27G28G29G 3G13G 8G19
  23479672.092   -11330348.83543  -8812470.67942  23479674.278    23479671.589
  23207196.632    -8560688.86743  -6660716.23742  23207198.220    23207194.788
  20725685.206   -25590493.46144 -19741763.47342  20725687.097    20725681.856
  21727764.891   -17787837.95043 -13819030.19242  21727767.106    21727761.790
  24167800.140    -8102035.32443  -6120296.95442  24167802.604    24167798.918
  24471485.946    -3121024.91543  -2395510.93742  24471487.727    24471485.160
  22288425.240   -17429366.73943 -13065096.68842  22288427.825    22288422.501
  20463150.239   -27261059.58644 -21207202.67042  20463150.922    20463145.645
  22487728.708   -15461512.66843 -12034608.96142  22487730.498    22487724.212
 04  7 22  2 20 30.0000000  0  9G31G10G27G28G29G 3G13G 8G19
  23457937.073   -11444566.88043  -8901471.64742  23457939.294    23457936.501
  23212553.230    -8532539.81043  -6638781.94042  23212554.794    23212551.419
  20727402.570   -25581468.75544 -19734731.24142  20727404.450    20727399.208
  21715502.476   -17852277.05843 -13869242.42442  21715504.692    21715499.392
  24149169.821    -8199938.64743  -6196585.17742  24149172.161    24149168.491
  24487328.118    -3037773.84843  -2330640.04042  24487329.933    24487327.329
  22306354.725   -17335146.67843 -12991678.51242  22306357.299    22306352.039
  20457691.008   -27289748.13744 -21229557.38642  20457691.692    20457686.406
  22490475.947   -15447075.84943 -12023359.50042  22490477.697    22490471.404
 04  7 22  2 21  0.0000000  0  9G31G10G27G28G29G 3G13G 8G19
  23436219.827   -11558691.50243  -8990399.82142  23436222.050    23436219.252
  23218008.965    -8503869.93143  -6616441.81842  23218010.528    23218007.183
  20729165.874   -25572202.44944 -19727510.74842  20729167.763    20729162.537
  21703302.272   -17916389.27243 -13919199.93842  21703304.489    21703299.188
  24130566.206    -8297701.57043  -6272763.99642  24130568.423    24130564.800
  24503237.739    -2954167.93543  -2265492.64242  24503239.663    24503236.996
  22324343.026   -17240617.58543 -12918019.53242  22324345.614    22324340.386
  20452283.426   -27318165.41644 -21251700.71942  20452284.092    20452278.773
  22493331.486   -15432069.98343 -12011666.61742  22493333.260    22493326.922
 04  7 22  2 21 30.0000000  0  9G31G10G27G28G29G 3G13G 8G19
  23414521.562   -11672715.98943  -9079249.95442  23414523.814    23414521.007
  23223564.259    -8474677.09543  -6593694.18342  23223565.794    23223562.439
  20730976.016   -25562690.00144 -19720098.45942  20730977.897    20730972.704
  21691165.050   -17980170.56143 -13968899.58542  21691167.256    21691161.942
  24111990.392    -8395317.72943  -6348828.47342  24111992.614    24111988.948
  24519215.294    -2870205.71343  -2200067.58942  24519217.271    24519214.614
  22342390.446   -17145777.88243 -12844118.52242  22342393.055    22342387.822
  20446928.317   -27346306.66144 -21273628.96142  20446928.997    20446923.654
  22496295.986   -15416491.70043 -11999527.69942  22496297.734    22496291.361
 04  7 22  2 22  0.0000000  0  9G31G10G27G28G29G 3G13G 8G19
  23392842.318   -11786640.89743  -9168022.52342  23392844.538    23392841.676
  23229218.056    -8444966.52743  -6570543.13442  23229219.556    23229216.187
  20732832.487   -25552934.23444 -19712496.57142  20732834.351    20732829.182
  21679090.325   -18043623.51443 -14018343.39742  21679092.512    21679087.192
  24093442.249    -8492788.44143  -6424779.60642  24093444.521    24093440.888
  24535259.455    -2785893.40143  -2134369.75542  24535261.488    24535258.864
  22360495.919   -17050633.16143 -12769979.82742  22360498.536    22360493.353
  20441625.213   -27374174.77144 -21295344.36942  20441625.874    20441620.537
  22499368.601   -15400345.01043 -11986945.85642  22499370.359    22499363.986
 04  7 22  2 22 30.0000000  0  9G31G10G27G28G29G 3G13G 8G19
  23371183.846   -11900456.05343  -9256709.56242  23371186.111    23371183.228
  23234971.429    -8414732.71143  -6546984.37342  23234972.896    23234969.561
  20734736.667   -25542927.64844 -19704699.24142  20734738.545    20734733.380
  21667079.497   -18106740.58343 -14067525.46342  21667081.667    21667076.355
  24074923.569    -8590104.36343  -6500610.13642  24074925.845    24074922.240
  24551371.101    -2701226.58543  -2068395.68242  24551372.969    24551370.396
  22378660.536   -16955177.86843 -12695599.12942  22378663.115    22378657.967
  20436375.537   -27401762.02944 -21316840.93942  20436376.189    20436370.863
  22502550.724   -15383622.99043 -11973915.72042  22502552.487    22502546.067
 04  7 22  2 23  0.0000000  0  9G31G10G27G28G29G 3G13G 8G19
  23349544.772   -12014170.03243  -9345317.73942  23349546.924    23349544.119
  23240821.847    -8383988.99243  -6523028.26342  23240823.310    23240819.925
  20736686.572   -25532681.01044 -19696714.85342  20736688.433    20736683.253
  21655130.434   -18169533.09543 -14116454.62442  21655132.611    21655127.291
  24056432.598    -8687274.75243  -6576327.25742  24056434.906    24056431.223
  24567547.523    -2616219.31443  -2002156.32942  24567549.335    24567546.820
  22396881.599   -16859425.96443 -12620987.30742  22396884.194    22396879.036
  20431177.214   -27429079.24144 -21338127.07742  20431177.873    20431172.558
  22505840.012   -15366337.66043 -11960446.63142  22505841.809    22505835.343
 04  7 22  2 23 30.0000000  0  9G31G10G27G28G29G 3G13G 8G19
  23327927.621   -12127768.64343  -9433836.03842  23327929.737    23327926.935
  23246770.942    -8352726.09043  -6498667.62142  23246772.513    23246769.050
  20738684.386   -25522182.50744 -19688534.20842  20738686.254    20738681.038
  21643245.447   -18231988.77743 -14165121.32142  21643247.656    21643242.307
  24037971.846    -8784286.00043  -6651920.37742  24037974.272    24037970.483
  24583790.288    -2530862.62743  -1935644.69742  24583792.108    24583789.731
  22415160.857   -16763368.12543 -12546137.10142  22415163.479    22415158.295
  20426032.528   -27456114.54944 -21359193.55242  20426033.190    20426027.905
  22509238.567   -15348478.20243 -11946530.16942  22509240.359    22509233.901
 04  7 22  2 24  0.0000000  0  9G31G10G27G28G29G 3G13G 8G19
  23306331.767   -12241254.93243  -9522266.81142  23306333.881    23306331.025
  23252817.385    -8320951.88943  -6473908.55042  23252818.936    23252815.520
  20740729.044   -25511437.68844 -19680161.62642  20740730.932    20740725.692
  21631423.455   -18294113.69143 -14213530.29742  21631425.646    21631420.250
  24019540.743    -8881141.84443  -6727392.39042  24019543.202    24019539.330
  24600097.980    -2445165.10143  -1868867.45742  24600099.949    24600097.451
  22433496.682   -16667012.55943 -12471054.89142  22433499.370    22433494.207
  20420940.566   -27482872.91044 -21380044.22142  20420941.227    20420935.961
  22512745.079   -15330051.33743 -11932171.57442  22512746.901    22512740.421
 04  7 22  2 24 30.0000000  0  8G31G10G27G28G29G13G 8G19
  23284759.201   -12354618.47043  -9610601.94142  23284761.382    23284758.556
  23258962.156    -8288660.92343  -6448746.81142  23258963.725    23258960.346
  20742822.137   -25500438.47344 -19671590.81342  20742824.015    20742818.786
  21619665.897   -18355899.78243 -14261675.25142  21619668.080    21619662.671
  24001140.994    -8977832.56643  -6802735.75442  24001143.563    24001139.654
  22451890.277   -16570353.85443 -12395736.48142  22451892.940    22451887.775
  20415902.755   -27509346.65344 -21400673.11042  20415903.421    20415898.187
  22516360.891   -15311049.91743 -11917365.27842  22516362.733    22516356.271
 04  7 22  2 25  0.0000000  0  8G31G10G27G28G29G13G 8G19
  23263209.681   -12467861.67343  -9698843.28942  23263211.849    23263209.001
  23265203.939    -8255859.90143  -6423187.61942  23265205.444    23265202.206
  20744962.732   -25489189.58944 -19662825.45442  20744964.617    20744959.410
  21607971.899   -18417351.78643 -14309559.88042  21607974.099    21607968.698
  23982772.100    -9074361.11143  -6877952.73742  23982774.855    23982770.791
  22470340.176   -16473399.26143 -12320187.50142  22470342.811    22470337.672
  20410918.353   -27535539.98544 -21421083.49742  20410918.994    20410913.750
  22520084.939   -15291479.86343 -11902115.89342  22520086.750    22520080.331
 04  7 22  2 25 30.0000000  0  8G31G10G27G28G29G13G 8G19
  23241682.152   -12580989.07343  -9786994.41542  23241684.343    23241681.474
  23271541.014    -8222558.71143  -6397238.68142  23271542.504    23271539.279
  20747149.499   -25477697.96244 -19653870.94642  20747151.388    20747146.211
  21596340.127   -18478477.07743 -14357189.92442  21596342.314    21596336.884
  23964433.115    -9170732.89943  -6953047.57242  23964435.834    23964431.779
  22488844.547   -16376158.41243 -12244415.46342  22488847.161    22488842.040
  20405985.976   -27561459.67744 -21441280.65542  20405986.634    20405981.368
  22523915.654   -15271349.31543 -11886429.76142  22523917.428    22523911.037
 04  7 22  2 26  0.0000000  0  8G31G10G27G28G29G13G 8G19
  23220178.640   -12693990.77043  -9875047.59242  23220180.797    23220177.858
  23277974.236    -8188752.27143  -6370896.04842  23277975.706    23277972.501
  20749383.907   -25465956.11544 -19644721.45942  20749385.777    20749380.626
  21584771.911   -18539268.14543 -14404559.54542  21584774.113    21584768.679
  23946125.703    -9266938.74843  -7028013.09442  23946128.477    23946124.309
  22507404.332   -16278626.17243 -12168416.37242  22507406.917    22507401.836
  20401107.054   -27587098.49144 -21461258.94742  20401107.714    20401102.461
  22527854.218   -15250651.83143 -11870301.85142  22527855.990    22527849.666
 04  7 22  2 26 30.0000000  0  8G31G10G27G28G29G13G 8G19
  23198699.736   -12806862.38843  -9962999.40542  23198702.006    23198699.048
  23284503.428    -8154441.22543  -6344160.20942  23284504.905    23284501.679
  20751666.304   -25453962.09744 -19635375.47842  20751668.159    20751663.013
  21573267.682   -18599723.15443 -14451667.31142  21573269.878    21573264.396
  23927850.570    -9362974.92443  -7102846.41642  23927853.296    23927849.165
  22526019.342   -16180803.82143 -12092191.22042  22526021.895    22526016.899
  20396282.064   -27612453.89944 -21481016.40242  20396282.723    20396277.485
  22531900.823   -15229386.62443 -11853731.57442  22531902.580    22531896.304
 04  7 22  2 27  0.0000000  0  8G31G10G27G28G29G13G 8G19
  23177246.371   -12919600.11343 -10050846.89342  23177248.665    23177245.695
  23291128.487    -8119626.54243  -6317031.92442  23291130.022    23291126.681
  20753996.945   -25441714.48944 -19625831.89742  20753998.796    20753993.640
  21561827.607   -18659840.88543 -14498512.25942  21561829.784    21561824.311
  23909608.294    -9458838.14943  -7177544.96142  23909611.064    23909606.920
  22544689.386   -16082692.53043 -12015740.91542  22544691.921    22544686.893
  20391511.281   -27637524.51344 -21500551.93642  20391511.942    20391506.695
  22536055.545   -15207553.54043 -11836718.79042  22536057.298    22536051.037
 04  7 22  2 27 30.0000000  0  8G31G10G27G28G29G13G 8G19
  23155817.889   -13032206.96643 -10138592.40142  23155820.267    23155817.197
  23297847.794    -8084316.19943  -6289517.42042  23297849.307    23297846.049
  20756374.855   -25429218.64044 -19616094.87942  20756376.695    20756371.507
  21550450.689   -18719627.01843 -14545098.82042  21550452.860    21550447.343
  23891398.216    -9554532.13143  -7252111.64242  23891400.996    23891396.951
  22563412.897   -15984300.06143 -11939071.52442  22563415.457    22563410.366
  20386793.702   -27662315.73544 -21519869.76442  20386794.362    20386789.075
  22540317.058   -15185159.12543 -11819268.60242  22540318.838    22540312.567
 04  7 22  2 28  0.0000000  0  8G31G10G27G28G29G13G 8G19
  23134416.745   -13144670.48243 -10226226.23842  23134419.171    23134415.966
  23304662.889    -8048503.01343  -6261611.08942  23304664.369    23304661.145
  20758801.873   -25416464.61244 -19606156.68242  20758803.714    20758798.526
  21539138.749   -18779071.65343 -14591419.27742  21539140.922    21539135.353
  23873222.654    -9650045.25343  -7326537.38142  23873225.349    23873221.337
  22582191.226   -15885619.42143 -11862177.57642  22582193.813    22582188.690
  20382131.154   -27686817.48944 -21538962.03042  20382131.838    20382126.549
  22544686.980   -15162194.89343 -11801374.40542  22544688.789    22544682.507
 04  7 22  2 28 30.0000000  0  8G31G10G27G28G29G13G 8G19
  23113041.282   -13256999.33443 -10313755.13542  23113043.661    23113040.395
  23311571.022    -8012200.42543  -6233323.38942  23311572.583    23311569.401
  20761275.892   -25403463.58044 -19596026.01442  20761277.733    20761272.564
  21527889.597   -18838186.23243 -14637482.55542  21527891.776    21527886.183
  23855079.700    -9745386.93543  -7400829.53342  23855082.313    23855078.305
  22601021.837   -15786664.18043 -11785069.65342  22601024.420    22601019.313
  20377521.660   -27711040.50344 -21557837.09342  20377522.360    20377517.050
  22549163.082   -15138672.95143 -11783045.63242  22549164.875    22549158.593
 04  7 22  2 29  0.0000000  0  8G31G10G27G28G29G13G 8G19
  23091693.471   -13369182.50943 -10401170.52642  23091695.824    23091692.593
  23318573.553    -7975402.33043  -6204649.58942  23318575.088    23318571.898
  20763798.566   -25390206.81444 -19585696.07042  20763800.407    20763795.243
  21516704.938   -18896962.04843 -14683281.87142  21516707.083    21516701.480
  23836971.360    -9840546.63543  -7474979.88842  23836973.996    23836969.903
  22619905.768   -15687428.49543 -11707743.20042  22619908.349    22619903.315
  20372966.835   -27734976.20244 -21576488.27542  20372967.533    20372962.223
  22553746.699   -15114586.20843 -11764276.74742  22553748.461    22553742.152
 04  7 22  2 29 30.0000000  0  8G31G10G27G28G29G13G 8G19
  23070374.103   -13481215.95843 -10488469.24742  23070376.441    23070373.267
  23325670.104    -7938109.88943  -6175590.59942  23325671.660    23325668.401
  20766370.220   -25376692.63644 -19575165.54642  20766372.095    20766366.917
  21505584.934   -18955397.95643 -14728816.33042  21505587.077    21505581.496
  23818898.320    -9935521.05143  -7548985.87242  23818900.835    23818896.821
  22638842.843   -15587913.85243 -11630199.38842  22638845.368    22638840.397
  20368467.036   -27758622.68244 -21594914.08942  20368467.743    20368462.444
  22558437.872   -15089934.14043 -11745067.34842  22558439.632    22558433.256
 04  7 22  2 30  0.0000000  0  8G31G10G27G28G29G13G 8G19
  23049083.151   -13593100.41243 -10575651.85242  23049085.435    23049082.278
  23332859.596    -7900328.96743  -6146150.96042  23332861.128    23332857.868
  20768990.308   -25362924.20544 -19564436.90242  20768992.150    20768986.997
  21494528.970   -19013497.30543 -14774088.53642  21494531.087    21494525.533
  23800860.290   -10030311.54643  -7622848.54742  23800862.693    23800858.809
  22657831.983   -15488125.56643 -11552442.34642  22657834.495    22657829.550
  20364021.689   -27781982.95944 -21613116.88842  20364022.379    20364017.100
  22563235.753   -15064721.39443 -11725421.05842  22563237.487    22563231.055
 04  7 22  2 30 30.0000000  0  8G31G10G27G28G29G13G 8G19
  23027821.734   -13704829.91743 -10662713.73042  23027823.946    23027820.797
  23340142.178    -7862058.79043  -6116330.08742  23340143.697    23340140.513
  20771659.359   -25348898.08244 -19553507.46042  20771661.230    20771656.095
  21483537.689   -19071256.77943 -14819095.89442  21483539.806    21483534.267
  23782858.266   -10124912.84043  -7696563.78242  23782860.605    23782856.727
  22676873.315   -15388063.08843 -11474471.65142  22676875.818    22676870.847
  20359631.468   -27805053.60644 -21631094.00542  20359632.156    20359626.905
  22568140.711   -15038945.66243 -11705336.07742  22568142.458    22568136.011
 04  7 22  2 31  0.0000000  0  8G31G10G27G28G29G13G 8G19
  23006589.578   -13816405.42343 -10749655.60642  23006591.757    23006588.603
  23347516.760    -7823305.33543  -6086132.61942  23347518.226    23347515.074
  20774376.859   -25334617.62744 -19542379.83542  20774378.738    20774373.585
  21472610.370   -19128680.02043 -14863841.24442  21472612.521    21472606.972
  23764891.903   -10219326.54943  -7770132.85642  23764894.304    23764890.368
  22695965.605   -15287732.44343 -11396291.97842  22695968.192    22695963.200
  20355295.845   -27827837.29144 -21648847.51742  20355296.539    20355291.320
  22573151.843   -15012611.79143 -11684816.17942  22573153.624    22573147.157
 04  7 22  2 31 30.0000000  0  8G31G10G27G28G29G13G 8G19
  22985388.503   -13927817.28443 -10836469.95442  22985390.683    22985387.580
  23354984.106    -7784064.08743  -6055555.07642  23354985.636    23354982.509
  20777144.120   -25320075.55244 -19531048.35842  20777146.007    20777140.838
  21461748.350   -19185760.01043 -14908319.12742  21461750.517    21461744.980
  23746962.858   -10313543.58743  -7843548.69342  23746965.363    23746961.405
  22715109.819   -15187129.25343 -11317899.95442  22715112.417    22715107.366
  20351016.171   -27850327.08344 -21666372.02442  20351016.876    20351011.640
  22578270.359   -14985714.02343 -11663856.89342  22578272.109    22578265.592
 04  7 22  2 32  0.0000000  0  8G31G10G27G28G29G13G 8G19
  22964217.236   -14039072.79043 -10923162.46042  22964219.345    22964216.254
  23362541.905    -7744347.60143  -6024607.20142  23362543.401    23362540.343
  20779959.294   -25305281.65044 -19519520.64942  20779961.190    20779956.016
  21450949.809   -19242506.66143 -14952537.26342  21450951.948    21450946.386
  23729069.750   -10407572.28443  -7916817.76442  23729072.256    23729068.301
  22734303.537   -15086265.87043 -11239305.16842  22734306.092    22734301.095
  20346790.598   -27872532.60144 -21683675.01842  20346791.291    20346786.035
  22583494.048   -14958263.35143 -11642466.76342  22583495.838    22583489.261
 04  7 22  2 32 30.0000000  0  8G31G10G27G28G29G13G 8G19
  22943078.117   -14150159.02043 -11009723.07342  22943080.281    22943077.168
  23370191.687    -7704147.83143  -5993282.74942  23370193.185    23370190.157
  20782824.403   -25290225.26643 -19507788.41342  20782826.307    20782821.118
  21440216.633   -19298909.92743 -14996487.83042  21440218.772    21440213.144
  23711214.924   -10501400.01943  -7989930.24242  23711217.353    23711213.438
  22753548.235   -14985134.58843 -11160501.63642  22753550.791    22753545.818
  20342621.206   -27894442.89244 -21700747.96942  20342621.895    20342616.634
  22588824.610   -14930250.84443 -11620638.84442  22588826.403    22588819.944
 04  7 22  2 33  0.0000000  0  8G31G10G27G28G29G13G 8G19
  22921971.052   -14261076.54343 -11096152.20842  22921973.272    22921970.202
  23377932.406    -7663470.63943  -5961586.27842  23377933.827    23377930.778
  20785738.846   -25274909.62844 -19495854.15742  20785740.747    20785735.567
  21429548.173   -19354972.96543 -15040173.28442  21429550.312    21429544.674
  23693398.132   -10595028.12343  -8062887.16342  23693400.489    23693396.538
  22772842.824   -14883741.20843 -11081493.86942  22772845.384    22772840.391
  20338507.461   -27916060.87144 -21717593.14242  20338508.148    20338502.856
  22594261.278   -14901680.98443 -11598376.62042  22594263.048    22594256.673
 04  7 22  2 33 30.0000000  0  9G31G10G27G28G29G26G13G 8G19
  22900894.986   -14371831.70143 -11182454.82842  22900897.196    22900894.109
  23385761.663    -7622327.81543  -5929526.97442  23385763.086    23385760.051
  20788701.010   -25259343.38744 -19483724.62642  20788702.897    20788697.740
  21418942.674   -19410705.10043 -15083600.88742  21418944.821    21418939.182
  23675617.891   -10688463.63043  -8135694.02542  23675620.267    23675616.306
  24300340.515    -4809959.51853  -3738575.15352  24300343.131    24300340.067
  22792185.010   -14782097.58943 -11002291.10942  22792187.551    22792182.557
  20334447.682   -27937395.24144 -21734217.32142  20334448.361    20334443.063
  22599801.984   -14872564.24943 -11575688.26842  22599803.757    22599797.458
 04  7 22  2 34  0.0000000  0  9G31G10G27G28G29G26G13G 8G19
  22879854.626   -14482399.15343 -11268611.18142  22879856.829    22879853.751
  23393683.304    -7580699.11443  -5897089.05142  23393684.723    23393681.761
  20791715.227   -25243503.65644 -19471381.98442  20791717.112    20791711.966
  21408404.465   -19466083.64143 -15126752.97042  21408406.617    21408400.950
  23657879.021   -10781681.77043  -8208331.48142  23657881.461    23657877.430
  24280610.675    -4913639.69643  -3819364.81842  24280613.343    24280610.350
  22811578.677   -14680183.18343 -10922877.35142  22811581.235    22811576.253
  20330446.231   -27958422.99844 -21750602.58142  20330446.899    20330441.626
  22605450.885   -14842879.27643 -11552557.12442  22605452.615    22605446.347
 04  7 22  2 34 30.0000000  0  9G31G10G27G28G29G26G13G 8G19
  22858847.252   -14592793.12343 -11354632.37742  22858849.460    22858846.400
  23401693.869    -7538603.94043  -5864287.65442  23401695.256    23401692.222
  20794778.321   -25227407.14444 -19458839.25442  20794780.187    20794775.032
  21397930.266   -19521125.59343 -15169642.77042  21397932.438    21397926.785
  23640178.694   -10874697.51443  -8280811.23942  23640181.131    23640177.098
  24260912.689    -5017151.93943  -3900023.62542  24260915.433    24260912.588
  22831020.239   -14578017.50043 -10843267.79642  22831022.763    22831017.785
  20326499.967   -27979160.63344 -21766761.77242  20326500.635    20326495.371
  22611204.454   -14812644.02043 -11528997.20442  22611206.207    22611199.954
 04  7 22  2 35  0.0000000  0  9G31G10G27G28G29G26G13G 8G19
  22837875.164   -14703001.98843 -11440509.32142  22837877.358    22837874.263
  23409794.266    -7496036.19243  -5831118.00842  23409795.701    23409792.549
  20797891.998   -25211044.66844 -19446089.28242  20797893.885    20797888.723
  21387521.864   -19575821.85443 -15212263.20342  21387524.032    21387518.371
  23622518.979   -10967499.86643  -8353124.72442  23622521.361    23622517.349
  24241248.921    -5120484.95643  -3980542.75242  24241251.722    24241248.858
  22850510.792   -14475594.31843 -10763457.58942  22850513.271    22850508.355
  20322610.691   -27999598.77144 -21782687.58942  20322611.389    20322606.102
  22617064.163   -14781850.96243 -11505002.62442  22617065.941    22617059.720
 04  7 22  2 35 30.0000000  0  9G31G10G27G28G29G26G13G 8G19
  22816937.266   -14813031.03743 -11526246.15342  22816939.464    22816936.368
  23417982.539    -7453006.33443  -5797588.27942  23417983.992    23417980.926
  20801054.857   -25194423.82544 -19433137.98642  20801056.711    20801051.577
  21377177.734   -19630180.70643 -15254620.71042  21377179.880    21377174.202
  23604898.740   -11060094.52443  -8425276.35442  23604901.135    23604897.104
  24221618.202    -5223644.61843  -4060926.80242  24221621.100    24221618.118
  22870048.399   -14372923.98743 -10683454.81442  22870050.896    22870045.936
  20318777.032   -28019744.85844 -21798385.83842  20318777.733    20318772.416
  22623028.232   -14750509.56143 -11480580.76642  22623029.983    22623023.792
 04  7 22  2 36  0.0000000  0  9G31G10G27G28G29G26G13G 8G19
  22796035.311   -14922871.01843 -11611835.66042  22796037.499    22796034.442
  23426259.541    -7409510.52043  -5763695.47942  23426261.018    23426257.998
  20804268.150   -25177537.87644 -19419980.11442  20804270.002    20804264.848
  21366899.042   -19684195.62143 -15296710.21342  21366901.166    21366895.474
  23587319.701   -11152473.12743  -8497259.64842  23587322.117    23587317.970
  24202022.029    -5326622.40243  -4141169.12842  24202025.063    24202021.996
  22889633.755   -14270002.67743 -10603256.45942  22889636.292    22889631.319
  20315000.252   -28039591.95244 -21813851.10542  20315000.969    20314995.628
  22629097.774   -14718614.42843 -11455727.43042  22629099.506    22629093.196
 04  7 22  2 36 30.0000000  0  9G31G10G27G28G29G26G13G 8G19
  22775169.138   -15032523.04143 -11697278.70642  22775171.306    22775168.232
  23434624.018    -7365555.31443  -5729444.69842  23434625.457    23434622.450
  20807531.175   -25160390.53944 -19406618.56242  20807533.023    20807527.872
  21356684.991   -19737870.65343 -15338534.88642  21356687.101    21356681.413
  23569781.421   -11244637.38743  -8569075.89742  23569783.842    23569779.650
  24182460.361    -5429419.79843  -4221270.90042  24182463.361    24182460.283
  22909265.625   -14166836.71443 -10522867.46942  22909268.182    22909263.251
  20311279.659   -28059143.74444 -21829086.26642  20311280.373    20311275.044
  22635271.608   -14686170.69343 -11430446.60542  22635273.395    22635267.044
 04  7 22  2 37  0.0000000  0  9G31G10G27G28G29G26G13G 8G19
  22754340.566   -15141977.53243 -11782567.84442  22754342.707    22754339.600
  23443076.634    -7321136.54543  -5694832.73142  23443078.058    23443075.062
  20810845.324   -25142974.63444 -19393047.73742  20810847.164    20810842.010
  21346536.925   -19791199.04143 -15380089.43242  21346539.042    21346533.335
  23552285.559   -11336578.50343  -8640718.27042  23552288.027    23552283.832
  24162934.750    -5532027.68543  -4301225.00742  24162937.664    24162934.501
  22928944.852   -14063421.57843 -10442284.31542  22928947.460    22928942.547
  20307616.691   -28078392.87044 -21844085.58642  20307617.390    20307612.062
  22641550.864   -14653173.04843 -11404734.16542  22641552.671    22641546.232
 04  7 22  2 37 30.0000000  0  9G31G10G27G28G29G26G13G 8G19
  22733549.310   -15251235.91343 -11867704.16642  22733551.484    22733548.286
  23451616.230    -7276260.87143  -5659864.71742  23451617.638    23451614.639
  20814209.873   -25125293.82743 -19379270.49442  20814211.711    20814206.559
  21336453.996   -19844184.96443 -15421377.12642  21336456.133    21336450.387
  23534831.775   -11428298.35543  -8712188.24442  23534834.291    23534830.076
  24143444.817    -5634447.98043  -4381032.95542  24143447.688    24143444.320
  22948670.216   -13959764.23943 -10361512.45042  22948672.798    22948667.971
  20304010.632   -28097342.83544 -21858851.79442  20304011.335    20304006.011
  22647934.420   -14619627.12343 -11378594.49742  22647936.215    22647929.777
 04  7 22  2 38  0.0000000  0  9G31G10G27G28G29G26G13G 8G19
  22712795.775   -15360296.31543 -11952686.22742  22712797.951    22712794.713
  23460242.148    -7230931.53943  -5624543.21942  23460243.564    23460240.548
  20817624.649   -25107349.00543 -19365287.52342  20817626.489    20817621.372
  21326436.131   -19896829.36243 -15462398.70842  21326438.238    21326432.439
  23517420.342   -11519795.73043  -8783484.84342  23517422.829    23517418.640
  24123990.870    -5736679.35243  -4460693.69742  24123993.645    24123990.231
  22968441.022   -13855868.08943 -10280554.48742  22968443.643    22968438.753
  20300461.402   -28115993.98044 -21873385.15442  20300462.111    20300456.798
  22654421.907   -14585535.10143 -11352029.30342  22654423.679    22654417.327
 04  7 22  2 38 30.0000000  0  9G31G10G27G28G29G26G13G 8G19
  22692080.485   -15469155.15343 -12037511.22342  22692082.689    22692079.465
  23468954.049    -7185150.51543  -5588869.74942  23468955.466    23468952.438
  20821089.956   -25089138.83443 -19351097.78842  20821091.779    20821086.679
  21316483.294   -19949131.65943 -15503153.71942  21316485.406    21316479.606
  23500051.877   -11611067.86343  -8854605.93642  23500054.240    23500050.087
  24104573.550    -5838718.82343  -4540204.89642  24104576.159    24104572.679
  22988256.930   -13751734.77343 -10199411.70542  22988259.611    22988254.696
  20296969.271   -28134345.21344 -21887684.81642  20296969.974    20296964.674
  22661013.209   -14550897.61743 -11325039.07042  22661014.962    22661008.625
 04  7 22  2 39  0.0000000  0  9G31G10G27G28G29G26G13G 8G19
  22671405.049   -15577805.11843 -12122173.44042  22671407.214    22671403.992
  23477752.169    -7138916.04843  -5552842.93742  23477753.582    23477750.565
  20824606.634   -25070658.51444 -19336697.54642  20824608.458    20824603.393
  21306596.461   -20001087.14043 -15543638.48142  21306598.565    21306592.790
  23482727.406   -11702107.94243  -8925546.21442  23482729.821    23482725.716
  24085193.777    -5940559.68643  -4619561.33342  24085196.408    24085192.962
  23008118.478   -13647362.13743 -10118082.46142  23008121.080    23008116.258
  20293535.114   -28152391.98844 -21901747.24042  20293535.797    20293530.479
  22667708.891   -14515711.59443 -11297621.40042  22667710.644    22667704.339
 04  7 22  2 39 30.0000000  0  9G31G10G27G28G29G26G13G 8G19
  22650769.057   -15686247.82343 -12206674.17442  22650771.219    22650767.940
  23486635.342    -7092235.13043  -5516468.24742  23486636.734    23486633.738
  20828173.954   -25051912.18044 -19322090.02142  20828175.793    20828170.717
  21296774.789   -20052700.52743 -15583856.67842  21296776.868    21296771.085
  23465446.718   -11792918.18743  -8996307.39242  23465449.152    23465445.005
  24065851.393    -6042203.91643  -4698764.55642  24065854.141    24065850.653
  23028024.228   -13542756.81543 -10036571.90142  23028026.841    23028022.050
  20290158.353   -28170137.01244 -21915574.53542  20290159.007    20290153.725
  22674507.863   -14479982.81243 -11269780.81042  22674509.602    22674503.362
 04  7 22  2 40  0.0000000  0  9G31G10G27G28G29G26G13G 8G19
  22630173.528   -15794477.94443 -12291009.26542  22630175.739    22630172.367
  23495603.303    -7045107.94143  -5479745.82542  23495604.770    23495601.860
  20831792.440   -25032896.77444 -19307272.83142  20831794.299    20831789.243
  21287018.624   -20103969.31743 -15623806.35242  21287020.740    21287014.933
  23448210.648   -11883493.90843  -9066885.81542  23448213.111    23448208.953
  24046547.510    -6143646.45643  -4777810.61742  24046550.058    24046546.645
  23047974.064   -13437919.61943  -9954880.66442  23047976.672    23047971.937
  20286839.382   -28187578.19844 -21929165.07542  20286840.052    20286834.779
  22681410.384   -14443710.09943 -11241516.37642  22681412.116    22681405.874
 04  7 22  2 40 30.0000000  0  9G31G10G27G28G29G26G13G 8G19
  22609618.824   -15902493.46643 -12375177.12142  22609621.045    22609617.601
  23504655.646    -6997537.98843  -5442678.38042  23504657.085    23504654.155
  20835462.019   -25013613.01743 -19292246.53842  20835463.866    20835458.826
  21277327.888   -20154894.36943 -15663488.17042  21277330.021    21277324.160
  23431019.567   -11973833.80643  -9137280.49442  23431021.923    23431017.725
  24027282.216    -6244885.94243  -4856698.46042  24027284.745    24027281.140
  23067967.562   -13332853.07443  -9873010.70742  23067970.146    23067965.504
  20283578.271   -28204715.50444 -21942518.82642  20283578.911    20283573.674
  22688415.914   -14406895.76743 -11212829.89542  22688417.701    22688411.400
 04  7 22  2 41  0.0000000  0  9G31G10G27G28G29G26G13G 8G19
  22589105.423   -16010292.03743 -12459175.94242  22589107.604    22589104.098
  23513791.600    -6949528.39943  -5405268.35942  23513793.010    23513790.114
  20839182.689   -24994060.85944 -19277011.09842  20839184.534    20839179.472
  21267702.442   -20205476.18543 -15702902.52942  21267704.593    21267698.714
  23413873.640   -12063936.01543  -9207489.95342  23413876.052    23413871.839
  24008055.860    -6345920.53843  -4935426.65042  24008058.339    24008054.896
  23088004.094   -13227560.43343  -9790964.56642  23088006.685    23088002.106
  20280374.913   -28221549.11944 -21955635.92942  20280375.574    20280370.333
  22695524.091   -14369541.83743 -11183722.95342  22695525.914    22695519.606
 04  7 22  2 41 30.0000000  0  9G31G10G27G28G29G26G13G 8G19
  22568634.975   -16117864.57643 -12542998.63042  22568637.187    22568633.664
  23523011.871    -6901075.74243  -5367513.10242  23523013.252    23523010.411
  20842955.655   -24974233.86043 -19261561.50042  20842957.515    20842952.417
  21258143.477   -20255708.63843 -15742044.65842  21258145.641    21258139.790
  23396774.545   -12153792.25743  -9277507.75542  23396776.967    23396772.687
  23988870.181    -6446741.76043  -5013988.57042  23988872.535    23988869.188
  23108084.474   -13122037.87343  -9708739.27442  23108087.028    23108082.461
  20277230.836   -28238071.51644 -21968510.52942  20277231.485    20277226.222
  22702735.909   -14331643.43543 -11154191.74642  22702737.722    22702731.435
 04  7 22  2 42  0.0000000  0  9G31G10G27G28G29G26G13G 8G19
  22548206.213   -16225218.15443 -12626650.69542  22548208.401    22548204.879
  23532314.071    -6852192.23943  -5329422.11042  23532315.429    23532312.737
  20846779.122   -24954141.33343 -19245904.99142  20846780.997    20846775.867
  21248649.104   -20305601.81043 -15780922.42642  21248651.252    21248645.381
  23379720.759   -12243410.15243  -9347339.82542  23379723.209    23379718.940
  23969723.759    -6547357.01543  -5092390.01642  23969726.146    23969722.717
  23128206.179   -13016297.97043  -9626344.62342  23128208.759    23128204.151
  20274144.050   -28254292.74644 -21981150.45242  20274144.681    20274139.404
  22710049.143   -14293212.07643 -11124245.25642  22710050.932    22710044.699
 04  7 22  2 42 30.0000000  0  9G31G10G27G28G29G26G13G 8G19
  22527821.045   -16332342.68943 -12710124.29342  22527823.244    22527819.758
  23541699.259    -6802873.45043  -5290991.93342  23541700.585    23541697.822
  20850654.552   -24933775.79643 -19230035.74942  20850656.424    20850651.304
  21239220.705   -20355148.22644 -15819529.99842  21239222.842    21239216.956
  23362714.129   -12332780.16743  -9416978.75842  23362716.611    23362712.290
  23950618.226    -6647756.66643  -5170623.47342  23950620.593    23950617.156
  23148370.295   -12910335.44143  -9543776.50042  23148372.841    23148368.230
  20271116.084   -28270204.88144 -21993549.52242  20271116.700    20271111.441
  22717464.978   -14254241.71343 -11093878.75742  22717466.724    22717460.519
 04  7 22  2 43  0.0000000  0  9G31G10G27G28G29G26G13G 8G19
  22507480.098   -16439234.92643 -12793416.87242  22507482.295    22507478.744
  23551166.673    -6753121.82643  -5252224.49542  23551168.017    23551165.282
  20854582.105   -24913136.34743 -19213953.07142  20854583.970    20854578.867
  21229858.292   -20404347.84243 -15857867.32342  21229860.424    21229854.537
  23345755.203   -12421899.83643  -9486422.60442  23345757.708    23345753.269
  23931554.257    -6747938.01143  -5248686.78542  23931556.719    23931553.240
  23168576.190   -12804153.04943  -9461037.04942  23168578.751    23168574.147
  20268147.055   -28285807.26944 -22005707.22042  20268147.668    20268142.414
  22724983.113   -14214733.88643 -11063093.45342  22724984.828    22724978.593
 04  7 22  2 43 30.0000000  0  9G31G10G27G28G29G26G13G 8G19
  22487183.512   -16545893.97543 -12876527.74642  22487185.780    22487182.151
  23560715.631    -6702941.97843  -5213123.36642  23560716.982    23560714.287
  20858561.457   -24892224.73744 -19197658.31942  20858563.329    20858558.250
  21220561.434   -20453202.84943 -15895936.12742  21220563.586    21220557.710
  23328844.014   -12510768.79443  -9555671.08542  23328846.493    23328842.036
  23912531.993    -6847900.64643  -5326579.68942  23912534.484    23912530.844
  23188823.106   -12697755.34243  -9378129.82342  23188825.653    23188821.055
  20265236.892   -28301100.41244 -22017623.94442  20265237.507    20265232.259
  22732602.895   -14174691.85843 -11031891.88642  22732604.613    22732598.337
 04  7 22  2 44  0.0000000  0  9G31G10G27G28G29G26G13G 8G19
  22466931.871   -16652316.75643 -12959454.51542  22466934.153    22466930.495
  23570345.677    -6652336.52343  -5173690.60142  23570347.007    23570344.233
  20862592.720   -24871040.37843 -19181151.03942  20862594.596    20862589.535
  21211330.210   -20501713.01843 -15933736.22742  21211332.352    21211326.495
  23311980.924   -12599384.57343  -9624722.29742  23311983.446    23311978.944
  23893551.865    -6947641.79543  -5404300.00542  23893554.359    23893550.844
  23209110.626   -12591143.80643  -9295055.98342  23209113.208    23209108.624
  20262385.545   -28316084.26344 -22029299.66542  20262386.174    20262380.919
  22740324.035   -14134116.99843 -11000275.12542  22740325.778    22740319.535
 04  7 22  2 44 30.0000000  0  9G31G10G27G28G29G26G13G 8G19
  22446726.126   -16758498.40143 -13042193.38642  22446728.446    22446724.775
  23580056.466    -6601305.95043  -5133926.57342  23580057.856    23580055.094
  20866676.368   -24849580.71443 -19164429.23442  20866678.236    20866673.208
  21202164.997   -20549876.28243 -15971266.00342  21202167.149    21202161.304
  23295166.839   -12687742.92843  -9693572.91542  23295169.398    23295164.919
  23874614.647    -7047157.11843  -5481844.36142  23874617.217    23874613.662
  23229438.836   -12484319.05443  -9211815.99542  23229441.372    23229436.827
  20259593.720   -28330755.47444 -22040731.77042  20259594.351    20259589.083
  22748146.718   -14093008.76643 -10968242.75742  22748148.434    22748142.202
 04  7 22  2 45  0.0000000  0  9G31G10G27G28G29G26G13G 8G19
  22426566.344   -16864438.68343 -13124744.18542  22426568.604    22426564.936
  23589847.145    -6549855.82843  -5093835.60742  23589848.524    23589845.742
  20870811.961   -24827848.08444 -19147494.73242  20870813.831    20870808.793
  21193065.284   -20597695.52843 -16008527.71942  21193067.435    21193061.565
  23278401.654   -12775844.15543  -9762223.17842  23278404.226    23278399.762
  23855720.390    -7146446.84243  -5559212.91442  23855722.966    23855719.468
  23249806.430   -12377286.58343  -9128414.14542  23249809.033    23249804.461
  20256860.851   -28345116.75744 -22051922.37642  20256861.497    20256856.208
  22756069.999   -14051371.47543 -10935798.13342  22756071.755    22756065.568
 04  7 22  2 45 30.0000000  0  9G31G10G27G28G29G26G13G 8G19
  22406453.347   -16970133.01043 -13207103.32042  22406455.570    22406451.877
  23599717.531    -6497986.93243  -5053418.32542  23599718.984    23599716.096
  20874999.879   -24805840.41244 -19130345.90442  20875001.773    20874996.708
  21184031.347   -20645169.10143 -16045520.09042  21184033.486    21184027.617
  23261686.142   -12863684.39943  -9830670.08942  23261688.703    23261684.302
  23836869.864    -7245506.87243  -5636402.51242  23836872.549    23836868.982
  23270213.467   -12270047.07943  -9044850.98542  23270216.000    23270211.640
  20254187.415   -28359165.77144 -22062869.65842  20254188.043    20254182.761
  22764094.005   -14009204.88943 -10902941.07342  22764095.767    22764089.629
 04  7 22  2 46  0.0000000  0  9G31G10G27G28G29G26G13G 8G19
  22386388.010   -17075576.62143 -13289267.10942  22386390.235    22386386.529
  23609667.281    -6445700.44943  -5012675.67142  23609668.777    23609665.968
  20879240.604   -24783555.38543 -19112980.96542  20879242.487    20879237.394
  21175063.536   -20692295.21043 -16082241.71542  21175065.660    21175059.785
  23245021.161   -12951259.43143  -9898910.32442  23245023.698    23245019.313
  23818063.976    -7344332.71443  -5713409.60642  23818066.600    23818063.041
  23290659.954   -12162600.80243  -8961126.70842  23290662.413    23290658.057
  20251573.887   -28372899.87944 -22073571.55542  20251574.541    20251569.247
  22772218.819   -13966508.92543 -10869671.51442  22772220.536    22772214.363
 04  7 22  2 46 30.0000000  0  9G31G10G27G28G29G26G13G 8G19
  22366370.685   -17180768.08543 -13371234.41342  22366372.860    22366369.176
  23619695.698    -6393000.49743  -4971610.82542  23619697.153    23619694.454
  20883533.880   -24760994.03543 -19095400.70942  20883535.765    20883530.683
  21166161.516   -20739075.54043 -16118693.89742  21166163.646    21166157.740
  23228406.759   -13038568.47543  -9966943.30142  23228409.287    23228404.925
  23799302.789    -7442923.58443  -5790233.62042  23799305.406    23799301.741
  23311144.893   -12054952.10843  -8877244.69342  23311147.357    23311143.038
  20249020.063   -28386320.23644 -22084028.96842  20249020.728    20249015.433
  22780443.700   -13923286.53343 -10835991.74642  22780445.441    22780439.285
 04  7 22  2 47  0.0000000  0  9G31G10G27G28G29G26G13G 8G19
  22346401.364   -17285707.18543 -13453005.06242  22346403.515    22346399.898
  23629801.995    -6339892.34543  -4930227.91142  23629803.384    23629800.602
  20887879.333   -24738158.70143 -19077606.95942  20887881.200    20887876.080
  21157324.745   -20785512.83443 -16154878.77142  21157326.878    21157320.967
  23211842.921   -13125612.00543 -10034769.38642  23211845.429    23211841.066
  23780586.157    -7541279.72443  -5866874.72442  23780588.880    23780585.157
  23331667.449   -11947105.97643  -8793208.83242  23331669.887    23331665.500
  20246525.592   -28399428.70044 -22094243.35042  20246526.239    20246520.978
  22788768.000   -13879541.91743 -10801905.04842  22788769.737    22788763.577
 04  7 22  2 47 30.0000000  0 10G31G10G27G28G29G 7G26G13G 8G19
  22326479.937   -17390394.59443 -13534579.58542  22326482.102    22326478.458
  23639984.508    -6286382.57443  -4888532.03542  23639985.980    23639983.282
  20892276.343   -24715052.40243 -19059602.07042  20892278.178    20892273.075
  21148552.641   -20831610.56143 -16190799.04542  21148554.779    21148548.834
  23195329.388   -13212391.13643 -10102389.44242  23195331.904    23195327.507
  24457752.441    -4418598.34253  -3433846.34452  24457754.157    24457754.420
  23761914.070    -7639401.94043  -5943333.55442  23761916.790    23761913.072
  23352226.429   -11839067.93543  -8709023.42342  23352228.928    23352224.487
  20244089.974   -28412227.95244 -22104216.78742  20244090.620    20244085.335
  22797190.802   -13835280.30443 -10767415.48942  22797192.514    22797186.272
 04  7 22  2 48  0.0000000  0 10G31G10G27G28G29G 7G26G13G 8G19
  22306610.143   -17494810.66343 -13615942.68042  22306612.281    22306608.662
  23650246.279    -6232457.15443  -4846512.28842  23650247.665    23650244.934
  20896728.167   -24691657.94043 -19041372.63442  20896729.996    20896724.894
  21139848.254   -20877352.32943 -16226441.94142  21139850.397    21139844.441
  23178869.732   -13298886.78143 -10169788.61042  23178872.268    23178867.916
  24437626.622    -4524359.66343  -3516257.58442  24437628.297    24437628.579
  23743290.110    -7737271.19443  -6019595.25242  23743292.855    23743289.075
  23372824.544   -11730824.29943  -8624677.82242  23372827.082    23372822.625
  20241716.503   -28424700.55244 -22113935.68942  20241717.155    20241711.871
  22805714.798   -13790486.75143 -10732511.43942  22805716.523    22805710.232
 04  7 22  2 48 30.0000000  0 10G31G10G27G28G29G 7G26G13G 8G19
  22286790.562   -17598963.21243 -13697100.43642  22286792.654    22286788.973
  23660584.563    -6178129.51143  -4804179.09642  23660585.953    23660583.201
  20901232.817   -24667985.86843 -19022926.87742  20901234.637    20901229.549
  21131209.528   -20922748.95943 -16261815.90742  21131211.680    21131205.716
  23162462.426   -13385107.43443 -10236973.49142  23162464.958    23162460.593
  24417503.764    -4630104.40743  -3598655.88342  24417505.712    24417505.783
  23724712.664    -7834895.80143  -6095666.31742  23724715.429    23724711.618
  23393459.316   -11622388.24543  -8540182.29442  23393461.885    23393457.417
  20239403.195   -28436857.12344 -22123408.34042  20239403.829    20239398.537
  22814337.646   -13745173.70843 -10697202.58742  22814339.358    22814333.039
 04  7 22  2 49  0.0000000  0 10G31G10G27G28G29G 7G26G13G 8G19
  22267022.320   -17702845.36243 -13778047.48542  22267024.475    22267020.752
  23670999.513    -6123398.50543  -4761531.61842  23671000.954    23670998.186
  20905791.175   -24644031.54743 -19004261.18642  20905792.999    20905787.899
  21122637.227   -20967796.64443 -16296917.97342  21122639.352    21122633.380
  23146108.678   -13471046.77843 -10303939.17442  23146111.164    23146106.849
  24397385.364    -4735826.44643  -3681036.50142  24397387.320    24397387.242
  23706182.903    -7932269.17343  -6171541.61542  23706185.727    23706182.092
  23414130.980   -11513758.17443  -8455535.56342  23414133.584    23414129.171
  20237150.894   -28448692.85144 -22132630.98642  20237151.556    20237146.261
  22823059.804   -13699338.76243 -10661487.05942  22823061.521    22823055.168
 04  7 22  2 49 30.0000000  0 10G31G10G27G28G29G 7G26G13G 8G19
  22247305.400   -17806458.41843 -13858784.86742  22247307.549    22247303.766
  23681489.907    -6068270.97843  -4718575.15542  23681491.322    23681488.695
  20910402.453   -24619799.00743 -18985378.70042  20910404.286    20910399.222
  21114130.499   -21012499.60443 -16331751.42942  21114132.619    21114126.659
  23129808.078   -13556706.80143 -10370687.19842  23129810.529    23129806.269
  24377270.892    -4841527.62943  -3763400.84742  24377273.031    24377272.906
  23687700.769    -8029393.21943  -6247222.62642  23687703.514    23687699.965
  23434838.399   -11404940.56443  -8370742.70742  23434840.961    23434836.536
  20234959.063   -28460210.95744 -22141606.13742  20234959.691    20234954.434
  22831880.096   -13652987.74643 -10625369.39842  22831881.830    22831875.553
 04  7 22  2 50  0.0000000  0 10G31G10G27G28G29G 7G26G13G 8G19
  22227640.467   -17909798.08443 -13939309.22342  22227642.585    22227638.805
  23692055.499    -6012748.73843  -4675311.13542  23692056.939    23692054.312
  20915067.095   -24595286.13543 -18966277.77542  20915068.925    20915063.903
  21105689.600   -21056856.71743 -16366315.40042  21105691.697    21105685.747
  23113561.321   -13642083.75243 -10437214.65542  23113563.802    23113559.451
  24357161.090    -4947204.58043  -3845746.33142  24357163.265    24357163.139
  23669266.980    -8126263.76743  -6322706.10942  23669269.514    23669266.107
  23455581.198   -11295936.60043  -8285804.63742  23455583.788    23455579.424
  20232827.958   -28471409.93344 -22150332.61742  20232828.589    20232823.350
  22840798.509   -13606121.00943 -10588849.88942  22840800.264    22840794.052
 04  7 22  2 50 30.0000000  0 10G31G10G27G28G29G 7G26G13G 8G19
  22208028.311   -18012860.08043 -14019617.21042  22208030.475    22208026.711
  23702695.939    -5956833.12943  -4631740.58842  23702697.416    23702694.789
  20919785.397   -24570491.38643 -18946957.20742  20919787.213    20919782.227
  21097314.763   -21100866.70043 -16400608.86642  21097316.846    21097310.921
  23097369.232   -13727173.98543 -10503518.68842  23097371.672    23097367.227
  24337056.532    -5052853.48043  -3928069.94842  24337058.843    24337058.571
  23650881.939    -8222877.06743  -6397989.13242  23650884.529    23650881.104
  23476359.362   -11186747.36743  -8200722.22042  23476361.842    23476357.520
  20230757.998   -28482287.80544 -22158808.88442  20230758.585    20230753.352
  22849814.992   -13558739.01743 -10551928.87542  22849816.730    22849810.577
 04  7 22  2 51  0.0000000  0 10G31G10G27G28G29G 7G26G13G 8G19
  22188469.732   -18115640.97543 -14099706.15642  22188471.850    22188468.095
  23713410.754    -5900526.26543  -4587865.15842  23713412.274    23713409.637
  20924557.564   -24545413.63943 -18927416.12042  20924559.379    20924554.392
  21089006.103   -21144528.92943 -16434631.35342  21089008.184    21089002.248
  23081232.192   -13811974.39643 -10569596.89842  23081234.633    23081230.185
  24316957.932    -5158471.67143  -4010369.65942  24316960.128    24316959.842
  23632546.497    -8319230.07243  -6473069.32742  23632549.115    23632545.678
  23497172.285   -11077374.91743  -8115497.02742  23497174.777    23497170.518
  20228749.452   -28492842.82744 -22167033.58242  20228750.065    20228744.798
  22858929.282   -13510842.80443 -10514607.17642  22858931.039    22858924.925
 04  7 22  2 51 30.0000000  0 10G31G10G27G28G29G 7G26G13G 8G19
  22168964.708   -18218140.21843 -14179575.63142  22168966.831    22168963.097
  23724199.119    -5843833.39343  -4543688.95242  23724200.659    23724197.924
  20929383.162   -24520055.02943 -18907656.16842  20929384.995    20929380.003
  21080763.042   -21187846.33243 -16468385.14542  21080765.157    21080759.188
  23065150.225   -13896485.24343 -10635449.45742  23065152.763    23065148.181
  24296865.069    -5264059.30943  -4092645.57242  24296867.494    24296866.933
  23614260.667    -8415322.70743  -6547946.64142  23614263.279    23614259.761
  23518019.256   -10967823.88743  -8030132.69242  23518021.693    23518017.519
  20226801.952   -28503077.01844 -22175008.28142  20226802.589    20226797.299
  22868140.668   -13462436.69243 -10476888.14842  22868142.450    22868136.271
 04  7 22  2 52  0.0000000  0 10G31G10G27G28G29G 7G26G13G 8G19
  22149514.013   -18320354.00543 -14259222.68042  22149516.153    22149512.374
  23735060.614    -5786756.62243  -4499213.61142  23735062.048    23735059.301
  20934262.446   -24494414.17843 -18887676.29542  20934264.272    20934259.298
  21072585.775   -21230818.11143 -16501869.62342  21072587.899    21072581.908
  23049123.999   -13980703.34643 -10701073.91542  23049126.555    23049121.969
  24276778.652    -5369613.25243  -4174895.21342  24276781.097    24276780.539
  23596025.042    -8511151.43143  -6622618.31242  23596027.693    23596024.054
  23538899.893   -10858095.90943  -7944630.46342  23538902.325    23538898.090
  20224915.775   -28512988.78344 -22182731.73842  20224916.410    20224911.121
  22877449.031   -13413521.39643 -10438772.36242  22877450.791    22877444.498
 04  7 22  2 52 30.0000000  0 10G31G10G27G28G29G 7G26G13G 8G19
  22130118.667   -18422276.95343 -14338643.10042  22130120.840    22130117.016
  23745994.980    -5729296.15143  -4454439.28342  23745996.417    23745993.678
  20939196.067   -24468487.93144 -18867474.03442  20939197.890    20939192.892
  21064474.750   -21273441.91643 -16535082.96442  21064476.828    21064470.853
  23033154.448   -14064623.82343 -10766466.46542  23033157.017    23033152.392
  24256699.566    -5475128.78943  -4257114.94442  24256701.798    24256701.366
  23577840.571    -8606711.23943  -6697080.44642  23577843.205    23577839.510
  23559814.222   -10748191.07143  -7858990.42342  23559816.639    23559812.347
  20223091.561   -28522575.04644 -22190201.56642  20223092.189    20223086.929
  22886854.328   -13364096.21643 -10400259.25742  22886856.085    22886849.824
 04  7 22  2 53  0.0000000  0 10G31G10G27G28G29G 7G26G13G 8G19
  22110778.690   -18523908.96743 -14417836.82342  22110780.837    22110777.010
  23757001.259    -5671457.71843  -4409370.44242  23757002.727    23757000.005
  20944183.457   -24442279.05843 -18847051.54842  20944185.298    20944180.250
  21056429.347   -21315720.62543 -16568027.39542  21056431.419    21056425.436
  23017241.509   -14148247.13843 -10831627.45142  23017244.016    23017239.392
  24236627.735    -5580606.61543  -4339305.30242  24236629.879    24236629.284
  23559707.339    -8702002.41243  -6771333.25142  23559709.930    23559706.059
  23580761.170   -10638114.40043  -7773216.48242  23580763.550    23580759.361
  20221328.955   -28531837.67344 -22197419.21842  20221329.573    20221324.338
  22896355.817   -13314165.73943 -10361352.41442  22896357.534    22896351.260
 04  7 22  2 53 30.0000000  0 10G31G10G27G28G29G 7G26G13G 8G19
  22091495.341   -18625243.46343 -14496798.71342  22091497.440    22091493.647
  23768079.615    -5613240.62543  -4364006.54142  23768081.063    23768078.381
  20949225.442   -24415783.29943 -18826405.51942  20949227.287    20949222.223
  21048450.269   -21357650.85643 -16600700.28642  21048452.354    21048446.357
  23001386.187   -14231567.48243 -10896552.36742  23001388.671    23001384.020
  24216564.170    -5686040.64143  -4421461.51742  24216566.279    24216565.668
  23541626.334    -8797018.98043  -6845372.08842  23541628.916    23541624.901
  23601741.087   -10527864.78443  -7687307.78142  23601743.464    23601739.302
  20219628.714   -28540772.70644 -22204381.60142  20219629.315    20219624.072
  22905953.808   -13263728.11343 -10322050.40042  22905955.522    22905949.230
 04  7 22  2 54  0.0000000  0 10G31G10G27G28G29G 7G26G13G 8G19
  22072268.564   -18726280.87543 -14575529.10942  22072270.632    22072266.791
  23779228.814    -5554651.21243  -4318352.52342  23779230.271    23779227.650
  20954321.469   -24389003.65743 -18805538.28042  20954323.306    20954318.229
  21040536.860   -21399236.09943 -16633104.35642  21040538.945    21040532.915
  22985588.355   -14314585.63943 -10961241.81542  22985590.857    22985586.174
  24196508.804    -5791432.04143  -4503584.53342  24196510.879    24196510.315
  23523597.372    -8891761.43543  -6919197.32442  23523599.949    23523595.939
  23622752.741   -10417448.29243  -7601269.05842  23622755.098    23622750.944
  20217990.251   -28549382.88844 -22211090.84442  20217990.864    20217985.625
  22915647.243   -13212788.67743 -10282357.35242  22915648.984    22915642.712
 04  7 22  2 54 30.0000000  0 10G31G10G27G28G29G 7G26G13G 8G19
  22053099.272   -18827016.06443 -14654024.01642  22053101.327    22053097.468
  23790448.888    -5495690.09643  -4272408.85542  23790450.359    23790447.608
  20959472.042   -24361937.37843 -18784447.68942  20959473.859    20959468.777
  21032689.453   -21440474.18943 -16665237.91342  21032691.557    21032685.548
  22969848.940   -14397296.84543 -11025692.06842  22969851.455    22969846.756
  24176462.233    -5896776.32343  -4585670.83842  24176464.470    24176463.850
  23505621.337    -8986225.25643  -6992805.43542  23505624.010    23505619.923
  23643796.085   -10306864.88943  -7515100.26542  23643798.524    23643794.303
  20216414.206   -28557665.13344 -22217544.54342  20216414.808    20216409.584
  22925436.333   -13161346.80843 -10242272.79642  22925438.001    22925431.802
 04  7 22  2 55  0.0000000  0 10G31G10G27G28G29G 7G26G13G 8G19
  22033988.091   -18927445.83843 -14732280.93342  22033990.178    22033986.248
  23801739.193    -5436359.54843  -4226177.33042  23801740.669    23801737.809
  20964677.264   -24334583.73443 -18763133.17942  20964679.094    20964674.014
  21024908.128   -21481365.25144 -16697101.06242  21024910.226    21024904.202
  22954168.297   -14479698.91843 -11089901.44342  22954170.869    22954166.124
  24156425.161    -6002071.03143  -4667718.49742  24156427.195    24156426.840
  23487698.882    -9080407.38643  -7066194.03942  23487701.649    23487697.610
  23664870.876   -10196116.28643  -7428802.74142  23664873.370    23664869.106
  20214900.766   -28565618.34144 -22223741.84842  20214901.373    20214896.138
  22935320.675   -13109404.11243 -10201798.00342  22935322.327    22935316.230
 04  7 22  2 55 30.0000000  0 10G31G10G27G28G29G 7G26G13G 8G19
  22014935.390   -19027568.24843 -14810298.34842  22014937.512    22014933.515
  23813098.828    -5376663.83743  -4179661.25342  23813100.367    23813097.570
  20969937.079   -24306943.39943 -18741595.27242  20969938.894    20969933.819
  21017192.634   -21521910.47843 -16728694.72142  21017194.717    21017188.668
  22938546.789   -14561790.26943 -11153868.71142  22938549.367    22938544.576
  24136397.613    -6107314.80643  -4749726.47442  24136399.654    24136399.366
  23469830.440    -9174306.34343  -7139361.99242  23469833.154    23469829.114
  23685976.280   -10085206.54643  -7342379.66742  23685978.765    23685974.598
  20213449.937   -28573242.54144 -22229682.78642  20213450.548    20213445.300
  22945299.801   -13056963.57343 -10160935.27342  22945301.462    22945295.388
 04  7 22  2 56  0.0000000  0 10G31G10G27G28G29G 7G26G13G 8G19
  21995941.138   -19127383.38343 -14888076.31542  21995943.270    21995939.279
  23824527.063    -5316608.54143  -4132864.97742  23824528.563    23824525.815
  20975250.968   -24279018.71843 -18719835.79942  20975252.804    20975247.743
  21009542.304   -21562112.99543 -16760021.33642  21009544.408    21009538.356
  22922984.288   -14643571.42743 -11217594.26442  22922986.901    22922982.095
  24116380.055    -6212508.25043  -4831695.22742  24116381.813    24116381.402
  23452015.838    -9267922.67443  -7212309.72042  23452018.483    23452014.491
  23707111.364    -9974141.20343  -7255835.33642  23707113.844    23707109.745
  20212061.100   -28580540.82544 -22235369.77642  20212061.707    20212056.501
  22955372.915   -13004029.93443 -10119688.30842  22955374.502    22955368.373
 04  7 22  2 56 30.0000000  0 10G31G10G27G28G29G 7G26G13G 8G19
  21977007.405   -19226880.64243 -14965606.59342  21977009.553    21977005.591
  23836024.608    -5256189.17143  -4085784.99542  23836026.051    23836023.326
  20980620.448   -24250801.92443 -18697848.70042  20980622.274    20980617.260
  21001958.633   -21601965.25843 -16791075.03042  21001960.756    21001954.706
  22907482.779   -14725032.54943 -11281070.44442  22907485.291    22907480.569
  24096373.831    -6317641.58243  -4913617.14742  24096375.428    24096375.027
  23434256.891    -9361246.05243  -7285029.17142  23434259.572    23434255.576
  23728277.027    -9862914.82143  -7169165.53142  23728279.429    23728275.512
  20210735.889   -28587504.82444 -22240796.29042  20210736.494    20210731.304
  22965540.802   -12950597.51543 -10078052.68142  22965542.480    22965536.252
 04  7 22  2 57  0.0000000  0 10G31G10G27G28G29G 7G26G13G 8G19
  21958133.310   -19326064.46343 -15042892.63442  21958135.446    21958131.490
  23847589.343    -5195415.79943  -4038429.18242  23847590.800    23847588.274
  20986044.243   -24222299.63143 -18675639.13442  20986046.062    20986041.106
  20994440.209   -21641474.88943 -16821861.73842  20994442.313    20994436.284
  22892041.199   -14806178.57843 -11344301.08842  22892043.658    22892039.000
  24076377.978    -6422719.92243  -4995496.21642  24076379.529    24076379.210
  23416552.859    -9454281.18843  -7357524.02642  23416555.556    23416551.546
  23749471.665    -9751537.07143  -7082377.76642  23749474.034    23749470.098
  20209473.149   -28594140.62144 -22245967.05842  20209473.749    20209468.557
  22975801.793   -12896675.53943 -10036035.58442  22975803.508    22975797.275
 04  7 22  2 57 30.0000000  0 10G31G10G27G28G29G 7G26G13G 8G19
  21939320.555   -19424926.04243 -15119927.57642  21939322.609    21939318.658
  23859222.161    -5134285.62843  -3990795.35442  23859223.493    23859220.987
  20991523.591   -24193505.64043 -18653202.26642  20991525.388    20991520.450
  20986988.046   -21680636.33443 -16852377.13642  20986990.143    20986984.091
  22876661.110   -14887001.19243 -11407279.72742  22876663.561    22876658.954
  24056394.136    -6527734.99043  -5077325.97842  24056395.719    24056395.355
  23398905.319    -9547019.60643  -7429787.66642  23398907.951    23398903.993
  23770695.672    -9640004.63643  -6995469.47642  23770698.105    23770694.093
  20208274.026   -28600442.03844 -22250877.26242  20208274.632    20208269.436
  22986156.715   -12842260.05643  -9993633.93842  22986158.404    22986152.222
 04  7 22  2 58  0.0000000  0 10G31G10G27G28G29G 7G26G13G 8G19
  21920568.648   -19523467.62243 -15196713.16442  21920570.711    21920566.763
  23870921.364    -5072806.60643  -3942889.67242  23870922.741    23870920.153
  20997057.522   -24164424.70143 -18630541.81242  20997059.310    20997054.353
  20979601.111   -21719454.79244 -16882625.26242  20979603.206    20979597.154
  22861342.126   -14967503.23543 -11470008.56242  22861344.504    22861339.887
  24036421.751    -6632689.63843  -5159108.66842  24036423.431    24036422.983
  23381313.745    -9639463.95543  -7501822.15542  23381316.335    23381312.410
  23791947.680    -9528325.14343  -6908446.59542  23791950.110    23791946.068
  20207137.755   -28606413.08344 -22255530.02942  20207138.373    20207133.194
  22996604.285   -12787357.98643  -9950853.13142  22996605.959    22996599.767
 04  7 22  2 58 30.0000000  0 10G31G10G27G28G29G 7G26G13G 8G19
  21901879.498   -19621679.30643 -15273241.69042  21901881.596    21901877.652
  23882687.706    -5010974.61143  -3894708.95442  23882689.137    23882686.447
  21002647.453   -24135049.40243 -18607651.98242  21002649.257    21002644.261
  20972280.742   -21757923.46343 -16912600.83442  20972282.841    20972276.760
  22846085.846   -15047675.31143 -11532480.27242  22846088.234    22846083.584
  24016462.676    -6737574.60743  -5240837.06342  24016464.394    24016463.855
  23363779.852    -9731604.66643  -7573620.06642  23363782.593    23363778.529
  23813228.611    -9416493.90943  -6821305.48342  23813230.969    23813226.898
  20206065.712   -28612046.82044 -22259919.96142  20206066.316    20206061.130
  23007145.409   -12731964.38743  -9907689.31242  23007147.064    23007140.805
 04  7 22  2 59  0.0000000  0 10G31G10G27G28G29G 7G26G13G 8G19
  21883252.854   -19719562.90743 -15349514.57842  21883254.930    21883250.967
  23894519.599    -4948797.53643  -3846259.36042  23894521.077    23894518.422
  21008292.581   -24105384.03143 -18584536.12842  21008294.408    21008289.384
  20965025.955   -21796047.57743 -16942307.91842  20965028.052    20965021.969
  22830891.891   -15127519.76943 -11594696.69842  22830894.321    22830889.670
  23996516.404    -6842392.35043  -5322513.08142  23996518.117    23996517.598
  23346303.405    -9823443.80443  -7645182.96442  23346306.167    23346301.999
  23834536.941    -9304518.30343  -6734051.86842  23834539.309    23834535.264
  20205057.128   -28617347.03044 -22264049.99542  20205057.725    20205052.558
  23017778.647   -12676086.06743  -9864147.79042  23017780.354    23017774.104
 04  7 22  2 59 30.0000000  0 10G31G10G27G28G29G 7G26G13G 8G19
  21864689.168   -19817115.65943 -15425529.65742  21864691.247    21864687.228
  23906416.754    -4886278.26743  -3797543.09242  23906418.222    23906415.515
  21013992.973   -24075428.30643 -18561194.02042  21013994.796    21013989.739
  20957836.720   -21833827.38743 -16971746.71842  20957838.787    20957832.695
  22815760.645   -15207034.59043 -11656656.26742  22815763.135    22815758.479
  23976583.313    -6947140.70443  -5404135.03242  23976585.133    23976584.523
  23328884.734    -9914979.01943  -7716509.04342  23328887.569    23328883.374
  23855872.350    -9192400.59243  -6646687.51242  23855874.585    23855870.678
  20204112.172   -28622312.69844 -22267919.34642  20204112.800    20204107.635
  23028503.826   -12619724.93743  -9820230.05242  23028505.505    23028499.324
 04  7 22  3  0  0.0000000  0 10G31G10G27G28G29G 7G26G13G 8G19
  21846188.998   -19914334.60943 -15501284.63242  21846191.085    21846187.030
  23918378.370    -4823419.78243  -3748562.52142  23918379.788    23918377.157
  21019748.733   -24045181.73743 -18537625.28042  21019750.533    21019745.450
  20950712.956   -21871262.91044 -17000917.23742  20950715.041    20950708.929
  22800692.740   -15286217.15643 -11718356.92442  22800695.160    22800690.565
  23956663.871    -7051817.30143  -5485701.06942  23956665.784    23956665.130
  23311524.410   -10006207.65143  -7787596.23142  23311527.246    23311523.058
  23877234.091    -9080143.35143  -6559214.42642  23877236.470    23877232.600
  20203231.009   -28626943.26044 -22271527.57142  20203231.627    20203226.467
  23039320.533   -12562882.75543  -9775937.46842  23039322.230    23039316.021
 04  7 22  3  0 30.0000000  0 10G31G10G27G28G29G 7G26G13G 8G19
  21827753.315   -20011214.46443 -15576775.37642  21827755.430    21827751.327
  23930404.375    -4760222.64843  -3699318.05742  23930405.771    23930403.216
  21025560.337   -24014641.44143 -18513827.66742  21025562.151    21025557.096
  20943655.089   -21908352.21343 -17029817.98342  20943657.165    20943651.072
  22785688.920   -15365062.67243 -11779794.94442  22785691.389    22785686.741
  23936758.985    -7156417.36343  -5567207.46242  23936761.093    23936760.296
  23294223.490   -10097124.64943  -7858440.59442  23294226.271    23294222.039
  23898622.565    -8967746.62643  -6471632.67042  23898624.892    23898621.119
  20202414.113   -28631236.17244 -22274872.69342  20202414.707    20202409.544
  23050228.909   -12505559.23043  -9731269.81842  23050230.596    23050224.335
 04  7 22  3  1  0.0000000  0 10G31G10G27G28G29G 7G26G13G 8G19
  21809382.573   -20107753.24643 -15652000.35542  21809384.707    21809380.536
  23942494.057    -4696690.84943  -3649812.81442  23942495.578    23942492.942
  21031427.719   -23983808.06943 -18489801.68042  21031429.544    21031424.503
  20936662.906   -21945096.29943 -17058449.72442  20936664.988    20936658.903
  22770749.499   -15443569.82543 -11840969.30842  22770752.008    22770747.294
  23916869.007    -7260939.63543  -5648653.25142  23916871.088    23916870.210
  23276982.272   -10187728.44043  -7929040.89542  23276984.906    23276980.692
  23920036.950    -8855213.89843  -6383944.92842  23920039.364    23920035.520
  20201661.511   -28635191.10544 -22277954.45342  20201662.114    20201656.945
  23061228.113   -12447757.56043  -9686229.58442  23061229.860    23061223.649
 04  7 22  3  1 30.0000000  0 10G31G10G27G28G29G 7G26G13G 8G19
  21791076.962   -20203949.83243 -15726958.68442  21791079.070    21791074.884
  23954646.692    -4632828.99543  -3600050.38542  23954648.237    23954645.477
  21037350.688   -23952682.89543 -18465548.31542  21037352.485    21037347.431
  20929736.015   -21981497.37643 -17086814.18542  20929738.090    20929731.990
  22755874.561   -15521738.05343 -11901879.56242  22755877.110    22755872.348
  23896993.911    -7365383.55143  -5730037.98942  23896996.020    23896995.058
  23259800.665   -10278018.18043  -7999396.47342  23259803.316    23259799.089
  23941476.376    -8742549.16843  -6296154.32142  23941478.900    23941474.950
  20200973.034   -28638809.14044 -22280773.69542  20200973.651    20200968.443
  23072317.712   -12389481.31843  -9640819.55742  23072319.458    23072313.274
 04  7 22  3  2  0.0000000  0 10G31G10G27G28G29G 7G26G13G 8G19
  21772838.289   -20299794.61043 -15801642.87742  21772840.390    21772836.162
  23966862.599    -4568633.63743  -3550028.09742  23966864.133    23966861.558
  21043330.532   -23921258.68943 -18441061.93942  21043332.368    21043327.273
  20922875.631   -22017548.93644 -17114906.30142  20922877.717    20922871.571
  22741065.816   -15599558.16043 -11962518.55742  22741068.389    22741063.625
  23877135.490    -7469740.09143  -5811354.64442  23877137.574    23877136.511
  23242680.541   -10367984.55143  -8069500.09042  23242683.285    23242679.048
  23962941.803    -8629748.10843  -6208257.48742  23962944.282    23962940.351
  20200350.081   -28642083.04344 -22283324.77742  20200350.641    20200345.435
  23083498.536   -12330725.68643  -9595035.97342  23083500.230    23083494.162
 04  7 22  3  2 30.0000000  0 10G31G10G27G28G29G 7G26G13G 8G19
  21754665.390   -20395293.41543 -15876057.47442  21754667.535    21754663.309
  23979139.965    -4504116.33843  -3499754.94042  23979141.420    23979138.895
  21049365.687   -23889543.87543 -18416349.11242  21049367.498    21049362.418
  20916080.066   -22053259.91744 -17142733.02742  20916082.158    20916075.972
  22726322.112   -15677036.53143 -12022891.26542  22726324.659    22726319.932
  23857292.452    -7574015.57143  -5892608.13842  23857294.539    23857293.429
  23225620.939   -10457633.59743  -8139356.43742  23225623.680    23225619.415
  23984430.898    -8516821.95843  -6120263.18242  23984433.390    23984429.631
  20199791.038   -28645021.17244 -22285614.22242  20199791.529    20199786.313
  23094768.519   -12271501.50643  -9548887.29542  23094770.234    23094764.139
 04  7 22  3  3  0.0000000  0 10G31G10G27G28G29G 7G26G13G 8G19
  21736559.438   -20490440.64543 -15950198.12542  21736561.587    21736557.325
  23991478.516    -4439277.18043  -3449230.97942  23991479.871    23991477.447
  21055456.704   -23857535.31443 -18391407.38942  21055458.523    21055453.483
  20909349.755   -22088627.90943 -17170292.49042  20909351.825    20909345.674
  22711644.417   -15754168.14843 -12082993.76842  22711646.916    22711642.228
  23837465.739    -7678205.01143  -5973794.59142  23837467.767    23837466.587
  23208622.661   -10546960.18443  -8208961.52242  23208625.348    23208621.130
  24005943.906    -8403770.65643  -6032171.37042  24005946.383    24005942.641
  20199296.539   -28647619.65744 -22287639.01642  20199297.033    20199291.859
  23106127.857   -12211808.10243  -9502372.98842  23106129.585    23106123.468
 04  7 22  3  3 30.0000000  0 10G31G10G27G28G29G 7G26G13G 8G19
  21718521.565   -20585230.17943 -16024060.04442  21718523.690    21718519.426
  24003878.337    -4374115.92043  -3398456.03242  24003879.670    24003877.376
  21061604.353   -23825229.29643 -18366233.88342  21061606.149    21061601.132
  20902685.255   -22123649.85243 -17197582.30642  20902687.348    20902681.223
  22697033.742   -15830947.32243 -12142821.65542  22697036.273    22697031.583
  23817656.483    -7782302.76343  -6054909.59042  23817658.476    23817657.283
  23191686.787   -10635958.26643  -8278310.62842  23191689.557    23191685.350
  24027480.794    -8290593.17143  -5943981.21042  24027483.438    24027479.732
  20198867.404   -28649874.75344 -22289396.23642  20198867.905    20198862.746
  23117576.651   -12151644.30443  -9455492.13742  23117578.413    23117572.310
 04  7 22  3  4  0.0000000  0 10G31G10G27G28G29G 7G26G13G 8G19
  21700552.058   -20679660.50043 -16097642.06642  21700554.172    21700549.894
  24016338.591    -4308637.02243  -3347433.58942  24016339.933    24016337.641
  21067808.388   -23792626.85343 -18340829.40042  21067810.199    21067805.209
  20896086.359   -22158327.42243 -17224603.77942  20896088.415    20896082.297
  22682490.393   -15907373.18143 -12202374.22642  22682492.909    22682488.175
  23797864.740    -7886308.04643  -6135952.54742  23797866.718    23797865.504
  23174813.630   -10724626.64643  -8347402.82542  23174816.441    23174812.286
  24049041.182    -8177293.10543  -5855695.55842  24049043.737    24049040.097
  20198503.494   -28651786.87244 -22290886.19542  20198504.033    20198498.882
  23129114.339   -12091013.57543  -9408247.44742  23129116.112    23129109.973
 04  7 22  3  4 30.0000000  0 10G31G10G27G28G29G 7G26G13G 8G19
  21682651.131   -20773730.25943 -16170943.13642  21682653.242    21682648.977
  24028858.383    -4242845.22543  -3296167.31342  24028859.786    24028857.469
  21074068.688   -23759728.99143 -18315194.72542  21074070.472    21074065.502
  20889552.518   -22192662.75544 -17251358.57442  20889554.591    20889548.475
  22668014.435   -15983444.67943 -12261650.66742  22668016.961    22668012.221
  23778090.932    -7990219.85243  -6216922.68042  23778092.856    23778091.476
  23158003.516   -10812964.29843  -8416237.32142  23158006.279    23158002.122
  24070624.001    -8063874.83443  -5767317.78342  24070626.592    24070622.983
  20198204.710   -28653356.95044 -22292109.62942  20198205.264    20198200.074
  23140740.255   -12029919.46543  -9360641.68342  23140741.971    23140735.787
 04  7 22  3  5  0.0000000  0 10G31G10G27G28G29G 7G26G13G 8G19
  21664819.580   -20867435.31843 -16243960.02242  21664821.697    21664817.466
  24041437.410    -4176742.08243  -3244658.44442  24041438.847    24041436.553
  21080385.472   -23726534.09243 -18289328.59242  21080387.274    21080382.294
  20883084.105   -22226654.52943 -17277845.66442  20883086.166    20883080.034
  22653606.575   -16059158.41943 -12320648.34842  22653609.114    22653604.287
  23758335.463    -8094034.76243  -6297817.30642  23758337.366    23758335.965
  23141257.157   -10900967.20943  -8484810.98542  23141259.906    23141255.659
  24092229.142    -7950339.25643  -5678848.59642  24092231.614    24092228.075
  20197971.338   -28654583.22044 -22293065.16842  20197971.921    20197966.695
  23152454.070   -11968362.90343  -9312675.56542  23152455.806    23152449.637
 04  7 22  3  5 30.0000000  0 10G31G10G27G28G29G 7G26G13G 8G19
  21647058.362   -20960771.15043 -16316689.19442  21647060.423    21647056.197
  24054075.378    -4110328.88143  -3192907.96042  24054076.854    24054074.524
  21086759.179   -23693040.03343 -18263229.34542  21086760.996    21086756.036
  20876681.328   -22260301.34044 -17304063.95142  20876683.386    20876677.252
  22639267.515   -16134510.35143 -12379364.10142  22639270.106    22639265.253
  23738599.355    -8197748.54143  -6378633.14042  23738601.134    23738599.841
  23124575.255   -10988631.23743  -8553120.57742  23124577.925    23124573.757
  24113856.524    -7836686.99143  -5590288.49242  24113859.123    24113855.471
  20197803.880   -28655463.09244 -22293750.78442  20197804.491    20197799.236
  23164255.781   -11906344.25943  -9264349.37842  23164257.509    23164251.426
 04  7 22  3  6  0.0000000  0 10G31G10G27G28G29G 7G26G13G 8G19
  21629367.003   -21053739.58043 -16389132.07542  21629369.058    21629364.850
  24066770.934    -4043613.48743  -3140921.99242  24066772.438    24066770.175
  21093188.957   -23659251.28643 -18236900.47142  21093190.763    21093185.837
  20870343.192   -22293608.34843 -17330017.45442  20870345.266    20870339.131
  22624996.898   -16209502.85543 -12437799.78642  22624999.434    22624994.599
  23718882.032    -8301363.77743  -6459372.18342  23718883.737    23718882.308
  23107957.379   -11075958.59743  -8621167.82742  23107960.029    23107955.887
  24135504.723    -7722925.53543  -5501643.30642  24135507.166    24135503.614
  20197701.518   -28656000.81344 -22294169.79142  20197702.153    20197696.896
  23176144.220   -11843870.21143  -9215668.33442  23176145.922    23176139.898
 04  7 22  3  6 30.0000000  0 10G31G10G27G28G29G 7G26G13G 8G19
  21611747.393   -21146331.13143 -16461281.29042  21611749.453    21611745.215
  24079524.720    -3976592.13343  -3088697.62842  24079526.196    24079524.003
  21099676.227   -23625160.71043 -18210336.39942  21099678.032    21099673.057
  20864070.933   -22326569.30043 -17355701.30142  20864072.981    20864066.848
  22610796.436   -16284126.72543 -12495948.21942  22610798.920    22610794.114
  23699185.272    -8404871.47143  -6540027.43242  23699186.999    23699185.350
  23091405.381   -11162939.94143  -8688945.45542  23091407.985    23091403.798
  24157174.463    -7609050.60343  -5412909.69642  24157176.867    24157173.443
  20197665.744   -28656188.80044 -22294316.27242  20197666.374    20197661.117
  23188120.175   -11780936.23543  -9166628.91742  23188121.863    23188115.882
 04  7 22  3  7  0.0000000  0 10G31G10G27G28G29G 7G26G13G 8G19
  21594199.259   -21238547.24643 -16533137.96442  21594201.317    21594197.008
  24092335.332    -3909272.29243  -3036240.67842  24092336.845    24092334.605
  21106220.158   -23590772.21343 -18183540.18342  21106221.987    21106216.957
  20857863.662   -22359188.76743 -17381119.06142  20857865.721    20857859.545
  22596665.689   -16358384.23243 -12553811.18542  22596668.152    22596663.332
  23679508.422    -8508273.47543  -6620600.30642  23679510.092    23679508.536
  23074918.893   -11249576.87643  -8756454.70642  23074921.510    23074917.281
  24178864.673    -7495068.72443  -5324092.75242  24178867.095    24178863.584
  20197695.887   -28656030.46144 -22294192.89842  20197696.505    20197691.283
  23200182.381   -11717548.92543  -9117236.24242  23200184.083    23200178.103
 04  7 22  3  7 30.0000000  0 10G31G10G27G28G29G 7G26G13G 8G19
  21576723.461   -21330382.86643 -16604698.14242  21576725.556    21576721.198
  24105202.477    -3841654.67843  -2983551.69142  24105204.026    24105201.841
  21112821.291   -23556083.07643 -18156509.70342  21112823.115    21112818.100
  20851721.754   -22391464.66643 -17406269.10642  20851723.807    20851717.636
  22582605.569   -16432270.52343 -12611384.89142  22582608.010    22582603.188
  23659852.607    -8611565.20643  -6701087.26842  23659854.292    23659852.678
  23058498.775   -11335864.73743  -8823691.95042  23058501.403    23058497.213
  24200575.048    -7380979.99743  -5235192.55442  24200577.498    24200574.010
  20197792.368   -28655523.44644 -22293797.83242  20197792.981    20197787.785
  23212330.945   -11653708.15243  -9067490.22042  23212332.614    23212326.645
 04  7 22  3  8  0.0000000  0 10G31G10G27G28G29G 7G26G13G 8G19
  21559319.631   -21421840.38843 -16675963.70442  21559321.723    21559317.333
  24118124.733    -3773747.59943  -2930637.15542  24118126.330    24118124.152
  21119478.679   -23521098.28743 -18129248.84242  21119480.514    21119475.514
  20845644.119   -22423402.75044 -17431155.91242  20845646.181    20845640.014
  22568615.557   -16505788.67143 -12668671.73442  22568617.945    22568613.089
  23640217.178    -8714749.68443  -6781490.65742  23640218.909    23640217.169
  23042144.532   -11421805.97243  -8890659.10142  23042147.235    23042143.067
  24222304.237    -7266792.39443  -5146215.29842  24222306.727    24222303.374
  20197954.371   -28654672.11944 -22293134.47442  20197954.967    20197949.777
  23224564.347   -11589421.39443  -9017396.68242  23224565.989    23224560.099
 04  7 22  3  8 30.0000000  0 10G31G10G27G28G29G 7G26G13G 8G19
  21541989.561   -21512910.35043 -16746927.26742  21541991.657    21541987.236
  24131102.996    -3705547.36943  -2877494.17942  24131104.515    24131102.245
  21126193.689   -23485810.74143 -18101752.06742  21126195.532    21126190.529
  20839632.016   -22454996.72343 -17455774.57942  20839634.055    20839627.877
  22554697.220   -16578929.63043 -12725664.67242  22554699.624    22554694.784
  23620603.723    -8817817.95743  -6861803.49242  23620605.685    23620603.785
  23025858.152   -11507391.50043  -8957349.06442  23025860.821    23025856.583
  24244053.156    -7152501.54243  -5057157.60942  24244055.762    24244052.258
  20198183.363   -28653468.75644 -22292196.78542  20198183.973    20198178.759
  23236883.504   -11524683.88643  -8966951.90942  23236885.142    23236879.298
 04  7 22  3  9  0.0000000  0 10G31G10G27G28G29G 7G26G13G 8G19
  21524733.401   -21603591.88343 -16817588.15542  21524735.528    21524731.078
  24144135.889    -3637059.14843  -2824126.81442  24144137.431    24144135.264
  21132965.998   -23450222.07643 -18074020.64742  21132967.866    21132962.823
  20833684.979   -22486248.75043 -17480126.80242  20833687.008    20833680.774
  22540850.791   -16651693.05143 -12782363.42342  22540853.194    22540848.325
  23601012.533    -8920769.55743  -6942025.40642  23601014.499    23601012.640
  23009639.574   -11592620.53943  -9023761.25742  23009642.235    23009638.003
  24265820.891    -7038111.88843  -4968022.92142  24265823.431    24265819.930
  20198479.023   -28651915.04944 -22290986.10942  20198479.632    20198474.411
  23249287.632   -11459499.93143  -8916159.26042  23249289.231    23249283.461
 04  7 22  3  9 30.0000000  0 10G31G10G27G28G29G 7G26G13G 8G19
  21507551.549   -21693882.94643 -16887944.78642  21507553.674    21507549.235
  24157222.925    -3568286.65243  -2770537.92242  24157224.351    24157222.305
  21139795.540   -23414332.59843 -18046054.83842  21139797.383    21139792.354
  20827802.728   -22517160.19643 -17504213.64242  20827804.753    20827798.504
  22527076.505   -16724077.37543 -12838766.78242  22527078.895    22527074.035
  23581443.906    -9023602.88943  -7022155.16842  23581445.869    23581443.968
  22993489.187   -11677491.48443  -9089894.40642  22993491.870    22993487.577
  24287606.846    -6923626.48643  -4878813.60842  24287609.297    24287605.723
  20198841.296   -28650011.27544 -22289502.65142  20198841.908    20198836.705
  23261776.085   -11393872.66943  -8865021.16942  23261777.754    23261771.929
 04  7 22  3 10  0.0000000  0 10G31G10G27G28G29G 7G26G13G 8G19
  21490444.777   -21783779.22043 -16957993.78642  21490446.908    21490442.503
  24170363.673    -3499231.60843  -2716728.86342  24170365.183    24170363.100
  21146682.629   -23378140.75043 -18017853.41442  21146684.469    21146679.467
  20821985.502   -22547729.76443 -17528034.08342  20821987.542    20821981.279
  22513375.080   -16796078.74543 -12894871.72642  22513377.495    22513372.603
  23561898.469    -9126314.18643  -7102189.84642  23561900.423    23561898.615
  22977407.691   -11762000.19443  -9155745.29942  22977410.362    22977406.033
  24309410.790    -6809046.48843  -4789530.60142  24309413.348    24309409.627
  20199270.658   -28647754.93844 -22287744.46942  20199271.265    20199266.082
  23274348.769   -11327802.60243  -8813538.03142  23274350.490    23274344.672
 04  7 22  3 10 30.0000000  0 10G31G10G27G28G29G 7G26G13G 8G19
  21473412.655   -21873283.31543 -17027737.19242  21473414.773    21473410.382
  24183556.771    -3429902.29943  -2662706.10642  24183558.153    24183556.065
  21153626.402   -23341651.08443 -17989419.91842  21153628.241    21153623.219
  20816232.290   -22577963.06643 -17551592.49742  20816234.311    20816228.079
  22499745.917   -16867700.36643 -12950680.77342  22499748.322    22499743.481
  23542375.755    -9228906.37943  -7182131.70042  23542377.650    23542375.864
  22961394.544   -11846149.30343  -9221315.97742  22961397.199    22961392.912
  24331231.395    -6694379.35943  -4700179.70542  24331233.793    24331230.046
  20199766.301   -28645150.44944 -22285715.00142  20199766.902    20199761.689
  23287004.334   -11261297.32043  -8761715.76542  23287006.024    23287000.243
 04  7 22  3 11  0.0000000  0 10G31G10G27G28G29G 7G26G13G 8G19
  21456457.567   -21962382.71443 -17097165.25742  21456459.672    21456455.268
  24196803.156    -3360292.04543  -2608464.40942  24196804.654    24196802.532
  21160628.683   -23304853.86243 -17960746.76842  21160630.505    21160625.531
  20810544.790   -22607850.98643 -17574881.78042  20810546.818    20810540.601
  22486191.312   -16938929.94443 -13006184.33542  22486193.754    22486188.900
  23522878.027    -9331367.55943  -7261971.46442  23522879.899    23522878.071
  22945452.208   -11929926.64243  -9286596.95942  22945454.806    22945450.538
  24353069.782    -6579617.91743  -4610755.28942  24353072.159    24353068.508
  20200330.069   -28642187.91044 -22283406.53342  20200330.650    20200325.445
  23299744.112   -11194349.35543  -8709548.56242  23299745.787    23299739.987
 04  7 22  3 11 30.0000000  0 10G31G10G27G28G29G 7G26G13G 8G19
  21439578.472   -22051082.87043 -17166282.22342  21439580.573    21439576.163
  24210100.930    -3290411.94243  -2554012.44642  24210102.480    24210100.249
  21167688.031   -23267756.76743 -17931839.95742  21167689.832    21167684.902
  20804921.412   -22637401.88743 -17597908.45442  20804923.451    20804917.237
  22472710.157   -17009773.62843 -13061387.20042  22472712.586    22472707.761
  23503404.026    -9433703.62143  -7341713.73942  23503405.855    23503404.060
  22929579.592   -12013337.86643  -9351592.66242  22929582.163    22929577.814
  24374924.185    -6464772.85743  -4521265.74342  24374926.457    24374922.999
  20200960.579   -28638874.60044 -22280824.74242  20200961.175    20200955.973
  23312566.131   -11126969.12643  -8657044.52242  23312567.840    23312561.984
 04  7 22  3 12  0.0000000  0 10G31G10G27G28G29G 7G26G13G 8G19
  21422776.976   -22139375.31443 -17235081.49742  21422779.061    21422774.624
  24223450.514    -3220259.71743  -2499348.44442  24223451.987    24223449.916
  21174805.523   -23230354.08243 -17902695.03142  21174807.328    21174802.419
  20799363.147   -22666610.64643 -17620668.52342  20799365.184    20799358.988
  22459303.943   -17080223.48543 -13116283.18142  22459306.359    22459301.586
  23483955.420    -9535906.51143  -7421352.23842  23483957.245    23483955.405
  22913778.138   -12096374.75243  -9416296.67242  22913780.694    22913776.410
  24396795.114    -6349840.91343  -4431708.48842  24396797.326    24396793.863
  20201659.000   -28635204.27444 -22277964.75842  20201659.611    20201654.425
  23325471.126   -11059153.29543  -8604201.05742  23325472.818    23325466.911
 04  7 22  3 12 30.0000000  0 10G31G10G27G28G29G 7G26G13G 8G19
  21406052.269   -22227263.93343 -17303566.08442  21406054.359    21406049.943
  24236849.990    -3149845.09243  -2444479.98642  24236851.489    24236849.409
  21181980.055   -23192651.70143 -17873316.56642  21181981.858    21181976.964
  20793868.658   -22695484.20543 -17643167.39842  20793870.696    20793864.522
  22445971.947   -17150283.77943 -13170875.61242  22445974.324    22445969.549
  23464531.366    -9637980.40643  -7500890.23442  23464533.147    23464531.327
  22898047.257   -12179041.08643  -9480711.95342  22898049.749    22898045.430
  24418680.850    -6234831.36843  -4342090.75442  24418683.127    24418679.572
  20202424.268   -28631182.84944 -22274831.18542  20202424.868    20202419.668
  23338457.383   -10990910.58643  -8551024.94042  23338459.054    23338453.135
 04  7 22  3 13  0.0000000  0 10G31G10G27G28G29G 7G26G13G 8G19
  21389406.341   -22314738.77643 -17371728.25642  21389408.392    21389404.009
  24250300.229    -3079163.87143  -2389403.77842  24250301.715    24250299.554
  21189212.980   -23154642.38143 -17843698.93342  21189214.794    21189209.911
  20788439.220   -22724016.04243 -17665399.99942  20788441.246    20788435.064
  22432715.880   -17219944.91843 -13225157.00342  22432718.251    22432713.454
  23445133.607    -9739915.82343  -7580320.32342  23445135.453    23445133.547
  22882388.638   -12261327.40743  -9544831.11542  22882391.159    22882386.843
  24440582.258    -6119739.26343  -4252408.69742  24440584.593    24440581.138
  20203257.721   -28626803.01944 -22271418.33742  20203258.322    20203253.110
  23351525.678   -10922236.25143  -8497512.50542  23351527.430    23351521.473
 04  7 22  3 13 30.0000000  0 10G31G10G27G28G29G 7G26G13G 8G19
  21372839.226   -22401799.53443 -17439567.76042  21372841.264    21372836.842
  24263800.106    -3008221.55343  -2334124.12442  24263801.586    24263799.569
  21196503.971   -23116327.98743 -17813843.57942  21196505.800    21196500.919
  20783074.334   -22752208.78443 -17687368.36842  20783076.342    20783070.153
  22419535.688   -17289207.08943 -13279127.51642  22419538.119    22419533.278
  23425762.128    -9841712.91843  -7659642.62642  23425763.986    23425762.144
  22866802.281   -12343233.62043  -9608654.09142  22866804.878    22866800.601
  24462498.570    -6004569.25143  -4162665.95042  24462500.941    24462497.433
  20204159.147   -28622065.96044 -22267727.12942  20204159.744    20204154.552
  23364675.264   -10853135.13143  -8443667.51142  23364677.020    23364671.060
 04  7 22  3 14  0.0000000  0 10G31G10G27G28G29G 7G26G13G 8G19
  21356350.853   -22488446.27143 -17507084.65742  21356352.910    21356348.462
  24277348.628    -2937024.40043  -2278645.90342  24277349.978    24277348.042
  21203852.542   -23077711.21143 -17783752.60942  21203854.348    21203849.495
  20777773.341   -22780065.62143 -17709074.99042  20777775.366    20777769.168
  22406431.313   -17358071.03443 -13332787.72242  22406433.719    22406428.920
  23406416.924    -9943372.17143  -7738857.52442  23406418.802    23406416.899
  22851288.290   -12424759.80443  -9672180.93942  22851290.877    22851286.662
  24484428.460    -5889326.59643  -4072866.57442  24484430.932    24484427.497
  20205128.220   -28616973.48444 -22263758.96942  20205128.840    20205123.617
  23377905.041   -10783612.15843  -8389493.79642  23377906.818    23377900.924
 04  7 22  3 14 30.0000000  0 10G31G10G27G28G29G 7G26G13G 8G19
  21339942.681   -22574671.74243 -17574273.29842  21339944.730    21339940.255
  24290945.930    -2865570.46343  -2222967.58742  24290947.227    24290945.369
  21211259.592   -23038786.95443 -17753422.04142  21211261.405    21211256.573
  20772537.113   -22807582.22943 -17730516.50142  20772539.133    20772532.913
  22393404.072   -17426529.74443 -13386132.15142  22393406.472    22393401.673
  23387099.301   -10044886.71943  -7817959.67342  23387101.146    23387099.244
  22835848.021   -12505898.96943  -9735406.21842  22835850.607    22835846.376
  24506372.740    -5774009.19643  -3983008.96342  24506375.176    24506371.854
  20206165.786   -28611521.01344 -22259510.29542  20206166.393    20206161.197
  23391215.627   -10713664.59443  -8334989.22842  23391217.420    23391211.446
 04  7 22  3 15  0.0000000  0 11G31G10G27G28G29G 7G26G13G 8G19G11
  21323613.166   -22660483.67943 -17641139.70242  21323615.191    21323610.744
  24304589.634    -2793873.45343  -2167099.86342  24304590.869    24304588.894
  21218723.206   -22999565.65643 -17722860.00942  21218725.006    21218720.160
  20767363.523   -22834769.76743 -17751701.59342  20767365.524    20767359.301
  22380452.380   -17494591.42343 -13439167.21342  22380454.801    22380449.951
  23367807.658   -10146264.64643  -7896955.35642  23367809.550    23367807.544
  22820479.859   -12586659.01843  -9798336.09442  22820482.421    22820478.209
  24528328.698    -5658630.23143  -3893103.38342  24528331.208    24528327.866
  20207270.083   -28605718.00744 -22254988.48242  20207270.663    20207265.494
  23404604.494   -10643305.71643  -8280164.16742  23404606.258    23404600.355
  24579005.577    -4282519.39753  -3332235.01252  24579008.136    24579004.324
 04  7 22  3 15 30.0000000  0 11G31G10G27G28G29G 7G26G13G 8G19G11
  21307365.782   -22745864.03043 -17707669.80442  21307367.806    21307363.374
  24318281.769    -2721921.16243  -2111033.21242  24318283.057    24318281.010
  21226246.351   -22960031.29243 -17692054.02742  21226248.167    21226243.321
  20762255.423   -22861613.08543 -17772618.46342  20762257.422    20762251.184
  22367579.581   -17562238.58643 -13491879.26442  22367582.004    22367577.096
  23348545.327   -10247488.33043  -7975830.86142  23348547.273    23348545.123
  22805187.259   -12667021.93243  -9860956.49942  22805189.853    22805185.601
  24550298.961    -5543176.52943  -3803139.57442  24550301.388    24550298.015
  20208444.095   -28599548.39944 -22250181.00742  20208444.698    20208439.564
  23418074.140   -10572522.25743  -8225008.25142  23418075.909    23418069.986
  24567637.980    -4342257.16543  -3378783.88742  24567640.489    24567636.523
 04  7 22  3 16  0.0000000  0 11G31G10G27G28G29G 7G26G13G 8G19G11
  21291199.923   -22830816.10443 -17773866.17942  21291201.939    21291197.494
  24332020.765    -2649722.69243  -2054774.75342  24332022.123    24332020.004
  21233827.921   -22920189.98443 -17661008.87742  21233829.750    21233824.902
  20757211.548   -22888118.71143 -17793272.19642  20757213.564    20757207.339
  22354784.897   -17629474.90843 -13544271.19142  22354787.341    22354782.408
  23329311.703   -10348561.49043  -8054589.07642  23329313.625    23329311.424
  22789969.540   -12746991.33243  -9923270.28942  22789972.154    22789967.910
  24572281.665    -5427656.58543  -3713124.13342  24572284.052    24572280.865
  20209686.845   -28593017.79744 -22245092.24242  20209687.439    20209682.299
  23431622.966   -10501322.71743  -8169528.10842  23431624.766    23431618.786
  24556314.495    -4401762.28443  -3425151.44442  24556317.011    24556313.135
 04  7 22  3 16 30.0000000  0 11G31G10G27G28G29G 7G26G13G 8G19G11
  21275115.741   -22915338.89843 -17839728.05542  21275117.750    21275113.271
  24345805.602    -2577282.77943  -1998328.16542  24345807.030    24345804.898
  21241467.717   -22880042.74143 -17629725.33142  21241469.550    21241464.700
  20752231.628   -22914288.40943 -17813664.16042  20752233.619    20752227.410
  22342068.555   -17696299.84443 -13596342.54942  22342070.982    22342066.002
  23310106.783   -10449483.30343  -8133229.35842  23310108.704    23310106.502
  22774826.887   -12826566.12143  -9985276.57142  22774829.495    22774825.266
  24594276.313    -5312074.13343  -3623059.97542  24594278.551    24594275.613
  20210998.074   -28586127.20744 -22239722.96842  20210998.662    20210993.552
  23445250.305   -10429710.66043  -8113726.54142  23445252.052    23445246.166
  24545035.530    -4461032.83643  -3471336.17942  24545038.246    24545034.169
 04  7 22  3 17  0.0000000  0 11G31G10G27G28G29G 7G26G13G 8G19G11
  21259114.163   -22999427.59143 -17905251.67442  21259116.180    21259111.688
  24359636.286    -2504602.41243  -1941694.18542  24359637.723    24359635.637
  21249166.167   -22839587.15443 -17598201.51942  21249168.001    21249163.175
  20747315.838   -22940121.03743 -17833793.48342  20747317.857    20747311.640
  22329431.317   -17762708.97343 -13648089.89742  22329433.787    22329428.708
  23290931.548   -10550249.43843  -8211748.33242  23290933.410    23290931.306
  22759760.222   -12905741.78343 -10046971.86742  22759762.801    22759758.576
  24616282.782    -5196429.75743  -3532947.58142  24616284.994    24616282.192
  20212378.309   -28578873.97144 -22234071.10442  20212378.899    20212373.783
  23458956.122   -10357686.69343  -8057604.00342  23458957.786    23458951.877
  24533802.142    -4520064.44943  -3517334.79942  24533804.774    24533800.917
 04  7 22  3 17 30.0000000  0 11G31G10G27G28G29G 7G26G13G 8G19G11
  21243195.891   -23083078.69643 -17970434.31842  21243197.888    21243193.358
  24373512.254    -2431684.09343  -1884874.81242  24373513.681    24373511.638
  21256923.452   -22798822.32343 -17566436.73242  21256925.296    21256920.465
  20742464.284   -22965615.95543 -17853659.65142  20742466.320    20742460.121
  22316873.739   -17828699.36843 -13699510.96142  22316876.238    22316871.120
  23271786.530   -10650856.65143  -8290143.47542  23271788.356    23271786.308
  22744770.254   -12984515.06343 -10108353.59442  22744772.711    22744768.431
  24638300.606    -5080724.97643  -3442788.08942  24638303.119    24638300.100
  20213827.870   -28571256.65544 -22228135.53742  20213828.429    20213823.314
  23472739.883   -10285252.52243  -8001161.84142  23472741.538    23472735.628
  24522614.899    -4578853.63243  -3563144.41442  24522617.429    24522613.646
